<?xml version="1.0" encoding="UTF-8" standalone="no" ?>
<gpx xmlns="http://www.topografix.com/GPX/1/1" xmlns:xsi="http://www.w3.org/2001/XMLSchema-instance" xsi:schemaLocation="http://www.topografix.com/GPX/1/1 http://www.topografix.com/GPX/1/1/gpx.xsd" version="1.1" creator="VisuGPX - https://www.visugpx.com">
  <metadata>
    <name>11009376-N°5-Tour de l'ALLIER</name>
  </metadata>
  <trk>
    <name><![CDATA[11009376-N°5-Tour de l'ALLIER]]></name>
    <trkseg>
      <trkpt lat="44.72515" lon="3.841">
        <ele>966</ele>
        <time>2022-06-06T09:02:51Z</time>
      </trkpt>
      <trkpt lat="44.72533" lon="3.84121">
        <ele>966</ele>
        <time>2022-06-06T09:02:55Z</time>
      </trkpt>
      <trkpt lat="44.72544" lon="3.84127">
        <ele>966</ele>
        <time>2022-06-06T09:02:57Z</time>
      </trkpt>
      <trkpt lat="44.72553" lon="3.84129">
        <ele>966</ele>
        <time>2022-06-06T09:02:59Z</time>
      </trkpt>
      <trkpt lat="44.7258" lon="3.84125">
        <ele>966</ele>
        <time>2022-06-06T09:03:04Z</time>
      </trkpt>
      <trkpt lat="44.72591" lon="3.84119">
        <ele>967</ele>
        <time>2022-06-06T09:03:06Z</time>
      </trkpt>
      <trkpt lat="44.72599" lon="3.84097">
        <ele>968</ele>
        <time>2022-06-06T09:03:09Z</time>
      </trkpt>
      <trkpt lat="44.72597" lon="3.84078">
        <ele>968</ele>
        <time>2022-06-06T09:03:11Z</time>
      </trkpt>
      <trkpt lat="44.72601" lon="3.84071">
        <ele>969</ele>
        <time>2022-06-06T09:03:12Z</time>
      </trkpt>
      <trkpt lat="44.726" lon="3.84053">
        <ele>969</ele>
        <time>2022-06-06T09:03:15Z</time>
      </trkpt>
      <trkpt lat="44.72588" lon="3.84027">
        <ele>969</ele>
        <time>2022-06-06T09:03:19Z</time>
      </trkpt>
      <trkpt lat="44.72595" lon="3.84018">
        <ele>970</ele>
        <time>2022-06-06T09:03:20Z</time>
      </trkpt>
      <trkpt lat="44.72606" lon="3.84025">
        <ele>970</ele>
        <time>2022-06-06T09:03:23Z</time>
      </trkpt>
      <trkpt lat="44.7264" lon="3.8404">
        <ele>970</ele>
        <time>2022-06-06T09:03:29Z</time>
      </trkpt>
      <trkpt lat="44.72657" lon="3.84047">
        <ele>970</ele>
        <time>2022-06-06T09:03:32Z</time>
      </trkpt>
      <trkpt lat="44.72672" lon="3.84052">
        <ele>970</ele>
        <time>2022-06-06T09:03:35Z</time>
      </trkpt>
      <trkpt lat="44.72681" lon="3.84055">
        <ele>971</ele>
        <time>2022-06-06T09:03:36Z</time>
      </trkpt>
      <trkpt lat="44.72701" lon="3.84062">
        <ele>971</ele>
        <time>2022-06-06T09:03:40Z</time>
      </trkpt>
      <trkpt lat="44.72733" lon="3.84063">
        <ele>972</ele>
        <time>2022-06-06T09:03:46Z</time>
      </trkpt>
      <trkpt lat="44.72773" lon="3.84057">
        <ele>973</ele>
        <time>2022-06-06T09:03:53Z</time>
      </trkpt>
      <trkpt lat="44.72863" lon="3.84033">
        <ele>975</ele>
        <time>2022-06-06T09:04:09Z</time>
      </trkpt>
      <trkpt lat="44.72978" lon="3.84004">
        <ele>978</ele>
        <time>2022-06-06T09:04:30Z</time>
      </trkpt>
      <trkpt lat="44.72997" lon="3.83998">
        <ele>979</ele>
        <time>2022-06-06T09:04:33Z</time>
      </trkpt>
      <trkpt lat="44.73022" lon="3.83991">
        <ele>980</ele>
        <time>2022-06-06T09:04:38Z</time>
      </trkpt>
      <trkpt lat="44.73053" lon="3.83985">
        <ele>981</ele>
        <time>2022-06-06T09:04:44Z</time>
      </trkpt>
      <trkpt lat="44.73074" lon="3.83985">
        <ele>982</ele>
        <time>2022-06-06T09:04:47Z</time>
      </trkpt>
      <trkpt lat="44.73095" lon="3.83991">
        <ele>983</ele>
        <time>2022-06-06T09:04:51Z</time>
      </trkpt>
      <trkpt lat="44.73154" lon="3.84019">
        <ele>989</ele>
        <time>2022-06-06T09:05:02Z</time>
      </trkpt>
      <trkpt lat="44.73169" lon="3.84021">
        <ele>990</ele>
        <time>2022-06-06T09:05:05Z</time>
      </trkpt>
      <trkpt lat="44.73181" lon="3.84022">
        <ele>991</ele>
        <time>2022-06-06T09:05:07Z</time>
      </trkpt>
      <trkpt lat="44.73203" lon="3.84018">
        <ele>992</ele>
        <time>2022-06-06T09:05:11Z</time>
      </trkpt>
      <trkpt lat="44.73233" lon="3.84008">
        <ele>994</ele>
        <time>2022-06-06T09:05:16Z</time>
      </trkpt>
      <trkpt lat="44.73243" lon="3.84003">
        <ele>994</ele>
        <time>2022-06-06T09:05:18Z</time>
      </trkpt>
      <trkpt lat="44.73349" lon="3.83958">
        <ele>993</ele>
        <time>2022-06-06T09:05:38Z</time>
      </trkpt>
      <trkpt lat="44.73397" lon="3.83938">
        <ele>989</ele>
        <time>2022-06-06T09:05:47Z</time>
      </trkpt>
      <trkpt lat="44.73426" lon="3.83923">
        <ele>987</ele>
        <time>2022-06-06T09:05:52Z</time>
      </trkpt>
      <trkpt lat="44.73455" lon="3.83903">
        <ele>984</ele>
        <time>2022-06-06T09:05:58Z</time>
      </trkpt>
      <trkpt lat="44.73481" lon="3.83882">
        <ele>982</ele>
        <time>2022-06-06T09:06:04Z</time>
      </trkpt>
      <trkpt lat="44.73708" lon="3.8364">
        <ele>970</ele>
        <time>2022-06-06T09:06:54Z</time>
      </trkpt>
      <trkpt lat="44.73734" lon="3.83611">
        <ele>968</ele>
        <time>2022-06-06T09:07:00Z</time>
      </trkpt>
      <trkpt lat="44.73759" lon="3.83576">
        <ele>966</ele>
        <time>2022-06-06T09:07:06Z</time>
      </trkpt>
      <trkpt lat="44.73813" lon="3.8349">
        <ele>958</ele>
        <time>2022-06-06T09:07:21Z</time>
      </trkpt>
      <trkpt lat="44.73876" lon="3.83392">
        <ele>949</ele>
        <time>2022-06-06T09:07:38Z</time>
      </trkpt>
      <trkpt lat="44.73899" lon="3.83356">
        <ele>947</ele>
        <time>2022-06-06T09:07:44Z</time>
      </trkpt>
      <trkpt lat="44.73919" lon="3.83331">
        <ele>947</ele>
        <time>2022-06-06T09:07:48Z</time>
      </trkpt>
      <trkpt lat="44.73936" lon="3.83316">
        <ele>946</ele>
        <time>2022-06-06T09:07:52Z</time>
      </trkpt>
      <trkpt lat="44.7395" lon="3.83308">
        <ele>945</ele>
        <time>2022-06-06T09:07:55Z</time>
      </trkpt>
      <trkpt lat="44.73972" lon="3.83298">
        <ele>945</ele>
        <time>2022-06-06T09:07:59Z</time>
      </trkpt>
      <trkpt lat="44.74199" lon="3.83197">
        <ele>947</ele>
        <time>2022-06-06T09:08:41Z</time>
      </trkpt>
      <trkpt lat="44.74219" lon="3.83186">
        <ele>948</ele>
        <time>2022-06-06T09:08:45Z</time>
      </trkpt>
      <trkpt lat="44.74239" lon="3.83168">
        <ele>949</ele>
        <time>2022-06-06T09:08:49Z</time>
      </trkpt>
      <trkpt lat="44.74255" lon="3.83145">
        <ele>949</ele>
        <time>2022-06-06T09:08:53Z</time>
      </trkpt>
      <trkpt lat="44.74283" lon="3.83101">
        <ele>949</ele>
        <time>2022-06-06T09:09:01Z</time>
      </trkpt>
      <trkpt lat="44.74322" lon="3.83052">
        <ele>950</ele>
        <time>2022-06-06T09:09:10Z</time>
      </trkpt>
      <trkpt lat="44.74357" lon="3.83016">
        <ele>950</ele>
        <time>2022-06-06T09:09:18Z</time>
      </trkpt>
      <trkpt lat="44.74451" lon="3.82944">
        <ele>949</ele>
        <time>2022-06-06T09:09:37Z</time>
      </trkpt>
      <trkpt lat="44.74483" lon="3.82926">
        <ele>948</ele>
        <time>2022-06-06T09:09:43Z</time>
      </trkpt>
      <trkpt lat="44.74516" lon="3.82919">
        <ele>948</ele>
        <time>2022-06-06T09:09:49Z</time>
      </trkpt>
      <trkpt lat="44.74604" lon="3.82928">
        <ele>955</ele>
        <time>2022-06-06T09:10:05Z</time>
      </trkpt>
      <trkpt lat="44.74623" lon="3.82921">
        <ele>957</ele>
        <time>2022-06-06T09:10:08Z</time>
      </trkpt>
      <trkpt lat="44.74636" lon="3.82909">
        <ele>957</ele>
        <time>2022-06-06T09:10:11Z</time>
      </trkpt>
      <trkpt lat="44.74648" lon="3.82891">
        <ele>958</ele>
        <time>2022-06-06T09:10:14Z</time>
      </trkpt>
      <trkpt lat="44.74653" lon="3.82877">
        <ele>957</ele>
        <time>2022-06-06T09:10:16Z</time>
      </trkpt>
      <trkpt lat="44.7467" lon="3.8274">
        <ele>952</ele>
        <time>2022-06-06T09:10:34Z</time>
      </trkpt>
      <trkpt lat="44.74675" lon="3.82714">
        <ele>950</ele>
        <time>2022-06-06T09:10:37Z</time>
      </trkpt>
      <trkpt lat="44.74681" lon="3.82696">
        <ele>949</ele>
        <time>2022-06-06T09:10:39Z</time>
      </trkpt>
      <trkpt lat="44.74691" lon="3.8268">
        <ele>948</ele>
        <time>2022-06-06T09:10:42Z</time>
      </trkpt>
      <trkpt lat="44.74705" lon="3.82668">
        <ele>947</ele>
        <time>2022-06-06T09:10:45Z</time>
      </trkpt>
      <trkpt lat="44.7472" lon="3.82664">
        <ele>946</ele>
        <time>2022-06-06T09:10:48Z</time>
      </trkpt>
      <trkpt lat="44.74732" lon="3.82665">
        <ele>947</ele>
        <time>2022-06-06T09:10:50Z</time>
      </trkpt>
      <trkpt lat="44.7474" lon="3.82669">
        <ele>947</ele>
        <time>2022-06-06T09:10:51Z</time>
      </trkpt>
      <trkpt lat="44.74745" lon="3.82671">
        <ele>948</ele>
        <time>2022-06-06T09:10:52Z</time>
      </trkpt>
      <trkpt lat="44.74753" lon="3.82674">
        <ele>947</ele>
        <time>2022-06-06T09:10:54Z</time>
      </trkpt>
      <trkpt lat="44.74763" lon="3.82672">
        <ele>945</ele>
        <time>2022-06-06T09:10:56Z</time>
      </trkpt>
      <trkpt lat="44.74766" lon="3.82668">
        <ele>944</ele>
        <time>2022-06-06T09:10:56Z</time>
      </trkpt>
      <trkpt lat="44.74772" lon="3.82655">
        <ele>941</ele>
        <time>2022-06-06T09:10:58Z</time>
      </trkpt>
      <trkpt lat="44.74808" lon="3.82387">
        <ele>949</ele>
        <time>2022-06-06T09:11:33Z</time>
      </trkpt>
      <trkpt lat="44.748" lon="3.82326">
        <ele>957</ele>
        <time>2022-06-06T09:11:41Z</time>
      </trkpt>
      <trkpt lat="44.748" lon="3.82273">
        <ele>958</ele>
        <time>2022-06-06T09:11:47Z</time>
      </trkpt>
      <trkpt lat="44.74821" lon="3.82131">
        <ele>957</ele>
        <time>2022-06-06T09:12:06Z</time>
      </trkpt>
      <trkpt lat="44.74987" lon="3.81768">
        <ele>957</ele>
        <time>2022-06-06T09:13:00Z</time>
      </trkpt>
      <trkpt lat="44.75048" lon="3.815">
        <ele>955</ele>
        <time>2022-06-06T09:13:36Z</time>
      </trkpt>
      <trkpt lat="44.7507" lon="3.81428">
        <ele>959</ele>
        <time>2022-06-06T09:13:46Z</time>
      </trkpt>
      <trkpt lat="44.75089" lon="3.81381">
        <ele>961</ele>
        <time>2022-06-06T09:13:53Z</time>
      </trkpt>
      <trkpt lat="44.7529" lon="3.81029">
        <ele>974</ele>
        <time>2022-06-06T09:14:50Z</time>
      </trkpt>
      <trkpt lat="44.75486" lon="3.80671">
        <ele>974</ele>
        <time>2022-06-06T09:15:47Z</time>
      </trkpt>
      <trkpt lat="44.75502" lon="3.80646">
        <ele>973</ele>
        <time>2022-06-06T09:15:51Z</time>
      </trkpt>
      <trkpt lat="44.75517" lon="3.80633">
        <ele>974</ele>
        <time>2022-06-06T09:15:54Z</time>
      </trkpt>
      <trkpt lat="44.75566" lon="3.80603">
        <ele>977</ele>
        <time>2022-06-06T09:16:04Z</time>
      </trkpt>
      <trkpt lat="44.75582" lon="3.8059">
        <ele>978</ele>
        <time>2022-06-06T09:16:07Z</time>
      </trkpt>
      <trkpt lat="44.75595" lon="3.80575">
        <ele>979</ele>
        <time>2022-06-06T09:16:10Z</time>
      </trkpt>
      <trkpt lat="44.75613" lon="3.80542">
        <ele>982</ele>
        <time>2022-06-06T09:16:15Z</time>
      </trkpt>
      <trkpt lat="44.75624" lon="3.80516">
        <ele>982</ele>
        <time>2022-06-06T09:16:19Z</time>
      </trkpt>
      <trkpt lat="44.75627" lon="3.80505">
        <ele>982</ele>
        <time>2022-06-06T09:16:20Z</time>
      </trkpt>
      <trkpt lat="44.75655" lon="3.80427">
        <ele>984</ele>
        <time>2022-06-06T09:16:31Z</time>
      </trkpt>
      <trkpt lat="44.75657" lon="3.80422">
        <ele>985</ele>
        <time>2022-06-06T09:16:32Z</time>
      </trkpt>
      <trkpt lat="44.75716" lon="3.80258">
        <ele>980</ele>
        <time>2022-06-06T09:16:55Z</time>
      </trkpt>
      <trkpt lat="44.75725" lon="3.8024">
        <ele>979</ele>
        <time>2022-06-06T09:16:58Z</time>
      </trkpt>
      <trkpt lat="44.75735" lon="3.80224">
        <ele>979</ele>
        <time>2022-06-06T09:17:01Z</time>
      </trkpt>
      <trkpt lat="44.75771" lon="3.80182">
        <ele>979</ele>
        <time>2022-06-06T09:17:09Z</time>
      </trkpt>
      <trkpt lat="44.75784" lon="3.80156">
        <ele>979</ele>
        <time>2022-06-06T09:17:13Z</time>
      </trkpt>
      <trkpt lat="44.75793" lon="3.80131">
        <ele>979</ele>
        <time>2022-06-06T09:17:17Z</time>
      </trkpt>
      <trkpt lat="44.75797" lon="3.80114">
        <ele>979</ele>
        <time>2022-06-06T09:17:19Z</time>
      </trkpt>
      <trkpt lat="44.75806" lon="3.80026">
        <ele>977</ele>
        <time>2022-06-06T09:17:30Z</time>
      </trkpt>
      <trkpt lat="44.75811" lon="3.80009">
        <ele>977</ele>
        <time>2022-06-06T09:17:33Z</time>
      </trkpt>
      <trkpt lat="44.75819" lon="3.79993">
        <ele>978</ele>
        <time>2022-06-06T09:17:35Z</time>
      </trkpt>
      <trkpt lat="44.75862" lon="3.79924">
        <ele>982</ele>
        <time>2022-06-06T09:17:47Z</time>
      </trkpt>
      <trkpt lat="44.75871" lon="3.79902">
        <ele>983</ele>
        <time>2022-06-06T09:17:50Z</time>
      </trkpt>
      <trkpt lat="44.75876" lon="3.79885">
        <ele>983</ele>
        <time>2022-06-06T09:17:52Z</time>
      </trkpt>
      <trkpt lat="44.75879" lon="3.79865">
        <ele>982</ele>
        <time>2022-06-06T09:17:55Z</time>
      </trkpt>
      <trkpt lat="44.75881" lon="3.79844">
        <ele>982</ele>
        <time>2022-06-06T09:17:57Z</time>
      </trkpt>
      <trkpt lat="44.75881" lon="3.79823">
        <ele>981</ele>
        <time>2022-06-06T09:18:00Z</time>
      </trkpt>
      <trkpt lat="44.7587" lon="3.79735">
        <ele>974</ele>
        <time>2022-06-06T09:18:11Z</time>
      </trkpt>
      <trkpt lat="44.75868" lon="3.79696">
        <ele>972</ele>
        <time>2022-06-06T09:18:16Z</time>
      </trkpt>
      <trkpt lat="44.75869" lon="3.79656">
        <ele>971</ele>
        <time>2022-06-06T09:18:21Z</time>
      </trkpt>
      <trkpt lat="44.75874" lon="3.79625">
        <ele>970</ele>
        <time>2022-06-06T09:18:25Z</time>
      </trkpt>
      <trkpt lat="44.75882" lon="3.79596">
        <ele>971</ele>
        <time>2022-06-06T09:18:29Z</time>
      </trkpt>
      <trkpt lat="44.75887" lon="3.79574">
        <ele>970</ele>
        <time>2022-06-06T09:18:32Z</time>
      </trkpt>
      <trkpt lat="44.75928" lon="3.7949">
        <ele>969</ele>
        <time>2022-06-06T09:18:45Z</time>
      </trkpt>
      <trkpt lat="44.76017" lon="3.79412">
        <ele>980</ele>
        <time>2022-06-06T09:19:04Z</time>
      </trkpt>
      <trkpt lat="44.76042" lon="3.79366">
        <ele>984</ele>
        <time>2022-06-06T09:19:11Z</time>
      </trkpt>
      <trkpt lat="44.76075" lon="3.79229">
        <ele>984</ele>
        <time>2022-06-06T09:19:29Z</time>
      </trkpt>
      <trkpt lat="44.761" lon="3.79118">
        <ele>979</ele>
        <time>2022-06-06T09:19:44Z</time>
      </trkpt>
      <trkpt lat="44.76127" lon="3.7906">
        <ele>978</ele>
        <time>2022-06-06T09:19:53Z</time>
      </trkpt>
      <trkpt lat="44.76219" lon="3.78951">
        <ele>982</ele>
        <time>2022-06-06T09:20:14Z</time>
      </trkpt>
      <trkpt lat="44.76243" lon="3.78881">
        <ele>978</ele>
        <time>2022-06-06T09:20:24Z</time>
      </trkpt>
      <trkpt lat="44.76252" lon="3.78806">
        <ele>972</ele>
        <time>2022-06-06T09:20:34Z</time>
      </trkpt>
      <trkpt lat="44.7628" lon="3.78697">
        <ele>972</ele>
        <time>2022-06-06T09:20:48Z</time>
      </trkpt>
      <trkpt lat="44.76317" lon="3.78601">
        <ele>970</ele>
        <time>2022-06-06T09:21:02Z</time>
      </trkpt>
      <trkpt lat="44.76418" lon="3.78393">
        <ele>968</ele>
        <time>2022-06-06T09:21:34Z</time>
      </trkpt>
      <trkpt lat="44.76437" lon="3.78309">
        <ele>969</ele>
        <time>2022-06-06T09:21:45Z</time>
      </trkpt>
      <trkpt lat="44.76447" lon="3.78173">
        <ele>966</ele>
        <time>2022-06-06T09:22:02Z</time>
      </trkpt>
      <trkpt lat="44.76469" lon="3.77928">
        <ele>963</ele>
        <time>2022-06-06T09:22:34Z</time>
      </trkpt>
      <trkpt lat="44.76487" lon="3.77849">
        <ele>958</ele>
        <time>2022-06-06T09:22:44Z</time>
      </trkpt>
      <trkpt lat="44.76524" lon="3.77783">
        <ele>958</ele>
        <time>2022-06-06T09:22:55Z</time>
      </trkpt>
      <trkpt lat="44.76716" lon="3.77188">
        <ele>955</ele>
        <time>2022-06-06T09:24:17Z</time>
      </trkpt>
      <trkpt lat="44.76758" lon="3.76983">
        <ele>951</ele>
        <time>2022-06-06T09:24:44Z</time>
      </trkpt>
      <trkpt lat="44.76787" lon="3.76918">
        <ele>952</ele>
        <time>2022-06-06T09:24:54Z</time>
      </trkpt>
      <trkpt lat="44.76839" lon="3.76827">
        <ele>953</ele>
        <time>2022-06-06T09:25:09Z</time>
      </trkpt>
      <trkpt lat="44.76866" lon="3.76751">
        <ele>954</ele>
        <time>2022-06-06T09:25:19Z</time>
      </trkpt>
      <trkpt lat="44.76895" lon="3.76618">
        <ele>956</ele>
        <time>2022-06-06T09:25:37Z</time>
      </trkpt>
      <trkpt lat="44.76928" lon="3.76546">
        <ele>959</ele>
        <time>2022-06-06T09:25:48Z</time>
      </trkpt>
      <trkpt lat="44.76951" lon="3.76485">
        <ele>960</ele>
        <time>2022-06-06T09:25:57Z</time>
      </trkpt>
      <trkpt lat="44.76961" lon="3.76434">
        <ele>959</ele>
        <time>2022-06-06T09:26:03Z</time>
      </trkpt>
      <trkpt lat="44.76996" lon="3.76352">
        <ele>961</ele>
        <time>2022-06-06T09:26:15Z</time>
      </trkpt>
      <trkpt lat="44.77018" lon="3.7631">
        <ele>963</ele>
        <time>2022-06-06T09:26:22Z</time>
      </trkpt>
      <trkpt lat="44.7705" lon="3.76221">
        <ele>966</ele>
        <time>2022-06-06T09:26:34Z</time>
      </trkpt>
      <trkpt lat="44.7709" lon="3.76128">
        <ele>970</ele>
        <time>2022-06-06T09:26:48Z</time>
      </trkpt>
      <trkpt lat="44.77113" lon="3.76048">
        <ele>972</ele>
        <time>2022-06-06T09:26:59Z</time>
      </trkpt>
      <trkpt lat="44.77129" lon="3.75939">
        <ele>972</ele>
        <time>2022-06-06T09:27:13Z</time>
      </trkpt>
      <trkpt lat="44.77156" lon="3.75849">
        <ele>972</ele>
        <time>2022-06-06T09:27:26Z</time>
      </trkpt>
      <trkpt lat="44.77214" lon="3.75738">
        <ele>975</ele>
        <time>2022-06-06T09:27:43Z</time>
      </trkpt>
      <trkpt lat="44.77249" lon="3.75681">
        <ele>976</ele>
        <time>2022-06-06T09:27:52Z</time>
      </trkpt>
      <trkpt lat="44.77289" lon="3.7563">
        <ele>979</ele>
        <time>2022-06-06T09:28:02Z</time>
      </trkpt>
      <trkpt lat="44.77317" lon="3.75565">
        <ele>978</ele>
        <time>2022-06-06T09:28:12Z</time>
      </trkpt>
      <trkpt lat="44.77366" lon="3.75415">
        <ele>981</ele>
        <time>2022-06-06T09:28:33Z</time>
      </trkpt>
      <trkpt lat="44.77398" lon="3.7525">
        <ele>983</ele>
        <time>2022-06-06T09:28:54Z</time>
      </trkpt>
      <trkpt lat="44.77463" lon="3.75043">
        <ele>988</ele>
        <time>2022-06-06T09:29:23Z</time>
      </trkpt>
      <trkpt lat="44.77485" lon="3.74982">
        <ele>989</ele>
        <time>2022-06-06T09:29:31Z</time>
      </trkpt>
      <trkpt lat="44.77494" lon="3.74944">
        <ele>989</ele>
        <time>2022-06-06T09:29:36Z</time>
      </trkpt>
      <trkpt lat="44.77538" lon="3.74876">
        <ele>992</ele>
        <time>2022-06-06T09:29:48Z</time>
      </trkpt>
      <trkpt lat="44.7761" lon="3.74782">
        <ele>996</ele>
        <time>2022-06-06T09:30:05Z</time>
      </trkpt>
      <trkpt lat="44.7769" lon="3.74593">
        <ele>1001</ele>
        <time>2022-06-06T09:30:33Z</time>
      </trkpt>
      <trkpt lat="44.77694" lon="3.74536">
        <ele>1002</ele>
        <time>2022-06-06T09:30:41Z</time>
      </trkpt>
      <trkpt lat="44.77681" lon="3.74499">
        <ele>1002</ele>
        <time>2022-06-06T09:30:46Z</time>
      </trkpt>
      <trkpt lat="44.7765" lon="3.74485">
        <ele>1003</ele>
        <time>2022-06-06T09:30:52Z</time>
      </trkpt>
      <trkpt lat="44.77614" lon="3.74494">
        <ele>1006</ele>
        <time>2022-06-06T09:30:58Z</time>
      </trkpt>
      <trkpt lat="44.77521" lon="3.7457">
        <ele>1006</ele>
        <time>2022-06-06T09:31:17Z</time>
      </trkpt>
      <trkpt lat="44.77483" lon="3.74572">
        <ele>1008</ele>
        <time>2022-06-06T09:31:24Z</time>
      </trkpt>
      <trkpt lat="44.77433" lon="3.74539">
        <ele>1011</ele>
        <time>2022-06-06T09:31:34Z</time>
      </trkpt>
      <trkpt lat="44.77409" lon="3.74493">
        <ele>1014</ele>
        <time>2022-06-06T09:31:41Z</time>
      </trkpt>
      <trkpt lat="44.77364" lon="3.74463">
        <ele>1012</ele>
        <time>2022-06-06T09:31:50Z</time>
      </trkpt>
      <trkpt lat="44.77297" lon="3.74332">
        <ele>1018</ele>
        <time>2022-06-06T09:32:10Z</time>
      </trkpt>
      <trkpt lat="44.77292" lon="3.74283">
        <ele>1018</ele>
        <time>2022-06-06T09:32:16Z</time>
      </trkpt>
      <trkpt lat="44.77308" lon="3.74167">
        <ele>1024</ele>
        <time>2022-06-06T09:32:31Z</time>
      </trkpt>
      <trkpt lat="44.77316" lon="3.74058">
        <ele>1027</ele>
        <time>2022-06-06T09:32:45Z</time>
      </trkpt>
      <trkpt lat="44.77334" lon="3.74003">
        <ele>1028</ele>
        <time>2022-06-06T09:32:53Z</time>
      </trkpt>
      <trkpt lat="44.77387" lon="3.73902">
        <ele>1032</ele>
        <time>2022-06-06T09:33:09Z</time>
      </trkpt>
      <trkpt lat="44.77402" lon="3.73868">
        <ele>1032</ele>
        <time>2022-06-06T09:33:14Z</time>
      </trkpt>
      <trkpt lat="44.77415" lon="3.73829">
        <ele>1031</ele>
        <time>2022-06-06T09:33:19Z</time>
      </trkpt>
      <trkpt lat="44.77421" lon="3.73796">
        <ele>1031</ele>
        <time>2022-06-06T09:33:24Z</time>
      </trkpt>
      <trkpt lat="44.77422" lon="3.73766">
        <ele>1031</ele>
        <time>2022-06-06T09:33:27Z</time>
      </trkpt>
      <trkpt lat="44.77415" lon="3.7369">
        <ele>1033</ele>
        <time>2022-06-06T09:33:37Z</time>
      </trkpt>
      <trkpt lat="44.77414" lon="3.73647">
        <ele>1035</ele>
        <time>2022-06-06T09:33:42Z</time>
      </trkpt>
      <trkpt lat="44.77418" lon="3.73602">
        <ele>1036</ele>
        <time>2022-06-06T09:33:48Z</time>
      </trkpt>
      <trkpt lat="44.77426" lon="3.73565">
        <ele>1038</ele>
        <time>2022-06-06T09:33:53Z</time>
      </trkpt>
      <trkpt lat="44.77437" lon="3.73529">
        <ele>1041</ele>
        <time>2022-06-06T09:33:58Z</time>
      </trkpt>
      <trkpt lat="44.77442" lon="3.73502">
        <ele>1042</ele>
        <time>2022-06-06T09:34:02Z</time>
      </trkpt>
      <trkpt lat="44.77439" lon="3.73474">
        <ele>1042</ele>
        <time>2022-06-06T09:34:05Z</time>
      </trkpt>
      <trkpt lat="44.77423" lon="3.73387">
        <ele>1040</ele>
        <time>2022-06-06T09:34:16Z</time>
      </trkpt>
      <trkpt lat="44.77414" lon="3.73266">
        <ele>1038</ele>
        <time>2022-06-06T09:34:32Z</time>
      </trkpt>
      <trkpt lat="44.77416" lon="3.73203">
        <ele>1035</ele>
        <time>2022-06-06T09:34:40Z</time>
      </trkpt>
      <trkpt lat="44.77424" lon="3.73126">
        <ele>1033</ele>
        <time>2022-06-06T09:34:50Z</time>
      </trkpt>
      <trkpt lat="44.77435" lon="3.73054">
        <ele>1032</ele>
        <time>2022-06-06T09:34:59Z</time>
      </trkpt>
      <trkpt lat="44.77448" lon="3.73012">
        <ele>1032</ele>
        <time>2022-06-06T09:35:05Z</time>
      </trkpt>
      <trkpt lat="44.77464" lon="3.7298">
        <ele>1030</ele>
        <time>2022-06-06T09:35:10Z</time>
      </trkpt>
      <trkpt lat="44.77494" lon="3.72942">
        <ele>1027</ele>
        <time>2022-06-06T09:35:17Z</time>
      </trkpt>
      <trkpt lat="44.77538" lon="3.72895">
        <ele>1023</ele>
        <time>2022-06-06T09:35:27Z</time>
      </trkpt>
      <trkpt lat="44.776" lon="3.72837">
        <ele>1016</ele>
        <time>2022-06-06T09:35:40Z</time>
      </trkpt>
      <trkpt lat="44.77648" lon="3.72786">
        <ele>1012</ele>
        <time>2022-06-06T09:35:51Z</time>
      </trkpt>
      <trkpt lat="44.77663" lon="3.72762">
        <ele>1011</ele>
        <time>2022-06-06T09:35:55Z</time>
      </trkpt>
      <trkpt lat="44.77679" lon="3.72723">
        <ele>1010</ele>
        <time>2022-06-06T09:36:00Z</time>
      </trkpt>
      <trkpt lat="44.77718" lon="3.72599">
        <ele>1005</ele>
        <time>2022-06-06T09:36:17Z</time>
      </trkpt>
      <trkpt lat="44.77731" lon="3.72572">
        <ele>1003</ele>
        <time>2022-06-06T09:36:22Z</time>
      </trkpt>
      <trkpt lat="44.77746" lon="3.72546">
        <ele>1003</ele>
        <time>2022-06-06T09:36:26Z</time>
      </trkpt>
      <trkpt lat="44.77755" lon="3.72517">
        <ele>1003</ele>
        <time>2022-06-06T09:36:30Z</time>
      </trkpt>
      <trkpt lat="44.77771" lon="3.72319">
        <ele>1010</ele>
        <time>2022-06-06T09:36:55Z</time>
      </trkpt>
      <trkpt lat="44.77769" lon="3.72284">
        <ele>1011</ele>
        <time>2022-06-06T09:36:59Z</time>
      </trkpt>
      <trkpt lat="44.77762" lon="3.72257">
        <ele>1010</ele>
        <time>2022-06-06T09:37:03Z</time>
      </trkpt>
      <trkpt lat="44.77743" lon="3.72193">
        <ele>1009</ele>
        <time>2022-06-06T09:37:12Z</time>
      </trkpt>
      <trkpt lat="44.77738" lon="3.72155">
        <ele>1008</ele>
        <time>2022-06-06T09:37:17Z</time>
      </trkpt>
      <trkpt lat="44.77731" lon="3.71989">
        <ele>1005</ele>
        <time>2022-06-06T09:37:38Z</time>
      </trkpt>
      <trkpt lat="44.77734" lon="3.71956">
        <ele>1005</ele>
        <time>2022-06-06T09:37:42Z</time>
      </trkpt>
      <trkpt lat="44.77744" lon="3.71892">
        <ele>1002</ele>
        <time>2022-06-06T09:37:50Z</time>
      </trkpt>
      <trkpt lat="44.77746" lon="3.71847">
        <ele>1000</ele>
        <time>2022-06-06T09:37:56Z</time>
      </trkpt>
      <trkpt lat="44.77753" lon="3.71822">
        <ele>998</ele>
        <time>2022-06-06T09:37:59Z</time>
      </trkpt>
      <trkpt lat="44.77767" lon="3.71797">
        <ele>1000</ele>
        <time>2022-06-06T09:38:03Z</time>
      </trkpt>
      <trkpt lat="44.77785" lon="3.71781">
        <ele>1000</ele>
        <time>2022-06-06T09:38:07Z</time>
      </trkpt>
      <trkpt lat="44.77811" lon="3.71761">
        <ele>999</ele>
        <time>2022-06-06T09:38:12Z</time>
      </trkpt>
      <trkpt lat="44.77847" lon="3.71714">
        <ele>996</ele>
        <time>2022-06-06T09:38:21Z</time>
      </trkpt>
      <trkpt lat="44.77867" lon="3.71693">
        <ele>994</ele>
        <time>2022-06-06T09:38:26Z</time>
      </trkpt>
      <trkpt lat="44.77908" lon="3.7166">
        <ele>988</ele>
        <time>2022-06-06T09:38:34Z</time>
      </trkpt>
      <trkpt lat="44.77941" lon="3.7164">
        <ele>987</ele>
        <time>2022-06-06T09:38:40Z</time>
      </trkpt>
      <trkpt lat="44.77998" lon="3.71615">
        <ele>983</ele>
        <time>2022-06-06T09:38:51Z</time>
      </trkpt>
      <trkpt lat="44.78025" lon="3.71591">
        <ele>981</ele>
        <time>2022-06-06T09:38:57Z</time>
      </trkpt>
      <trkpt lat="44.78047" lon="3.71557">
        <ele>979</ele>
        <time>2022-06-06T09:39:02Z</time>
      </trkpt>
      <trkpt lat="44.78061" lon="3.71518">
        <ele>974</ele>
        <time>2022-06-06T09:39:08Z</time>
      </trkpt>
      <trkpt lat="44.78075" lon="3.71487">
        <ele>969</ele>
        <time>2022-06-06T09:39:13Z</time>
      </trkpt>
      <trkpt lat="44.78091" lon="3.71471">
        <ele>966</ele>
        <time>2022-06-06T09:39:16Z</time>
      </trkpt>
      <trkpt lat="44.78123" lon="3.71461">
        <ele>962</ele>
        <time>2022-06-06T09:39:22Z</time>
      </trkpt>
      <trkpt lat="44.78149" lon="3.71463">
        <ele>962</ele>
        <time>2022-06-06T09:39:27Z</time>
      </trkpt>
      <trkpt lat="44.78174" lon="3.71473">
        <ele>964</ele>
        <time>2022-06-06T09:39:31Z</time>
      </trkpt>
      <trkpt lat="44.78192" lon="3.71472">
        <ele>965</ele>
        <time>2022-06-06T09:39:34Z</time>
      </trkpt>
      <trkpt lat="44.78211" lon="3.71459">
        <ele>964</ele>
        <time>2022-06-06T09:39:38Z</time>
      </trkpt>
      <trkpt lat="44.78335" lon="3.71293">
        <ele>945</ele>
        <time>2022-06-06T09:40:09Z</time>
      </trkpt>
      <trkpt lat="44.78386" lon="3.71192">
        <ele>933</ele>
        <time>2022-06-06T09:40:24Z</time>
      </trkpt>
      <trkpt lat="44.78408" lon="3.71145">
        <ele>930</ele>
        <time>2022-06-06T09:40:31Z</time>
      </trkpt>
      <trkpt lat="44.78426" lon="3.71093">
        <ele>927</ele>
        <time>2022-06-06T09:40:39Z</time>
      </trkpt>
      <trkpt lat="44.78438" lon="3.71032">
        <ele>926</ele>
        <time>2022-06-06T09:40:47Z</time>
      </trkpt>
      <trkpt lat="44.78451" lon="3.70941">
        <ele>921</ele>
        <time>2022-06-06T09:40:58Z</time>
      </trkpt>
      <trkpt lat="44.78461" lon="3.70899">
        <ele>918</ele>
        <time>2022-06-06T09:41:04Z</time>
      </trkpt>
      <trkpt lat="44.7847" lon="3.70878">
        <ele>917</ele>
        <time>2022-06-06T09:41:07Z</time>
      </trkpt>
      <trkpt lat="44.78513" lon="3.70831">
        <ele>915</ele>
        <time>2022-06-06T09:41:17Z</time>
      </trkpt>
      <trkpt lat="44.78518" lon="3.70815">
        <ele>914</ele>
        <time>2022-06-06T09:41:19Z</time>
      </trkpt>
      <trkpt lat="44.78524" lon="3.70812">
        <ele>914</ele>
        <time>2022-06-06T09:41:20Z</time>
      </trkpt>
      <trkpt lat="44.78528" lon="3.70805">
        <ele>914</ele>
        <time>2022-06-06T09:41:21Z</time>
      </trkpt>
      <trkpt lat="44.78527" lon="3.70795">
        <ele>912</ele>
        <time>2022-06-06T09:41:22Z</time>
      </trkpt>
      <trkpt lat="44.78533" lon="3.70791">
        <ele>912</ele>
        <time>2022-06-06T09:41:24Z</time>
      </trkpt>
      <trkpt lat="44.78561" lon="3.70773">
        <ele>913</ele>
        <time>2022-06-06T09:41:29Z</time>
      </trkpt>
      <trkpt lat="44.78598" lon="3.70755">
        <ele>911</ele>
        <time>2022-06-06T09:41:36Z</time>
      </trkpt>
      <trkpt lat="44.7861" lon="3.70749">
        <ele>910</ele>
        <time>2022-06-06T09:41:38Z</time>
      </trkpt>
      <trkpt lat="44.78664" lon="3.70712">
        <ele>905</ele>
        <time>2022-06-06T09:41:49Z</time>
      </trkpt>
      <trkpt lat="44.78683" lon="3.70714">
        <ele>903</ele>
        <time>2022-06-06T09:41:52Z</time>
      </trkpt>
      <trkpt lat="44.787" lon="3.70733">
        <ele>902</ele>
        <time>2022-06-06T09:41:56Z</time>
      </trkpt>
      <trkpt lat="44.78716" lon="3.70811">
        <ele>909</ele>
        <time>2022-06-06T09:42:07Z</time>
      </trkpt>
      <trkpt lat="44.78726" lon="3.70838">
        <ele>909</ele>
        <time>2022-06-06T09:42:10Z</time>
      </trkpt>
      <trkpt lat="44.78765" lon="3.70901">
        <ele>910</ele>
        <time>2022-06-06T09:42:21Z</time>
      </trkpt>
      <trkpt lat="44.78792" lon="3.70969">
        <ele>912</ele>
        <time>2022-06-06T09:42:31Z</time>
      </trkpt>
      <trkpt lat="44.78864" lon="3.71073">
        <ele>917</ele>
        <time>2022-06-06T09:42:49Z</time>
      </trkpt>
      <trkpt lat="44.78899" lon="3.7109">
        <ele>914</ele>
        <time>2022-06-06T09:42:56Z</time>
      </trkpt>
      <trkpt lat="44.78929" lon="3.71083">
        <ele>910</ele>
        <time>2022-06-06T09:43:01Z</time>
      </trkpt>
      <trkpt lat="44.78976" lon="3.71059">
        <ele>912</ele>
        <time>2022-06-06T09:43:10Z</time>
      </trkpt>
      <trkpt lat="44.79017" lon="3.70977">
        <ele>907</ele>
        <time>2022-06-06T09:43:23Z</time>
      </trkpt>
      <trkpt lat="44.79023" lon="3.70932">
        <ele>907</ele>
        <time>2022-06-06T09:43:28Z</time>
      </trkpt>
      <trkpt lat="44.79016" lon="3.70874">
        <ele>900</ele>
        <time>2022-06-06T09:43:36Z</time>
      </trkpt>
      <trkpt lat="44.79019" lon="3.70834">
        <ele>898</ele>
        <time>2022-06-06T09:43:41Z</time>
      </trkpt>
      <trkpt lat="44.79039" lon="3.70796">
        <ele>897</ele>
        <time>2022-06-06T09:43:47Z</time>
      </trkpt>
      <trkpt lat="44.79059" lon="3.70772">
        <ele>896</ele>
        <time>2022-06-06T09:43:52Z</time>
      </trkpt>
      <trkpt lat="44.79089" lon="3.70767">
        <ele>896</ele>
        <time>2022-06-06T09:43:57Z</time>
      </trkpt>
      <trkpt lat="44.79141" lon="3.70778">
        <ele>895</ele>
        <time>2022-06-06T09:44:06Z</time>
      </trkpt>
      <trkpt lat="44.79164" lon="3.70793">
        <ele>898</ele>
        <time>2022-06-06T09:44:11Z</time>
      </trkpt>
      <trkpt lat="44.79203" lon="3.70835">
        <ele>899</ele>
        <time>2022-06-06T09:44:20Z</time>
      </trkpt>
      <trkpt lat="44.79264" lon="3.70883">
        <ele>898</ele>
        <time>2022-06-06T09:44:32Z</time>
      </trkpt>
      <trkpt lat="44.79341" lon="3.70968">
        <ele>892</ele>
        <time>2022-06-06T09:44:49Z</time>
      </trkpt>
      <trkpt lat="44.79374" lon="3.70991">
        <ele>896</ele>
        <time>2022-06-06T09:44:56Z</time>
      </trkpt>
      <trkpt lat="44.79414" lon="3.70988">
        <ele>894</ele>
        <time>2022-06-06T09:45:03Z</time>
      </trkpt>
      <trkpt lat="44.79488" lon="3.70955">
        <ele>899</ele>
        <time>2022-06-06T09:45:17Z</time>
      </trkpt>
      <trkpt lat="44.7952" lon="3.7092">
        <ele>896</ele>
        <time>2022-06-06T09:45:24Z</time>
      </trkpt>
      <trkpt lat="44.79557" lon="3.7084">
        <ele>889</ele>
        <time>2022-06-06T09:45:36Z</time>
      </trkpt>
      <trkpt lat="44.79604" lon="3.70786">
        <ele>891</ele>
        <time>2022-06-06T09:45:47Z</time>
      </trkpt>
      <trkpt lat="44.79618" lon="3.70755">
        <ele>891</ele>
        <time>2022-06-06T09:45:52Z</time>
      </trkpt>
      <trkpt lat="44.79688" lon="3.70408">
        <ele>888</ele>
        <time>2022-06-06T09:46:37Z</time>
      </trkpt>
      <trkpt lat="44.79704" lon="3.70364">
        <ele>889</ele>
        <time>2022-06-06T09:46:43Z</time>
      </trkpt>
      <trkpt lat="44.79729" lon="3.70326">
        <ele>890</ele>
        <time>2022-06-06T09:46:50Z</time>
      </trkpt>
      <trkpt lat="44.79821" lon="3.70249">
        <ele>888</ele>
        <time>2022-06-06T09:47:09Z</time>
      </trkpt>
      <trkpt lat="44.79849" lon="3.70228">
        <ele>889</ele>
        <time>2022-06-06T09:47:15Z</time>
      </trkpt>
      <trkpt lat="44.79921" lon="3.7019">
        <ele>889</ele>
        <time>2022-06-06T09:47:28Z</time>
      </trkpt>
      <trkpt lat="44.80024" lon="3.70151">
        <ele>894</ele>
        <time>2022-06-06T09:47:47Z</time>
      </trkpt>
      <trkpt lat="44.80062" lon="3.70131">
        <ele>894</ele>
        <time>2022-06-06T09:47:55Z</time>
      </trkpt>
      <trkpt lat="44.80113" lon="3.70089">
        <ele>889</ele>
        <time>2022-06-06T09:48:05Z</time>
      </trkpt>
      <trkpt lat="44.80146" lon="3.70054">
        <ele>890</ele>
        <time>2022-06-06T09:48:12Z</time>
      </trkpt>
      <trkpt lat="44.80167" lon="3.70021">
        <ele>885</ele>
        <time>2022-06-06T09:48:18Z</time>
      </trkpt>
      <trkpt lat="44.80175" lon="3.70006">
        <ele>884</ele>
        <time>2022-06-06T09:48:20Z</time>
      </trkpt>
      <trkpt lat="44.80186" lon="3.69987">
        <ele>885</ele>
        <time>2022-06-06T09:48:23Z</time>
      </trkpt>
      <trkpt lat="44.8024" lon="3.69876">
        <ele>887</ele>
        <time>2022-06-06T09:48:40Z</time>
      </trkpt>
      <trkpt lat="44.80256" lon="3.69853">
        <ele>886</ele>
        <time>2022-06-06T09:48:45Z</time>
      </trkpt>
      <trkpt lat="44.80292" lon="3.69813">
        <ele>883</ele>
        <time>2022-06-06T09:48:53Z</time>
      </trkpt>
      <trkpt lat="44.80306" lon="3.69803">
        <ele>882</ele>
        <time>2022-06-06T09:48:55Z</time>
      </trkpt>
      <trkpt lat="44.80313" lon="3.69799">
        <ele>882</ele>
        <time>2022-06-06T09:48:57Z</time>
      </trkpt>
      <trkpt lat="44.8033" lon="3.69795">
        <ele>881</ele>
        <time>2022-06-06T09:49:00Z</time>
      </trkpt>
      <trkpt lat="44.80351" lon="3.69797">
        <ele>881</ele>
        <time>2022-06-06T09:49:04Z</time>
      </trkpt>
      <trkpt lat="44.80388" lon="3.69807">
        <ele>880</ele>
        <time>2022-06-06T09:49:10Z</time>
      </trkpt>
      <trkpt lat="44.80461" lon="3.69811">
        <ele>882</ele>
        <time>2022-06-06T09:49:23Z</time>
      </trkpt>
      <trkpt lat="44.80476" lon="3.69808">
        <ele>882</ele>
        <time>2022-06-06T09:49:26Z</time>
      </trkpt>
      <trkpt lat="44.80489" lon="3.69802">
        <ele>882</ele>
        <time>2022-06-06T09:49:28Z</time>
      </trkpt>
      <trkpt lat="44.80534" lon="3.69766">
        <ele>880</ele>
        <time>2022-06-06T09:49:38Z</time>
      </trkpt>
      <trkpt lat="44.80554" lon="3.69747">
        <ele>878</ele>
        <time>2022-06-06T09:49:42Z</time>
      </trkpt>
      <trkpt lat="44.80582" lon="3.69702">
        <ele>873</ele>
        <time>2022-06-06T09:49:49Z</time>
      </trkpt>
      <trkpt lat="44.80593" lon="3.69688">
        <ele>872</ele>
        <time>2022-06-06T09:49:52Z</time>
      </trkpt>
      <trkpt lat="44.80632" lon="3.69653">
        <ele>871</ele>
        <time>2022-06-06T09:50:00Z</time>
      </trkpt>
      <trkpt lat="44.8065" lon="3.6964">
        <ele>871</ele>
        <time>2022-06-06T09:50:04Z</time>
      </trkpt>
      <trkpt lat="44.8067" lon="3.69626">
        <ele>870</ele>
        <time>2022-06-06T09:50:08Z</time>
      </trkpt>
      <trkpt lat="44.80748" lon="3.69612">
        <ele>866</ele>
        <time>2022-06-06T09:50:22Z</time>
      </trkpt>
      <trkpt lat="44.80764" lon="3.69613">
        <ele>864</ele>
        <time>2022-06-06T09:50:25Z</time>
      </trkpt>
      <trkpt lat="44.80774" lon="3.69613">
        <ele>863</ele>
        <time>2022-06-06T09:50:27Z</time>
      </trkpt>
      <trkpt lat="44.80783" lon="3.69609">
        <ele>862</ele>
        <time>2022-06-06T09:50:28Z</time>
      </trkpt>
      <trkpt lat="44.80802" lon="3.69591">
        <ele>859</ele>
        <time>2022-06-06T09:50:32Z</time>
      </trkpt>
      <trkpt lat="44.80813" lon="3.69581">
        <ele>857</ele>
        <time>2022-06-06T09:50:35Z</time>
      </trkpt>
      <trkpt lat="44.80843" lon="3.69553">
        <ele>858</ele>
        <time>2022-06-06T09:50:41Z</time>
      </trkpt>
      <trkpt lat="44.80877" lon="3.6949">
        <ele>870</ele>
        <time>2022-06-06T09:50:51Z</time>
      </trkpt>
      <trkpt lat="44.80879" lon="3.69483">
        <ele>872</ele>
        <time>2022-06-06T09:50:52Z</time>
      </trkpt>
      <trkpt lat="44.80879" lon="3.69477">
        <ele>874</ele>
        <time>2022-06-06T09:50:53Z</time>
      </trkpt>
      <trkpt lat="44.80887" lon="3.6948">
        <ele>876</ele>
        <time>2022-06-06T09:50:54Z</time>
      </trkpt>
      <trkpt lat="44.80897" lon="3.69488">
        <ele>877</ele>
        <time>2022-06-06T09:50:56Z</time>
      </trkpt>
      <trkpt lat="44.80907" lon="3.69502">
        <ele>876</ele>
        <time>2022-06-06T09:50:59Z</time>
      </trkpt>
      <trkpt lat="44.80914" lon="3.69515">
        <ele>877</ele>
        <time>2022-06-06T09:51:01Z</time>
      </trkpt>
      <trkpt lat="44.8092" lon="3.69533">
        <ele>878</ele>
        <time>2022-06-06T09:51:03Z</time>
      </trkpt>
      <trkpt lat="44.80923" lon="3.69551">
        <ele>877</ele>
        <time>2022-06-06T09:51:06Z</time>
      </trkpt>
      <trkpt lat="44.80922" lon="3.69566">
        <ele>875</ele>
        <time>2022-06-06T09:51:08Z</time>
      </trkpt>
      <trkpt lat="44.80919" lon="3.69581">
        <ele>872</ele>
        <time>2022-06-06T09:51:10Z</time>
      </trkpt>
      <trkpt lat="44.80918" lon="3.69599">
        <ele>871</ele>
        <time>2022-06-06T09:51:12Z</time>
      </trkpt>
      <trkpt lat="44.8092" lon="3.6962">
        <ele>872</ele>
        <time>2022-06-06T09:51:14Z</time>
      </trkpt>
      <trkpt lat="44.80921" lon="3.69628">
        <ele>872</ele>
        <time>2022-06-06T09:51:16Z</time>
      </trkpt>
      <trkpt lat="44.80927" lon="3.69713">
        <ele>872</ele>
        <time>2022-06-06T09:51:26Z</time>
      </trkpt>
      <trkpt lat="44.80933" lon="3.69738">
        <ele>874</ele>
        <time>2022-06-06T09:51:30Z</time>
      </trkpt>
      <trkpt lat="44.80943" lon="3.69756">
        <ele>875</ele>
        <time>2022-06-06T09:51:33Z</time>
      </trkpt>
      <trkpt lat="44.80957" lon="3.69767">
        <ele>877</ele>
        <time>2022-06-06T09:51:35Z</time>
      </trkpt>
      <trkpt lat="44.80975" lon="3.69774">
        <ele>880</ele>
        <time>2022-06-06T09:51:39Z</time>
      </trkpt>
      <trkpt lat="44.81005" lon="3.69773">
        <ele>887</ele>
        <time>2022-06-06T09:51:44Z</time>
      </trkpt>
      <trkpt lat="44.8104" lon="3.69768">
        <ele>891</ele>
        <time>2022-06-06T09:51:50Z</time>
      </trkpt>
      <trkpt lat="44.81063" lon="3.69768">
        <ele>894</ele>
        <time>2022-06-06T09:51:54Z</time>
      </trkpt>
      <trkpt lat="44.81078" lon="3.69772">
        <ele>894</ele>
        <time>2022-06-06T09:51:57Z</time>
      </trkpt>
      <trkpt lat="44.81091" lon="3.69778">
        <ele>895</ele>
        <time>2022-06-06T09:52:00Z</time>
      </trkpt>
      <trkpt lat="44.81112" lon="3.69782">
        <ele>897</ele>
        <time>2022-06-06T09:52:03Z</time>
      </trkpt>
      <trkpt lat="44.81208" lon="3.69763">
        <ele>910</ele>
        <time>2022-06-06T09:52:21Z</time>
      </trkpt>
      <trkpt lat="44.81219" lon="3.69763">
        <ele>911</ele>
        <time>2022-06-06T09:52:23Z</time>
      </trkpt>
      <trkpt lat="44.81226" lon="3.69763">
        <ele>912</ele>
        <time>2022-06-06T09:52:24Z</time>
      </trkpt>
      <trkpt lat="44.81233" lon="3.69763">
        <ele>912</ele>
        <time>2022-06-06T09:52:25Z</time>
      </trkpt>
      <trkpt lat="44.8126" lon="3.69758">
        <ele>916</ele>
        <time>2022-06-06T09:52:30Z</time>
      </trkpt>
      <trkpt lat="44.81268" lon="3.69752">
        <ele>918</ele>
        <time>2022-06-06T09:52:31Z</time>
      </trkpt>
      <trkpt lat="44.81272" lon="3.69749">
        <ele>919</ele>
        <time>2022-06-06T09:52:32Z</time>
      </trkpt>
      <trkpt lat="44.8129" lon="3.69735">
        <ele>925</ele>
        <time>2022-06-06T09:52:36Z</time>
      </trkpt>
      <trkpt lat="44.81298" lon="3.69733">
        <ele>926</ele>
        <time>2022-06-06T09:52:37Z</time>
      </trkpt>
      <trkpt lat="44.81306" lon="3.69735">
        <ele>926</ele>
        <time>2022-06-06T09:52:39Z</time>
      </trkpt>
      <trkpt lat="44.81313" lon="3.69741">
        <ele>926</ele>
        <time>2022-06-06T09:52:40Z</time>
      </trkpt>
      <trkpt lat="44.81322" lon="3.69761">
        <ele>924</ele>
        <time>2022-06-06T09:52:43Z</time>
      </trkpt>
      <trkpt lat="44.81331" lon="3.69796">
        <ele>920</ele>
        <time>2022-06-06T09:52:48Z</time>
      </trkpt>
      <trkpt lat="44.81379" lon="3.69875">
        <ele>925</ele>
        <time>2022-06-06T09:53:01Z</time>
      </trkpt>
      <trkpt lat="44.81394" lon="3.69905">
        <ele>926</ele>
        <time>2022-06-06T09:53:06Z</time>
      </trkpt>
      <trkpt lat="44.81401" lon="3.69936">
        <ele>925</ele>
        <time>2022-06-06T09:53:10Z</time>
      </trkpt>
      <trkpt lat="44.81402" lon="3.69996">
        <ele>923</ele>
        <time>2022-06-06T09:53:17Z</time>
      </trkpt>
      <trkpt lat="44.81404" lon="3.70016">
        <ele>922</ele>
        <time>2022-06-06T09:53:20Z</time>
      </trkpt>
      <trkpt lat="44.81427" lon="3.70055">
        <ele>924</ele>
        <time>2022-06-06T09:53:26Z</time>
      </trkpt>
      <trkpt lat="44.81469" lon="3.70076">
        <ele>925</ele>
        <time>2022-06-06T09:53:34Z</time>
      </trkpt>
      <trkpt lat="44.81489" lon="3.7008">
        <ele>926</ele>
        <time>2022-06-06T09:53:38Z</time>
      </trkpt>
      <trkpt lat="44.81503" lon="3.70074">
        <ele>928</ele>
        <time>2022-06-06T09:53:40Z</time>
      </trkpt>
      <trkpt lat="44.81552" lon="3.7">
        <ele>940</ele>
        <time>2022-06-06T09:53:53Z</time>
      </trkpt>
      <trkpt lat="44.81579" lon="3.69971">
        <ele>944</ele>
        <time>2022-06-06T09:53:59Z</time>
      </trkpt>
      <trkpt lat="44.81604" lon="3.69969">
        <ele>948</ele>
        <time>2022-06-06T09:54:04Z</time>
      </trkpt>
      <trkpt lat="44.81617" lon="3.6998">
        <ele>948</ele>
        <time>2022-06-06T09:54:06Z</time>
      </trkpt>
      <trkpt lat="44.81623" lon="3.69998">
        <ele>947</ele>
        <time>2022-06-06T09:54:09Z</time>
      </trkpt>
      <trkpt lat="44.81618" lon="3.70053">
        <ele>942</ele>
        <time>2022-06-06T09:54:16Z</time>
      </trkpt>
      <trkpt lat="44.81617" lon="3.70108">
        <ele>939</ele>
        <time>2022-06-06T09:54:23Z</time>
      </trkpt>
      <trkpt lat="44.81626" lon="3.70159">
        <ele>940</ele>
        <time>2022-06-06T09:54:30Z</time>
      </trkpt>
      <trkpt lat="44.81648" lon="3.70215">
        <ele>939</ele>
        <time>2022-06-06T09:54:38Z</time>
      </trkpt>
      <trkpt lat="44.81688" lon="3.70253">
        <ele>943</ele>
        <time>2022-06-06T09:54:46Z</time>
      </trkpt>
      <trkpt lat="44.81789" lon="3.70285">
        <ele>949</ele>
        <time>2022-06-06T09:55:05Z</time>
      </trkpt>
      <trkpt lat="44.81835" lon="3.70307">
        <ele>951</ele>
        <time>2022-06-06T09:55:13Z</time>
      </trkpt>
      <trkpt lat="44.81859" lon="3.70315">
        <ele>950</ele>
        <time>2022-06-06T09:55:18Z</time>
      </trkpt>
      <trkpt lat="44.8191" lon="3.7029">
        <ele>955</ele>
        <time>2022-06-06T09:55:27Z</time>
      </trkpt>
      <trkpt lat="44.81942" lon="3.70241">
        <ele>957</ele>
        <time>2022-06-06T09:55:36Z</time>
      </trkpt>
      <trkpt lat="44.81946" lon="3.70221">
        <ele>958</ele>
        <time>2022-06-06T09:55:38Z</time>
      </trkpt>
      <trkpt lat="44.81942" lon="3.702">
        <ele>960</ele>
        <time>2022-06-06T09:55:41Z</time>
      </trkpt>
      <trkpt lat="44.81925" lon="3.70162">
        <ele>966</ele>
        <time>2022-06-06T09:55:47Z</time>
      </trkpt>
      <trkpt lat="44.81921" lon="3.7014">
        <ele>967</ele>
        <time>2022-06-06T09:55:50Z</time>
      </trkpt>
      <trkpt lat="44.81923" lon="3.70119">
        <ele>968</ele>
        <time>2022-06-06T09:55:52Z</time>
      </trkpt>
      <trkpt lat="44.81928" lon="3.70097">
        <ele>968</ele>
        <time>2022-06-06T09:55:55Z</time>
      </trkpt>
      <trkpt lat="44.81934" lon="3.70084">
        <ele>968</ele>
        <time>2022-06-06T09:55:57Z</time>
      </trkpt>
      <trkpt lat="44.81947" lon="3.70067">
        <ele>968</ele>
        <time>2022-06-06T09:56:00Z</time>
      </trkpt>
      <trkpt lat="44.82011" lon="3.70015">
        <ele>967</ele>
        <time>2022-06-06T09:56:13Z</time>
      </trkpt>
      <trkpt lat="44.82026" lon="3.69993">
        <ele>968</ele>
        <time>2022-06-06T09:56:17Z</time>
      </trkpt>
      <trkpt lat="44.82043" lon="3.69935">
        <ele>971</ele>
        <time>2022-06-06T09:56:25Z</time>
      </trkpt>
      <trkpt lat="44.82051" lon="3.6992">
        <ele>972</ele>
        <time>2022-06-06T09:56:28Z</time>
      </trkpt>
      <trkpt lat="44.82064" lon="3.6991">
        <ele>973</ele>
        <time>2022-06-06T09:56:30Z</time>
      </trkpt>
      <trkpt lat="44.82083" lon="3.69901">
        <ele>973</ele>
        <time>2022-06-06T09:56:34Z</time>
      </trkpt>
      <trkpt lat="44.82131" lon="3.69884">
        <ele>976</ele>
        <time>2022-06-06T09:56:43Z</time>
      </trkpt>
      <trkpt lat="44.82155" lon="3.69869">
        <ele>978</ele>
        <time>2022-06-06T09:56:47Z</time>
      </trkpt>
      <trkpt lat="44.8218" lon="3.6985">
        <ele>978</ele>
        <time>2022-06-06T09:56:52Z</time>
      </trkpt>
      <trkpt lat="44.82199" lon="3.69829">
        <ele>978</ele>
        <time>2022-06-06T09:56:57Z</time>
      </trkpt>
      <trkpt lat="44.82212" lon="3.69808">
        <ele>979</ele>
        <time>2022-06-06T09:57:00Z</time>
      </trkpt>
      <trkpt lat="44.8224" lon="3.69746">
        <ele>979</ele>
        <time>2022-06-06T09:57:09Z</time>
      </trkpt>
      <trkpt lat="44.82248" lon="3.69718">
        <ele>980</ele>
        <time>2022-06-06T09:57:13Z</time>
      </trkpt>
      <trkpt lat="44.82269" lon="3.69594">
        <ele>989</ele>
        <time>2022-06-06T09:57:29Z</time>
      </trkpt>
      <trkpt lat="44.82275" lon="3.69574">
        <ele>990</ele>
        <time>2022-06-06T09:57:32Z</time>
      </trkpt>
      <trkpt lat="44.82286" lon="3.69553">
        <ele>990</ele>
        <time>2022-06-06T09:57:35Z</time>
      </trkpt>
      <trkpt lat="44.82319" lon="3.69502">
        <ele>990</ele>
        <time>2022-06-06T09:57:44Z</time>
      </trkpt>
      <trkpt lat="44.82326" lon="3.69496">
        <ele>989</ele>
        <time>2022-06-06T09:57:45Z</time>
      </trkpt>
      <trkpt lat="44.82349" lon="3.69496">
        <ele>988</ele>
        <time>2022-06-06T09:57:50Z</time>
      </trkpt>
      <trkpt lat="44.82361" lon="3.69501">
        <ele>988</ele>
        <time>2022-06-06T09:57:52Z</time>
      </trkpt>
      <trkpt lat="44.82397" lon="3.69507">
        <ele>989</ele>
        <time>2022-06-06T09:57:58Z</time>
      </trkpt>
      <trkpt lat="44.82426" lon="3.6951">
        <ele>990</ele>
        <time>2022-06-06T09:58:03Z</time>
      </trkpt>
      <trkpt lat="44.82445" lon="3.69516">
        <ele>991</ele>
        <time>2022-06-06T09:58:07Z</time>
      </trkpt>
      <trkpt lat="44.82464" lon="3.69528">
        <ele>990</ele>
        <time>2022-06-06T09:58:11Z</time>
      </trkpt>
      <trkpt lat="44.82479" lon="3.69531">
        <ele>990</ele>
        <time>2022-06-06T09:58:13Z</time>
      </trkpt>
      <trkpt lat="44.82586" lon="3.69524">
        <ele>994</ele>
        <time>2022-06-06T09:58:32Z</time>
      </trkpt>
      <trkpt lat="44.82609" lon="3.6952">
        <ele>994</ele>
        <time>2022-06-06T09:58:36Z</time>
      </trkpt>
      <trkpt lat="44.8263" lon="3.6951">
        <ele>994</ele>
        <time>2022-06-06T09:58:40Z</time>
      </trkpt>
      <trkpt lat="44.82655" lon="3.69494">
        <ele>995</ele>
        <time>2022-06-06T09:58:45Z</time>
      </trkpt>
      <trkpt lat="44.82673" lon="3.69477">
        <ele>995</ele>
        <time>2022-06-06T09:58:49Z</time>
      </trkpt>
      <trkpt lat="44.8269" lon="3.69454">
        <ele>994</ele>
        <time>2022-06-06T09:58:53Z</time>
      </trkpt>
      <trkpt lat="44.82702" lon="3.69426">
        <ele>994</ele>
        <time>2022-06-06T09:58:57Z</time>
      </trkpt>
      <trkpt lat="44.82717" lon="3.69384">
        <ele>996</ele>
        <time>2022-06-06T09:59:03Z</time>
      </trkpt>
      <trkpt lat="44.82729" lon="3.69363">
        <ele>996</ele>
        <time>2022-06-06T09:59:07Z</time>
      </trkpt>
      <trkpt lat="44.82744" lon="3.69352">
        <ele>995</ele>
        <time>2022-06-06T09:59:10Z</time>
      </trkpt>
      <trkpt lat="44.82763" lon="3.69344">
        <ele>995</ele>
        <time>2022-06-06T09:59:13Z</time>
      </trkpt>
      <trkpt lat="44.82801" lon="3.69346">
        <ele>994</ele>
        <time>2022-06-06T09:59:20Z</time>
      </trkpt>
      <trkpt lat="44.82827" lon="3.69335">
        <ele>995</ele>
        <time>2022-06-06T09:59:25Z</time>
      </trkpt>
      <trkpt lat="44.82862" lon="3.69302">
        <ele>996</ele>
        <time>2022-06-06T09:59:32Z</time>
      </trkpt>
      <trkpt lat="44.82879" lon="3.6929">
        <ele>996</ele>
        <time>2022-06-06T09:59:36Z</time>
      </trkpt>
      <trkpt lat="44.82959" lon="3.69275">
        <ele>992</ele>
        <time>2022-06-06T09:59:50Z</time>
      </trkpt>
      <trkpt lat="44.82997" lon="3.69263">
        <ele>992</ele>
        <time>2022-06-06T09:59:57Z</time>
      </trkpt>
      <trkpt lat="44.83028" lon="3.69238">
        <ele>990</ele>
        <time>2022-06-06T10:00:03Z</time>
      </trkpt>
      <trkpt lat="44.83042" lon="3.69218">
        <ele>991</ele>
        <time>2022-06-06T10:00:07Z</time>
      </trkpt>
      <trkpt lat="44.83066" lon="3.69157">
        <ele>995</ele>
        <time>2022-06-06T10:00:16Z</time>
      </trkpt>
      <trkpt lat="44.83092" lon="3.691">
        <ele>995</ele>
        <time>2022-06-06T10:00:24Z</time>
      </trkpt>
      <trkpt lat="44.83098" lon="3.69063">
        <ele>994</ele>
        <time>2022-06-06T10:00:29Z</time>
      </trkpt>
      <trkpt lat="44.83096" lon="3.69004">
        <ele>996</ele>
        <time>2022-06-06T10:00:37Z</time>
      </trkpt>
      <trkpt lat="44.83088" lon="3.68933">
        <ele>998</ele>
        <time>2022-06-06T10:00:46Z</time>
      </trkpt>
      <trkpt lat="44.83092" lon="3.68785">
        <ele>992</ele>
        <time>2022-06-06T10:01:04Z</time>
      </trkpt>
      <trkpt lat="44.83086" lon="3.68756">
        <ele>992</ele>
        <time>2022-06-06T10:01:08Z</time>
      </trkpt>
      <trkpt lat="44.83076" lon="3.68735">
        <ele>992</ele>
        <time>2022-06-06T10:01:11Z</time>
      </trkpt>
      <trkpt lat="44.83011" lon="3.68686">
        <ele>1005</ele>
        <time>2022-06-06T10:01:24Z</time>
      </trkpt>
      <trkpt lat="44.82995" lon="3.6867">
        <ele>1006</ele>
        <time>2022-06-06T10:01:28Z</time>
      </trkpt>
      <trkpt lat="44.82981" lon="3.68638">
        <ele>1005</ele>
        <time>2022-06-06T10:01:33Z</time>
      </trkpt>
      <trkpt lat="44.82977" lon="3.68624">
        <ele>1004</ele>
        <time>2022-06-06T10:01:35Z</time>
      </trkpt>
      <trkpt lat="44.82949" lon="3.68593">
        <ele>1003</ele>
        <time>2022-06-06T10:01:41Z</time>
      </trkpt>
      <trkpt lat="44.82923" lon="3.68568">
        <ele>1004</ele>
        <time>2022-06-06T10:01:47Z</time>
      </trkpt>
      <trkpt lat="44.8291" lon="3.68532">
        <ele>1004</ele>
        <time>2022-06-06T10:01:52Z</time>
      </trkpt>
      <trkpt lat="44.82909" lon="3.68481">
        <ele>1006</ele>
        <time>2022-06-06T10:01:58Z</time>
      </trkpt>
      <trkpt lat="44.82913" lon="3.68458">
        <ele>1008</ele>
        <time>2022-06-06T10:02:01Z</time>
      </trkpt>
      <trkpt lat="44.82931" lon="3.68438">
        <ele>1009</ele>
        <time>2022-06-06T10:02:05Z</time>
      </trkpt>
      <trkpt lat="44.82949" lon="3.68434">
        <ele>1010</ele>
        <time>2022-06-06T10:02:08Z</time>
      </trkpt>
      <trkpt lat="44.82979" lon="3.68451">
        <ele>1008</ele>
        <time>2022-06-06T10:02:14Z</time>
      </trkpt>
      <trkpt lat="44.83028" lon="3.68505">
        <ele>1002</ele>
        <time>2022-06-06T10:02:25Z</time>
      </trkpt>
      <trkpt lat="44.83057" lon="3.68518">
        <ele>1003</ele>
        <time>2022-06-06T10:02:31Z</time>
      </trkpt>
      <trkpt lat="44.83076" lon="3.68515">
        <ele>1006</ele>
        <time>2022-06-06T10:02:34Z</time>
      </trkpt>
      <trkpt lat="44.83116" lon="3.68485">
        <ele>1012</ele>
        <time>2022-06-06T10:02:42Z</time>
      </trkpt>
      <trkpt lat="44.83146" lon="3.68467">
        <ele>1015</ele>
        <time>2022-06-06T10:02:48Z</time>
      </trkpt>
      <trkpt lat="44.83162" lon="3.68452">
        <ele>1018</ele>
        <time>2022-06-06T10:02:51Z</time>
      </trkpt>
      <trkpt lat="44.83186" lon="3.68413">
        <ele>1025</ele>
        <time>2022-06-06T10:02:58Z</time>
      </trkpt>
      <trkpt lat="44.83201" lon="3.68404">
        <ele>1027</ele>
        <time>2022-06-06T10:03:01Z</time>
      </trkpt>
      <trkpt lat="44.83223" lon="3.68404">
        <ele>1027</ele>
        <time>2022-06-06T10:03:05Z</time>
      </trkpt>
      <trkpt lat="44.83257" lon="3.68419">
        <ele>1024</ele>
        <time>2022-06-06T10:03:11Z</time>
      </trkpt>
      <trkpt lat="44.83303" lon="3.68448">
        <ele>1025</ele>
        <time>2022-06-06T10:03:20Z</time>
      </trkpt>
      <trkpt lat="44.83318" lon="3.68452">
        <ele>1027</ele>
        <time>2022-06-06T10:03:23Z</time>
      </trkpt>
      <trkpt lat="44.83333" lon="3.68446">
        <ele>1030</ele>
        <time>2022-06-06T10:03:25Z</time>
      </trkpt>
      <trkpt lat="44.83357" lon="3.68424">
        <ele>1033</ele>
        <time>2022-06-06T10:03:31Z</time>
      </trkpt>
      <trkpt lat="44.83378" lon="3.68414">
        <ele>1034</ele>
        <time>2022-06-06T10:03:34Z</time>
      </trkpt>
      <trkpt lat="44.83393" lon="3.68416">
        <ele>1034</ele>
        <time>2022-06-06T10:03:37Z</time>
      </trkpt>
      <trkpt lat="44.83411" lon="3.68424">
        <ele>1035</ele>
        <time>2022-06-06T10:03:41Z</time>
      </trkpt>
      <trkpt lat="44.83428" lon="3.68419">
        <ele>1034</ele>
        <time>2022-06-06T10:03:44Z</time>
      </trkpt>
      <trkpt lat="44.83442" lon="3.68397">
        <ele>1034</ele>
        <time>2022-06-06T10:03:47Z</time>
      </trkpt>
      <trkpt lat="44.83461" lon="3.68355">
        <ele>1034</ele>
        <time>2022-06-06T10:03:54Z</time>
      </trkpt>
      <trkpt lat="44.83467" lon="3.68332">
        <ele>1034</ele>
        <time>2022-06-06T10:03:57Z</time>
      </trkpt>
      <trkpt lat="44.83471" lon="3.68309">
        <ele>1035</ele>
        <time>2022-06-06T10:04:00Z</time>
      </trkpt>
      <trkpt lat="44.83473" lon="3.68281">
        <ele>1037</ele>
        <time>2022-06-06T10:04:03Z</time>
      </trkpt>
      <trkpt lat="44.83469" lon="3.68235">
        <ele>1041</ele>
        <time>2022-06-06T10:04:09Z</time>
      </trkpt>
      <trkpt lat="44.83472" lon="3.68171">
        <ele>1045</ele>
        <time>2022-06-06T10:04:17Z</time>
      </trkpt>
      <trkpt lat="44.83477" lon="3.68111">
        <ele>1051</ele>
        <time>2022-06-06T10:04:25Z</time>
      </trkpt>
      <trkpt lat="44.83485" lon="3.6809">
        <ele>1052</ele>
        <time>2022-06-06T10:04:28Z</time>
      </trkpt>
      <trkpt lat="44.83492" lon="3.68077">
        <ele>1052</ele>
        <time>2022-06-06T10:04:30Z</time>
      </trkpt>
      <trkpt lat="44.83503" lon="3.68068">
        <ele>1051</ele>
        <time>2022-06-06T10:04:32Z</time>
      </trkpt>
      <trkpt lat="44.83522" lon="3.68059">
        <ele>1050</ele>
        <time>2022-06-06T10:04:36Z</time>
      </trkpt>
      <trkpt lat="44.83543" lon="3.68038">
        <ele>1050</ele>
        <time>2022-06-06T10:04:40Z</time>
      </trkpt>
      <trkpt lat="44.83578" lon="3.67988">
        <ele>1051</ele>
        <time>2022-06-06T10:04:49Z</time>
      </trkpt>
      <trkpt lat="44.83596" lon="3.67966">
        <ele>1051</ele>
        <time>2022-06-06T10:04:53Z</time>
      </trkpt>
      <trkpt lat="44.83637" lon="3.67893">
        <ele>1053</ele>
        <time>2022-06-06T10:05:05Z</time>
      </trkpt>
      <trkpt lat="44.83725" lon="3.67764">
        <ele>1055</ele>
        <time>2022-06-06T10:05:28Z</time>
      </trkpt>
      <trkpt lat="44.83751" lon="3.67738">
        <ele>1057</ele>
        <time>2022-06-06T10:05:33Z</time>
      </trkpt>
      <trkpt lat="44.83762" lon="3.67733">
        <ele>1058</ele>
        <time>2022-06-06T10:05:35Z</time>
      </trkpt>
      <trkpt lat="44.83918" lon="3.6773">
        <ele>1071</ele>
        <time>2022-06-06T10:06:03Z</time>
      </trkpt>
      <trkpt lat="44.83948" lon="3.67726">
        <ele>1072</ele>
        <time>2022-06-06T10:06:09Z</time>
      </trkpt>
      <trkpt lat="44.83972" lon="3.67717">
        <ele>1073</ele>
        <time>2022-06-06T10:06:13Z</time>
      </trkpt>
      <trkpt lat="44.8399" lon="3.67705">
        <ele>1075</ele>
        <time>2022-06-06T10:06:17Z</time>
      </trkpt>
      <trkpt lat="44.84028" lon="3.6767">
        <ele>1080</ele>
        <time>2022-06-06T10:06:25Z</time>
      </trkpt>
      <trkpt lat="44.84047" lon="3.67645">
        <ele>1081</ele>
        <time>2022-06-06T10:06:29Z</time>
      </trkpt>
      <trkpt lat="44.8409" lon="3.67571">
        <ele>1083</ele>
        <time>2022-06-06T10:06:41Z</time>
      </trkpt>
      <trkpt lat="44.84126" lon="3.67477">
        <ele>1088</ele>
        <time>2022-06-06T10:06:55Z</time>
      </trkpt>
      <trkpt lat="44.84151" lon="3.67397">
        <ele>1089</ele>
        <time>2022-06-06T10:07:06Z</time>
      </trkpt>
      <trkpt lat="44.84174" lon="3.67301">
        <ele>1087</ele>
        <time>2022-06-06T10:07:19Z</time>
      </trkpt>
      <trkpt lat="44.84186" lon="3.67265">
        <ele>1087</ele>
        <time>2022-06-06T10:07:24Z</time>
      </trkpt>
      <trkpt lat="44.84201" lon="3.67245">
        <ele>1088</ele>
        <time>2022-06-06T10:07:27Z</time>
      </trkpt>
      <trkpt lat="44.84229" lon="3.67224">
        <ele>1089</ele>
        <time>2022-06-06T10:07:33Z</time>
      </trkpt>
      <trkpt lat="44.8425" lon="3.67213">
        <ele>1089</ele>
        <time>2022-06-06T10:07:37Z</time>
      </trkpt>
      <trkpt lat="44.84333" lon="3.67204">
        <ele>1090</ele>
        <time>2022-06-06T10:07:52Z</time>
      </trkpt>
      <trkpt lat="44.84447" lon="3.67195">
        <ele>1086</ele>
        <time>2022-06-06T10:08:12Z</time>
      </trkpt>
      <trkpt lat="44.84472" lon="3.67195">
        <ele>1084</ele>
        <time>2022-06-06T10:08:16Z</time>
      </trkpt>
      <trkpt lat="44.84506" lon="3.67191">
        <ele>1080</ele>
        <time>2022-06-06T10:08:23Z</time>
      </trkpt>
      <trkpt lat="44.8454" lon="3.67178">
        <ele>1077</ele>
        <time>2022-06-06T10:08:29Z</time>
      </trkpt>
      <trkpt lat="44.84562" lon="3.67158">
        <ele>1074</ele>
        <time>2022-06-06T10:08:33Z</time>
      </trkpt>
      <trkpt lat="44.84585" lon="3.67132">
        <ele>1072</ele>
        <time>2022-06-06T10:08:39Z</time>
      </trkpt>
      <trkpt lat="44.84654" lon="3.67004">
        <ele>1063</ele>
        <time>2022-06-06T10:08:59Z</time>
      </trkpt>
      <trkpt lat="44.84666" lon="3.66977">
        <ele>1060</ele>
        <time>2022-06-06T10:09:03Z</time>
      </trkpt>
      <trkpt lat="44.84666" lon="3.66954">
        <ele>1059</ele>
        <time>2022-06-06T10:09:06Z</time>
      </trkpt>
      <trkpt lat="44.8466" lon="3.66937">
        <ele>1059</ele>
        <time>2022-06-06T10:09:08Z</time>
      </trkpt>
      <trkpt lat="44.8462" lon="3.66882">
        <ele>1062</ele>
        <time>2022-06-06T10:09:18Z</time>
      </trkpt>
      <trkpt lat="44.84616" lon="3.66861">
        <ele>1061</ele>
        <time>2022-06-06T10:09:21Z</time>
      </trkpt>
      <trkpt lat="44.84616" lon="3.66845">
        <ele>1060</ele>
        <time>2022-06-06T10:09:23Z</time>
      </trkpt>
      <trkpt lat="44.84619" lon="3.66826">
        <ele>1059</ele>
        <time>2022-06-06T10:09:25Z</time>
      </trkpt>
      <trkpt lat="44.84631" lon="3.66804">
        <ele>1058</ele>
        <time>2022-06-06T10:09:29Z</time>
      </trkpt>
      <trkpt lat="44.84655" lon="3.66784">
        <ele>1055</ele>
        <time>2022-06-06T10:09:34Z</time>
      </trkpt>
      <trkpt lat="44.84798" lon="3.6674">
        <ele>1034</ele>
        <time>2022-06-06T10:10:00Z</time>
      </trkpt>
      <trkpt lat="44.8482" lon="3.66729">
        <ele>1031</ele>
        <time>2022-06-06T10:10:04Z</time>
      </trkpt>
      <trkpt lat="44.84841" lon="3.66705">
        <ele>1030</ele>
        <time>2022-06-06T10:10:09Z</time>
      </trkpt>
      <trkpt lat="44.84859" lon="3.66672">
        <ele>1029</ele>
        <time>2022-06-06T10:10:14Z</time>
      </trkpt>
      <trkpt lat="44.84873" lon="3.66635">
        <ele>1027</ele>
        <time>2022-06-06T10:10:19Z</time>
      </trkpt>
      <trkpt lat="44.84878" lon="3.666">
        <ele>1027</ele>
        <time>2022-06-06T10:10:24Z</time>
      </trkpt>
      <trkpt lat="44.84882" lon="3.66527">
        <ele>1024</ele>
        <time>2022-06-06T10:10:33Z</time>
      </trkpt>
      <trkpt lat="44.84885" lon="3.66501">
        <ele>1022</ele>
        <time>2022-06-06T10:10:37Z</time>
      </trkpt>
      <trkpt lat="44.84896" lon="3.66471">
        <ele>1021</ele>
        <time>2022-06-06T10:10:41Z</time>
      </trkpt>
      <trkpt lat="44.84915" lon="3.66441">
        <ele>1019</ele>
        <time>2022-06-06T10:10:46Z</time>
      </trkpt>
      <trkpt lat="44.84929" lon="3.66422">
        <ele>1019</ele>
        <time>2022-06-06T10:10:49Z</time>
      </trkpt>
      <trkpt lat="44.85052" lon="3.66282">
        <ele>1018</ele>
        <time>2022-06-06T10:11:17Z</time>
      </trkpt>
      <trkpt lat="44.85179" lon="3.66134">
        <ele>1017</ele>
        <time>2022-06-06T10:11:47Z</time>
      </trkpt>
      <trkpt lat="44.85199" lon="3.66115">
        <ele>1017</ele>
        <time>2022-06-06T10:11:51Z</time>
      </trkpt>
      <trkpt lat="44.85285" lon="3.66059">
        <ele>1014</ele>
        <time>2022-06-06T10:12:08Z</time>
      </trkpt>
      <trkpt lat="44.85304" lon="3.66034">
        <ele>1012</ele>
        <time>2022-06-06T10:12:13Z</time>
      </trkpt>
      <trkpt lat="44.85312" lon="3.66019">
        <ele>1012</ele>
        <time>2022-06-06T10:12:15Z</time>
      </trkpt>
      <trkpt lat="44.85314" lon="3.66005">
        <ele>1011</ele>
        <time>2022-06-06T10:12:17Z</time>
      </trkpt>
      <trkpt lat="44.85316" lon="3.65965">
        <ele>1011</ele>
        <time>2022-06-06T10:12:22Z</time>
      </trkpt>
      <trkpt lat="44.85351" lon="3.65936">
        <ele>1012</ele>
        <time>2022-06-06T10:12:29Z</time>
      </trkpt>
      <trkpt lat="44.85352" lon="3.65926">
        <ele>1013</ele>
        <time>2022-06-06T10:12:30Z</time>
      </trkpt>
      <trkpt lat="44.85351" lon="3.6588">
        <ele>1013</ele>
        <time>2022-06-06T10:12:36Z</time>
      </trkpt>
      <trkpt lat="44.8535" lon="3.65713">
        <ele>1006</ele>
        <time>2022-06-06T10:12:57Z</time>
      </trkpt>
      <trkpt lat="44.85351" lon="3.6568">
        <ele>1005</ele>
        <time>2022-06-06T10:13:01Z</time>
      </trkpt>
      <trkpt lat="44.85355" lon="3.65671">
        <ele>1004</ele>
        <time>2022-06-06T10:13:03Z</time>
      </trkpt>
      <trkpt lat="44.85361" lon="3.65667">
        <ele>1003</ele>
        <time>2022-06-06T10:13:04Z</time>
      </trkpt>
      <trkpt lat="44.85367" lon="3.6567">
        <ele>1002</ele>
        <time>2022-06-06T10:13:05Z</time>
      </trkpt>
      <trkpt lat="44.85377" lon="3.65684">
        <ele>1001</ele>
        <time>2022-06-06T10:13:07Z</time>
      </trkpt>
      <trkpt lat="44.85384" lon="3.65688">
        <ele>1001</ele>
        <time>2022-06-06T10:13:09Z</time>
      </trkpt>
      <trkpt lat="44.85406" lon="3.65689">
        <ele>998</ele>
        <time>2022-06-06T10:13:13Z</time>
      </trkpt>
      <trkpt lat="44.85503" lon="3.65671">
        <ele>983</ele>
        <time>2022-06-06T10:13:30Z</time>
      </trkpt>
      <trkpt lat="44.85529" lon="3.6567">
        <ele>980</ele>
        <time>2022-06-06T10:13:35Z</time>
      </trkpt>
      <trkpt lat="44.85553" lon="3.65674">
        <ele>979</ele>
        <time>2022-06-06T10:13:39Z</time>
      </trkpt>
      <trkpt lat="44.85575" lon="3.65682">
        <ele>978</ele>
        <time>2022-06-06T10:13:43Z</time>
      </trkpt>
      <trkpt lat="44.85621" lon="3.65709">
        <ele>973</ele>
        <time>2022-06-06T10:13:52Z</time>
      </trkpt>
      <trkpt lat="44.85645" lon="3.65728">
        <ele>971</ele>
        <time>2022-06-06T10:13:57Z</time>
      </trkpt>
      <trkpt lat="44.85683" lon="3.6577">
        <ele>968</ele>
        <time>2022-06-06T10:14:05Z</time>
      </trkpt>
      <trkpt lat="44.85711" lon="3.6581">
        <ele>967</ele>
        <time>2022-06-06T10:14:13Z</time>
      </trkpt>
      <trkpt lat="44.85733" lon="3.65844">
        <ele>966</ele>
        <time>2022-06-06T10:14:18Z</time>
      </trkpt>
      <trkpt lat="44.85764" lon="3.65947">
        <ele>964</ele>
        <time>2022-06-06T10:14:32Z</time>
      </trkpt>
      <trkpt lat="44.85776" lon="3.6598">
        <ele>963</ele>
        <time>2022-06-06T10:14:37Z</time>
      </trkpt>
      <trkpt lat="44.85784" lon="3.65994">
        <ele>963</ele>
        <time>2022-06-06T10:14:39Z</time>
      </trkpt>
      <trkpt lat="44.85801" lon="3.66006">
        <ele>962</ele>
        <time>2022-06-06T10:14:43Z</time>
      </trkpt>
      <trkpt lat="44.85818" lon="3.66009">
        <ele>960</ele>
        <time>2022-06-06T10:14:46Z</time>
      </trkpt>
      <trkpt lat="44.85835" lon="3.66003">
        <ele>958</ele>
        <time>2022-06-06T10:14:49Z</time>
      </trkpt>
      <trkpt lat="44.8588" lon="3.65972">
        <ele>951</ele>
        <time>2022-06-06T10:14:58Z</time>
      </trkpt>
      <trkpt lat="44.85893" lon="3.65968">
        <ele>949</ele>
        <time>2022-06-06T10:15:00Z</time>
      </trkpt>
      <trkpt lat="44.85907" lon="3.65974">
        <ele>949</ele>
        <time>2022-06-06T10:15:03Z</time>
      </trkpt>
      <trkpt lat="44.85963" lon="3.66012">
        <ele>947</ele>
        <time>2022-06-06T10:15:14Z</time>
      </trkpt>
      <trkpt lat="44.85985" lon="3.66017">
        <ele>944</ele>
        <time>2022-06-06T10:15:18Z</time>
      </trkpt>
      <trkpt lat="44.86018" lon="3.6602">
        <ele>941</ele>
        <time>2022-06-06T10:15:24Z</time>
      </trkpt>
      <trkpt lat="44.86036" lon="3.66026">
        <ele>940</ele>
        <time>2022-06-06T10:15:27Z</time>
      </trkpt>
      <trkpt lat="44.86073" lon="3.66045">
        <ele>938</ele>
        <time>2022-06-06T10:15:34Z</time>
      </trkpt>
      <trkpt lat="44.8612" lon="3.6608">
        <ele>936</ele>
        <time>2022-06-06T10:15:44Z</time>
      </trkpt>
      <trkpt lat="44.8614" lon="3.66098">
        <ele>934</ele>
        <time>2022-06-06T10:15:48Z</time>
      </trkpt>
      <trkpt lat="44.86153" lon="3.66119">
        <ele>933</ele>
        <time>2022-06-06T10:15:51Z</time>
      </trkpt>
      <trkpt lat="44.86182" lon="3.66183">
        <ele>930</ele>
        <time>2022-06-06T10:16:01Z</time>
      </trkpt>
      <trkpt lat="44.86201" lon="3.66205">
        <ele>928</ele>
        <time>2022-06-06T10:16:05Z</time>
      </trkpt>
      <trkpt lat="44.86294" lon="3.66257">
        <ele>925</ele>
        <time>2022-06-06T10:16:23Z</time>
      </trkpt>
      <trkpt lat="44.86381" lon="3.66281">
        <ele>926</ele>
        <time>2022-06-06T10:16:39Z</time>
      </trkpt>
      <trkpt lat="44.86401" lon="3.6629">
        <ele>926</ele>
        <time>2022-06-06T10:16:43Z</time>
      </trkpt>
      <trkpt lat="44.86419" lon="3.66288">
        <ele>925</ele>
        <time>2022-06-06T10:16:46Z</time>
      </trkpt>
      <trkpt lat="44.86432" lon="3.66281">
        <ele>924</ele>
        <time>2022-06-06T10:16:48Z</time>
      </trkpt>
      <trkpt lat="44.86444" lon="3.6627">
        <ele>922</ele>
        <time>2022-06-06T10:16:51Z</time>
      </trkpt>
      <trkpt lat="44.86471" lon="3.66226">
        <ele>920</ele>
        <time>2022-06-06T10:16:58Z</time>
      </trkpt>
      <trkpt lat="44.86484" lon="3.662">
        <ele>921</ele>
        <time>2022-06-06T10:17:02Z</time>
      </trkpt>
      <trkpt lat="44.86489" lon="3.66182">
        <ele>922</ele>
        <time>2022-06-06T10:17:05Z</time>
      </trkpt>
      <trkpt lat="44.86495" lon="3.66158">
        <ele>925</ele>
        <time>2022-06-06T10:17:08Z</time>
      </trkpt>
      <trkpt lat="44.86498" lon="3.66152">
        <ele>926</ele>
        <time>2022-06-06T10:17:09Z</time>
      </trkpt>
      <trkpt lat="44.86552" lon="3.66116">
        <ele>928</ele>
        <time>2022-06-06T10:17:19Z</time>
      </trkpt>
      <trkpt lat="44.86635" lon="3.66022">
        <ele>934</ele>
        <time>2022-06-06T10:17:38Z</time>
      </trkpt>
      <trkpt lat="44.86653" lon="3.65999">
        <ele>934</ele>
        <time>2022-06-06T10:17:43Z</time>
      </trkpt>
      <trkpt lat="44.86677" lon="3.65979">
        <ele>934</ele>
        <time>2022-06-06T10:17:48Z</time>
      </trkpt>
      <trkpt lat="44.86765" lon="3.65911">
        <ele>940</ele>
        <time>2022-06-06T10:18:05Z</time>
      </trkpt>
      <trkpt lat="44.868" lon="3.65865">
        <ele>947</ele>
        <time>2022-06-06T10:18:14Z</time>
      </trkpt>
      <trkpt lat="44.86835" lon="3.65833">
        <ele>949</ele>
        <time>2022-06-06T10:18:21Z</time>
      </trkpt>
      <trkpt lat="44.86879" lon="3.6581">
        <ele>950</ele>
        <time>2022-06-06T10:18:30Z</time>
      </trkpt>
      <trkpt lat="44.86937" lon="3.65797">
        <ele>945</ele>
        <time>2022-06-06T10:18:40Z</time>
      </trkpt>
      <trkpt lat="44.86955" lon="3.65788">
        <ele>944</ele>
        <time>2022-06-06T10:18:43Z</time>
      </trkpt>
      <trkpt lat="44.86977" lon="3.65765">
        <ele>943</ele>
        <time>2022-06-06T10:18:48Z</time>
      </trkpt>
      <trkpt lat="44.86985" lon="3.6573">
        <ele>945</ele>
        <time>2022-06-06T10:18:53Z</time>
      </trkpt>
      <trkpt lat="44.86986" lon="3.65676">
        <ele>950</ele>
        <time>2022-06-06T10:19:00Z</time>
      </trkpt>
      <trkpt lat="44.86995" lon="3.65647">
        <ele>949</ele>
        <time>2022-06-06T10:19:04Z</time>
      </trkpt>
      <trkpt lat="44.87005" lon="3.65625">
        <ele>948</ele>
        <time>2022-06-06T10:19:07Z</time>
      </trkpt>
      <trkpt lat="44.87055" lon="3.65547">
        <ele>943</ele>
        <time>2022-06-06T10:19:20Z</time>
      </trkpt>
      <trkpt lat="44.87079" lon="3.65503">
        <ele>943</ele>
        <time>2022-06-06T10:19:27Z</time>
      </trkpt>
      <trkpt lat="44.87091" lon="3.65493">
        <ele>943</ele>
        <time>2022-06-06T10:19:30Z</time>
      </trkpt>
      <trkpt lat="44.87132" lon="3.65504">
        <ele>940</ele>
        <time>2022-06-06T10:19:37Z</time>
      </trkpt>
      <trkpt lat="44.8716" lon="3.65505">
        <ele>939</ele>
        <time>2022-06-06T10:19:42Z</time>
      </trkpt>
      <trkpt lat="44.87266" lon="3.65479">
        <ele>932</ele>
        <time>2022-06-06T10:20:01Z</time>
      </trkpt>
      <trkpt lat="44.87367" lon="3.65395">
        <ele>927</ele>
        <time>2022-06-06T10:20:22Z</time>
      </trkpt>
      <trkpt lat="44.87418" lon="3.65358">
        <ele>923</ele>
        <time>2022-06-06T10:20:32Z</time>
      </trkpt>
      <trkpt lat="44.87424" lon="3.65343">
        <ele>924</ele>
        <time>2022-06-06T10:20:35Z</time>
      </trkpt>
      <trkpt lat="44.87424" lon="3.65326">
        <ele>925</ele>
        <time>2022-06-06T10:20:37Z</time>
      </trkpt>
      <trkpt lat="44.87418" lon="3.65314">
        <ele>924</ele>
        <time>2022-06-06T10:20:39Z</time>
      </trkpt>
      <trkpt lat="44.87407" lon="3.65302">
        <ele>924</ele>
        <time>2022-06-06T10:20:41Z</time>
      </trkpt>
      <trkpt lat="44.87392" lon="3.65288">
        <ele>924</ele>
        <time>2022-06-06T10:20:44Z</time>
      </trkpt>
      <trkpt lat="44.8738" lon="3.65275">
        <ele>924</ele>
        <time>2022-06-06T10:20:47Z</time>
      </trkpt>
      <trkpt lat="44.87369" lon="3.6526">
        <ele>924</ele>
        <time>2022-06-06T10:20:50Z</time>
      </trkpt>
      <trkpt lat="44.87347" lon="3.65213">
        <ele>924</ele>
        <time>2022-06-06T10:20:57Z</time>
      </trkpt>
      <trkpt lat="44.87338" lon="3.65181">
        <ele>923</ele>
        <time>2022-06-06T10:21:01Z</time>
      </trkpt>
      <trkpt lat="44.87345" lon="3.64962">
        <ele>915</ele>
        <time>2022-06-06T10:21:29Z</time>
      </trkpt>
      <trkpt lat="44.87357" lon="3.6493">
        <ele>912</ele>
        <time>2022-06-06T10:21:33Z</time>
      </trkpt>
      <trkpt lat="44.87372" lon="3.64901">
        <ele>910</ele>
        <time>2022-06-06T10:21:38Z</time>
      </trkpt>
      <trkpt lat="44.87406" lon="3.64855">
        <ele>904</ele>
        <time>2022-06-06T10:21:46Z</time>
      </trkpt>
      <trkpt lat="44.87444" lon="3.64766">
        <ele>900</ele>
        <time>2022-06-06T10:21:59Z</time>
      </trkpt>
      <trkpt lat="44.87455" lon="3.64741">
        <ele>898</ele>
        <time>2022-06-06T10:22:03Z</time>
      </trkpt>
      <trkpt lat="44.87553" lon="3.64522">
        <ele>893</ele>
        <time>2022-06-06T10:22:36Z</time>
      </trkpt>
      <trkpt lat="44.87593" lon="3.64447">
        <ele>896</ele>
        <time>2022-06-06T10:22:48Z</time>
      </trkpt>
      <trkpt lat="44.87608" lon="3.64424">
        <ele>897</ele>
        <time>2022-06-06T10:22:52Z</time>
      </trkpt>
      <trkpt lat="44.87627" lon="3.64409">
        <ele>898</ele>
        <time>2022-06-06T10:22:55Z</time>
      </trkpt>
      <trkpt lat="44.87655" lon="3.64393">
        <ele>900</ele>
        <time>2022-06-06T10:23:01Z</time>
      </trkpt>
      <trkpt lat="44.87687" lon="3.64388">
        <ele>899</ele>
        <time>2022-06-06T10:23:06Z</time>
      </trkpt>
      <trkpt lat="44.87728" lon="3.64377">
        <ele>898</ele>
        <time>2022-06-06T10:23:14Z</time>
      </trkpt>
      <trkpt lat="44.87767" lon="3.64371">
        <ele>897</ele>
        <time>2022-06-06T10:23:21Z</time>
      </trkpt>
      <trkpt lat="44.87827" lon="3.64385">
        <ele>892</ele>
        <time>2022-06-06T10:23:32Z</time>
      </trkpt>
      <trkpt lat="44.87846" lon="3.64383">
        <ele>891</ele>
        <time>2022-06-06T10:23:35Z</time>
      </trkpt>
      <trkpt lat="44.88016" lon="3.64342">
        <ele>890</ele>
        <time>2022-06-06T10:24:06Z</time>
      </trkpt>
      <trkpt lat="44.88062" lon="3.64324">
        <ele>891</ele>
        <time>2022-06-06T10:24:14Z</time>
      </trkpt>
      <trkpt lat="44.8813" lon="3.64306">
        <ele>893</ele>
        <time>2022-06-06T10:24:27Z</time>
      </trkpt>
      <trkpt lat="44.88145" lon="3.64306">
        <ele>893</ele>
        <time>2022-06-06T10:24:29Z</time>
      </trkpt>
      <trkpt lat="44.88156" lon="3.64308">
        <ele>893</ele>
        <time>2022-06-06T10:24:31Z</time>
      </trkpt>
      <trkpt lat="44.88183" lon="3.64326">
        <ele>890</ele>
        <time>2022-06-06T10:24:37Z</time>
      </trkpt>
      <trkpt lat="44.882" lon="3.64312">
        <ele>893</ele>
        <time>2022-06-06T10:24:40Z</time>
      </trkpt>
      <trkpt lat="44.88208" lon="3.64308">
        <ele>894</ele>
        <time>2022-06-06T10:24:42Z</time>
      </trkpt>
      <trkpt lat="44.88229" lon="3.64306">
        <ele>895</ele>
        <time>2022-06-06T10:24:45Z</time>
      </trkpt>
      <trkpt lat="44.88261" lon="3.64294">
        <ele>899</ele>
        <time>2022-06-06T10:24:51Z</time>
      </trkpt>
      <trkpt lat="44.883" lon="3.64291">
        <ele>904</ele>
        <time>2022-06-06T10:24:58Z</time>
      </trkpt>
      <trkpt lat="44.88314" lon="3.64293">
        <ele>905</ele>
        <time>2022-06-06T10:25:01Z</time>
      </trkpt>
      <trkpt lat="44.88374" lon="3.64309">
        <ele>904</ele>
        <time>2022-06-06T10:25:12Z</time>
      </trkpt>
      <trkpt lat="44.88378" lon="3.64308">
        <ele>904</ele>
        <time>2022-06-06T10:25:12Z</time>
      </trkpt>
      <trkpt lat="44.88385" lon="3.643">
        <ele>905</ele>
        <time>2022-06-06T10:25:14Z</time>
      </trkpt>
      <trkpt lat="44.88396" lon="3.64294">
        <ele>906</ele>
        <time>2022-06-06T10:25:16Z</time>
      </trkpt>
      <trkpt lat="44.88408" lon="3.6429">
        <ele>906</ele>
        <time>2022-06-06T10:25:18Z</time>
      </trkpt>
      <trkpt lat="44.88416" lon="3.64282">
        <ele>907</ele>
        <time>2022-06-06T10:25:20Z</time>
      </trkpt>
      <trkpt lat="44.88467" lon="3.64214">
        <ele>897</ele>
        <time>2022-06-06T10:25:32Z</time>
      </trkpt>
      <trkpt lat="44.88487" lon="3.64181">
        <ele>895</ele>
        <time>2022-06-06T10:25:38Z</time>
      </trkpt>
      <trkpt lat="44.88497" lon="3.64156">
        <ele>897</ele>
        <time>2022-06-06T10:25:41Z</time>
      </trkpt>
      <trkpt lat="44.8851" lon="3.64133">
        <ele>898</ele>
        <time>2022-06-06T10:25:45Z</time>
      </trkpt>
      <trkpt lat="44.88543" lon="3.64111">
        <ele>894</ele>
        <time>2022-06-06T10:25:52Z</time>
      </trkpt>
      <trkpt lat="44.88565" lon="3.64104">
        <ele>890</ele>
        <time>2022-06-06T10:25:56Z</time>
      </trkpt>
      <trkpt lat="44.88571" lon="3.64088">
        <ele>891</ele>
        <time>2022-06-06T10:25:58Z</time>
      </trkpt>
      <trkpt lat="44.88575" lon="3.64054">
        <ele>891</ele>
        <time>2022-06-06T10:26:02Z</time>
      </trkpt>
      <trkpt lat="44.88575" lon="3.63998">
        <ele>893</ele>
        <time>2022-06-06T10:26:09Z</time>
      </trkpt>
      <trkpt lat="44.88598" lon="3.6392">
        <ele>886</ele>
        <time>2022-06-06T10:26:20Z</time>
      </trkpt>
      <trkpt lat="44.88615" lon="3.63771">
        <ele>890</ele>
        <time>2022-06-06T10:26:39Z</time>
      </trkpt>
      <trkpt lat="44.88623" lon="3.63734">
        <ele>892</ele>
        <time>2022-06-06T10:26:44Z</time>
      </trkpt>
      <trkpt lat="44.88639" lon="3.63699">
        <ele>894</ele>
        <time>2022-06-06T10:26:49Z</time>
      </trkpt>
      <trkpt lat="44.88662" lon="3.63667">
        <ele>891</ele>
        <time>2022-06-06T10:26:55Z</time>
      </trkpt>
      <trkpt lat="44.88686" lon="3.6363">
        <ele>894</ele>
        <time>2022-06-06T10:27:01Z</time>
      </trkpt>
      <trkpt lat="44.88716" lon="3.63606">
        <ele>894</ele>
        <time>2022-06-06T10:27:07Z</time>
      </trkpt>
      <trkpt lat="44.88745" lon="3.63593">
        <ele>893</ele>
        <time>2022-06-06T10:27:13Z</time>
      </trkpt>
      <trkpt lat="44.88809" lon="3.63584">
        <ele>891</ele>
        <time>2022-06-06T10:27:24Z</time>
      </trkpt>
      <trkpt lat="44.88824" lon="3.63591">
        <ele>889</ele>
        <time>2022-06-06T10:27:27Z</time>
      </trkpt>
      <trkpt lat="44.88876" lon="3.63638">
        <ele>881</ele>
        <time>2022-06-06T10:27:38Z</time>
      </trkpt>
      <trkpt lat="44.88904" lon="3.63657">
        <ele>878</ele>
        <time>2022-06-06T10:27:44Z</time>
      </trkpt>
      <trkpt lat="44.88925" lon="3.63665">
        <ele>876</ele>
        <time>2022-06-06T10:27:47Z</time>
      </trkpt>
      <trkpt lat="44.88956" lon="3.63668">
        <ele>876</ele>
        <time>2022-06-06T10:27:53Z</time>
      </trkpt>
      <trkpt lat="44.88972" lon="3.63666">
        <ele>877</ele>
        <time>2022-06-06T10:27:56Z</time>
      </trkpt>
      <trkpt lat="44.89049" lon="3.63648">
        <ele>883</ele>
        <time>2022-06-06T10:28:10Z</time>
      </trkpt>
      <trkpt lat="44.89082" lon="3.63646">
        <ele>884</ele>
        <time>2022-06-06T10:28:16Z</time>
      </trkpt>
      <trkpt lat="44.89104" lon="3.63652">
        <ele>884</ele>
        <time>2022-06-06T10:28:20Z</time>
      </trkpt>
      <trkpt lat="44.89151" lon="3.63683">
        <ele>882</ele>
        <time>2022-06-06T10:28:29Z</time>
      </trkpt>
      <trkpt lat="44.89174" lon="3.63693">
        <ele>881</ele>
        <time>2022-06-06T10:28:33Z</time>
      </trkpt>
      <trkpt lat="44.89211" lon="3.63701">
        <ele>881</ele>
        <time>2022-06-06T10:28:40Z</time>
      </trkpt>
      <trkpt lat="44.89249" lon="3.63716">
        <ele>879</ele>
        <time>2022-06-06T10:28:47Z</time>
      </trkpt>
      <trkpt lat="44.89265" lon="3.63717">
        <ele>877</ele>
        <time>2022-06-06T10:28:50Z</time>
      </trkpt>
      <trkpt lat="44.89277" lon="3.63713">
        <ele>877</ele>
        <time>2022-06-06T10:28:52Z</time>
      </trkpt>
      <trkpt lat="44.89289" lon="3.63704">
        <ele>878</ele>
        <time>2022-06-06T10:28:54Z</time>
      </trkpt>
      <trkpt lat="44.893" lon="3.63693">
        <ele>879</ele>
        <time>2022-06-06T10:28:57Z</time>
      </trkpt>
      <trkpt lat="44.89337" lon="3.63626">
        <ele>882</ele>
        <time>2022-06-06T10:29:07Z</time>
      </trkpt>
      <trkpt lat="44.89349" lon="3.63609">
        <ele>883</ele>
        <time>2022-06-06T10:29:10Z</time>
      </trkpt>
      <trkpt lat="44.89365" lon="3.63594">
        <ele>884</ele>
        <time>2022-06-06T10:29:14Z</time>
      </trkpt>
      <trkpt lat="44.89376" lon="3.63589">
        <ele>884</ele>
        <time>2022-06-06T10:29:16Z</time>
      </trkpt>
      <trkpt lat="44.89411" lon="3.63578">
        <ele>883</ele>
        <time>2022-06-06T10:29:22Z</time>
      </trkpt>
      <trkpt lat="44.89427" lon="3.63574">
        <ele>883</ele>
        <time>2022-06-06T10:29:25Z</time>
      </trkpt>
      <trkpt lat="44.89442" lon="3.63578">
        <ele>882</ele>
        <time>2022-06-06T10:29:28Z</time>
      </trkpt>
      <trkpt lat="44.89521" lon="3.6362">
        <ele>874</ele>
        <time>2022-06-06T10:29:43Z</time>
      </trkpt>
      <trkpt lat="44.8954" lon="3.63628">
        <ele>872</ele>
        <time>2022-06-06T10:29:46Z</time>
      </trkpt>
      <trkpt lat="44.89566" lon="3.6363">
        <ele>871</ele>
        <time>2022-06-06T10:29:51Z</time>
      </trkpt>
      <trkpt lat="44.89593" lon="3.6363">
        <ele>869</ele>
        <time>2022-06-06T10:29:56Z</time>
      </trkpt>
      <trkpt lat="44.89619" lon="3.63622">
        <ele>866</ele>
        <time>2022-06-06T10:30:01Z</time>
      </trkpt>
      <trkpt lat="44.89625" lon="3.63613">
        <ele>866</ele>
        <time>2022-06-06T10:30:02Z</time>
      </trkpt>
      <trkpt lat="44.89627" lon="3.63604">
        <ele>866</ele>
        <time>2022-06-06T10:30:03Z</time>
      </trkpt>
      <trkpt lat="44.89622" lon="3.63546">
        <ele>870</ele>
        <time>2022-06-06T10:30:11Z</time>
      </trkpt>
      <trkpt lat="44.89627" lon="3.63499">
        <ele>870</ele>
        <time>2022-06-06T10:30:17Z</time>
      </trkpt>
      <trkpt lat="44.89628" lon="3.63452">
        <ele>872</ele>
        <time>2022-06-06T10:30:23Z</time>
      </trkpt>
      <trkpt lat="44.89636" lon="3.63369">
        <ele>875</ele>
        <time>2022-06-06T10:30:33Z</time>
      </trkpt>
      <trkpt lat="44.89646" lon="3.63318">
        <ele>875</ele>
        <time>2022-06-06T10:30:40Z</time>
      </trkpt>
      <trkpt lat="44.89671" lon="3.6323">
        <ele>869</ele>
        <time>2022-06-06T10:30:52Z</time>
      </trkpt>
      <trkpt lat="44.89684" lon="3.63157">
        <ele>871</ele>
        <time>2022-06-06T10:31:01Z</time>
      </trkpt>
      <trkpt lat="44.89713" lon="3.63092">
        <ele>868</ele>
        <time>2022-06-06T10:31:11Z</time>
      </trkpt>
      <trkpt lat="44.89727" lon="3.63083">
        <ele>865</ele>
        <time>2022-06-06T10:31:14Z</time>
      </trkpt>
      <trkpt lat="44.89749" lon="3.63077">
        <ele>859</ele>
        <time>2022-06-06T10:31:18Z</time>
      </trkpt>
      <trkpt lat="44.89755" lon="3.63094">
        <ele>858</ele>
        <time>2022-06-06T10:31:20Z</time>
      </trkpt>
      <trkpt lat="44.89763" lon="3.6312">
        <ele>857</ele>
        <time>2022-06-06T10:31:24Z</time>
      </trkpt>
      <trkpt lat="44.89797" lon="3.63241">
        <ele>860</ele>
        <time>2022-06-06T10:31:40Z</time>
      </trkpt>
      <trkpt lat="44.89801" lon="3.6325">
        <ele>861</ele>
        <time>2022-06-06T10:31:41Z</time>
      </trkpt>
      <trkpt lat="44.89813" lon="3.63251">
        <ele>862</ele>
        <time>2022-06-06T10:31:43Z</time>
      </trkpt>
      <trkpt lat="44.89854" lon="3.63242">
        <ele>865</ele>
        <time>2022-06-06T10:31:51Z</time>
      </trkpt>
      <trkpt lat="44.89903" lon="3.63239">
        <ele>869</ele>
        <time>2022-06-06T10:32:00Z</time>
      </trkpt>
      <trkpt lat="44.89925" lon="3.6323">
        <ele>870</ele>
        <time>2022-06-06T10:32:04Z</time>
      </trkpt>
      <trkpt lat="44.89948" lon="3.63207">
        <ele>869</ele>
        <time>2022-06-06T10:32:09Z</time>
      </trkpt>
      <trkpt lat="44.89967" lon="3.632">
        <ele>869</ele>
        <time>2022-06-06T10:32:12Z</time>
      </trkpt>
      <trkpt lat="44.90048" lon="3.63187">
        <ele>869</ele>
        <time>2022-06-06T10:32:27Z</time>
      </trkpt>
      <trkpt lat="44.90077" lon="3.63192">
        <ele>871</ele>
        <time>2022-06-06T10:32:32Z</time>
      </trkpt>
      <trkpt lat="44.90111" lon="3.63208">
        <ele>872</ele>
        <time>2022-06-06T10:32:38Z</time>
      </trkpt>
      <trkpt lat="44.90175" lon="3.63245">
        <ele>870</ele>
        <time>2022-06-06T10:32:51Z</time>
      </trkpt>
      <trkpt lat="44.90255" lon="3.63286">
        <ele>870</ele>
        <time>2022-06-06T10:33:06Z</time>
      </trkpt>
      <trkpt lat="44.90297" lon="3.63296">
        <ele>870</ele>
        <time>2022-06-06T10:33:13Z</time>
      </trkpt>
      <trkpt lat="44.90393" lon="3.63304">
        <ele>865</ele>
        <time>2022-06-06T10:33:30Z</time>
      </trkpt>
      <trkpt lat="44.90522" lon="3.633">
        <ele>859</ele>
        <time>2022-06-06T10:33:53Z</time>
      </trkpt>
      <trkpt lat="44.9061" lon="3.63322">
        <ele>858</ele>
        <time>2022-06-06T10:34:09Z</time>
      </trkpt>
      <trkpt lat="44.90678" lon="3.63355">
        <ele>862</ele>
        <time>2022-06-06T10:34:22Z</time>
      </trkpt>
      <trkpt lat="44.90709" lon="3.63364">
        <ele>863</ele>
        <time>2022-06-06T10:34:28Z</time>
      </trkpt>
      <trkpt lat="44.90715" lon="3.63369">
        <ele>864</ele>
        <time>2022-06-06T10:34:29Z</time>
      </trkpt>
      <trkpt lat="44.90722" lon="3.63383">
        <ele>866</ele>
        <time>2022-06-06T10:34:31Z</time>
      </trkpt>
      <trkpt lat="44.90723" lon="3.634">
        <ele>870</ele>
        <time>2022-06-06T10:34:33Z</time>
      </trkpt>
      <trkpt lat="44.90731" lon="3.63419">
        <ele>872</ele>
        <time>2022-06-06T10:34:36Z</time>
      </trkpt>
      <trkpt lat="44.9074" lon="3.63428">
        <ele>871</ele>
        <time>2022-06-06T10:34:38Z</time>
      </trkpt>
      <trkpt lat="44.9075" lon="3.6343">
        <ele>868</ele>
        <time>2022-06-06T10:34:40Z</time>
      </trkpt>
      <trkpt lat="44.90759" lon="3.63426">
        <ele>870</ele>
        <time>2022-06-06T10:34:41Z</time>
      </trkpt>
      <trkpt lat="44.90765" lon="3.63412">
        <ele>870</ele>
        <time>2022-06-06T10:34:44Z</time>
      </trkpt>
      <trkpt lat="44.90779" lon="3.63371">
        <ele>866</ele>
        <time>2022-06-06T10:34:49Z</time>
      </trkpt>
      <trkpt lat="44.90786" lon="3.63357">
        <ele>864</ele>
        <time>2022-06-06T10:34:51Z</time>
      </trkpt>
      <trkpt lat="44.90865" lon="3.63333">
        <ele>874</ele>
        <time>2022-06-06T10:35:06Z</time>
      </trkpt>
      <trkpt lat="44.90887" lon="3.63316">
        <ele>875</ele>
        <time>2022-06-06T10:35:10Z</time>
      </trkpt>
      <trkpt lat="44.90899" lon="3.63294">
        <ele>871</ele>
        <time>2022-06-06T10:35:14Z</time>
      </trkpt>
      <trkpt lat="44.90915" lon="3.63278">
        <ele>869</ele>
        <time>2022-06-06T10:35:17Z</time>
      </trkpt>
      <trkpt lat="44.90957" lon="3.63246">
        <ele>867</ele>
        <time>2022-06-06T10:35:26Z</time>
      </trkpt>
      <trkpt lat="44.90984" lon="3.63213">
        <ele>863</ele>
        <time>2022-06-06T10:35:32Z</time>
      </trkpt>
      <trkpt lat="44.91011" lon="3.6319">
        <ele>860</ele>
        <time>2022-06-06T10:35:38Z</time>
      </trkpt>
      <trkpt lat="44.91052" lon="3.63174">
        <ele>862</ele>
        <time>2022-06-06T10:35:45Z</time>
      </trkpt>
      <trkpt lat="44.91117" lon="3.63102">
        <ele>854</ele>
        <time>2022-06-06T10:36:00Z</time>
      </trkpt>
      <trkpt lat="44.91153" lon="3.63078">
        <ele>853</ele>
        <time>2022-06-06T10:36:07Z</time>
      </trkpt>
      <trkpt lat="44.91185" lon="3.63043">
        <ele>852</ele>
        <time>2022-06-06T10:36:14Z</time>
      </trkpt>
      <trkpt lat="44.91211" lon="3.63002">
        <ele>848</ele>
        <time>2022-06-06T10:36:21Z</time>
      </trkpt>
      <trkpt lat="44.91247" lon="3.62966">
        <ele>848</ele>
        <time>2022-06-06T10:36:29Z</time>
      </trkpt>
      <trkpt lat="44.91278" lon="3.6293">
        <ele>845</ele>
        <time>2022-06-06T10:36:36Z</time>
      </trkpt>
      <trkpt lat="44.91308" lon="3.62887">
        <ele>844</ele>
        <time>2022-06-06T10:36:44Z</time>
      </trkpt>
      <trkpt lat="44.91329" lon="3.62853">
        <ele>844</ele>
        <time>2022-06-06T10:36:49Z</time>
      </trkpt>
      <trkpt lat="44.91339" lon="3.62832">
        <ele>844</ele>
        <time>2022-06-06T10:36:53Z</time>
      </trkpt>
      <trkpt lat="44.91349" lon="3.62816">
        <ele>845</ele>
        <time>2022-06-06T10:36:55Z</time>
      </trkpt>
      <trkpt lat="44.91366" lon="3.62799">
        <ele>846</ele>
        <time>2022-06-06T10:36:59Z</time>
      </trkpt>
      <trkpt lat="44.91413" lon="3.62771">
        <ele>849</ele>
        <time>2022-06-06T10:37:08Z</time>
      </trkpt>
      <trkpt lat="44.91478" lon="3.62743">
        <ele>853</ele>
        <time>2022-06-06T10:37:20Z</time>
      </trkpt>
      <trkpt lat="44.91429" lon="3.62833">
        <ele>860</ele>
        <time>2022-06-06T10:37:35Z</time>
      </trkpt>
      <trkpt lat="44.91424" lon="3.62847">
        <ele>860</ele>
        <time>2022-06-06T10:37:36Z</time>
      </trkpt>
      <trkpt lat="44.9142" lon="3.62865">
        <ele>860</ele>
        <time>2022-06-06T10:37:39Z</time>
      </trkpt>
      <trkpt lat="44.91418" lon="3.62884">
        <ele>860</ele>
        <time>2022-06-06T10:37:41Z</time>
      </trkpt>
      <trkpt lat="44.91423" lon="3.62955">
        <ele>864</ele>
        <time>2022-06-06T10:37:50Z</time>
      </trkpt>
      <trkpt lat="44.91426" lon="3.63024">
        <ele>868</ele>
        <time>2022-06-06T10:37:59Z</time>
      </trkpt>
      <trkpt lat="44.91432" lon="3.63082">
        <ele>871</ele>
        <time>2022-06-06T10:38:06Z</time>
      </trkpt>
      <trkpt lat="44.91431" lon="3.63115">
        <ele>871</ele>
        <time>2022-06-06T10:38:11Z</time>
      </trkpt>
      <trkpt lat="44.91427" lon="3.63181">
        <ele>870</ele>
        <time>2022-06-06T10:38:19Z</time>
      </trkpt>
      <trkpt lat="44.91429" lon="3.63196">
        <ele>870</ele>
        <time>2022-06-06T10:38:21Z</time>
      </trkpt>
      <trkpt lat="44.91433" lon="3.63204">
        <ele>871</ele>
        <time>2022-06-06T10:38:22Z</time>
      </trkpt>
      <trkpt lat="44.9144" lon="3.63213">
        <ele>872</ele>
        <time>2022-06-06T10:38:24Z</time>
      </trkpt>
      <trkpt lat="44.91492" lon="3.6323">
        <ele>880</ele>
        <time>2022-06-06T10:38:33Z</time>
      </trkpt>
      <trkpt lat="44.91584" lon="3.63274">
        <ele>888</ele>
        <time>2022-06-06T10:38:51Z</time>
      </trkpt>
      <trkpt lat="44.91625" lon="3.63283">
        <ele>891</ele>
        <time>2022-06-06T10:38:58Z</time>
      </trkpt>
      <trkpt lat="44.91671" lon="3.63302">
        <ele>893</ele>
        <time>2022-06-06T10:39:06Z</time>
      </trkpt>
      <trkpt lat="44.917" lon="3.6332">
        <ele>895</ele>
        <time>2022-06-06T10:39:12Z</time>
      </trkpt>
      <trkpt lat="44.91721" lon="3.63336">
        <ele>896</ele>
        <time>2022-06-06T10:39:16Z</time>
      </trkpt>
      <trkpt lat="44.91732" lon="3.63357">
        <ele>896</ele>
        <time>2022-06-06T10:39:20Z</time>
      </trkpt>
      <trkpt lat="44.91749" lon="3.63406">
        <ele>892</ele>
        <time>2022-06-06T10:39:26Z</time>
      </trkpt>
      <trkpt lat="44.91768" lon="3.63449">
        <ele>894</ele>
        <time>2022-06-06T10:39:33Z</time>
      </trkpt>
      <trkpt lat="44.91797" lon="3.63572">
        <ele>897</ele>
        <time>2022-06-06T10:39:49Z</time>
      </trkpt>
      <trkpt lat="44.91809" lon="3.63602">
        <ele>899</ele>
        <time>2022-06-06T10:39:54Z</time>
      </trkpt>
      <trkpt lat="44.91816" lon="3.63624">
        <ele>900</ele>
        <time>2022-06-06T10:39:57Z</time>
      </trkpt>
      <trkpt lat="44.91825" lon="3.6369">
        <ele>899</ele>
        <time>2022-06-06T10:40:05Z</time>
      </trkpt>
      <trkpt lat="44.91835" lon="3.63719">
        <ele>899</ele>
        <time>2022-06-06T10:40:09Z</time>
      </trkpt>
      <trkpt lat="44.91849" lon="3.63744">
        <ele>902</ele>
        <time>2022-06-06T10:40:13Z</time>
      </trkpt>
      <trkpt lat="44.91887" lon="3.63803">
        <ele>906</ele>
        <time>2022-06-06T10:40:23Z</time>
      </trkpt>
      <trkpt lat="44.919" lon="3.63817">
        <ele>906</ele>
        <time>2022-06-06T10:40:26Z</time>
      </trkpt>
      <trkpt lat="44.91917" lon="3.63829">
        <ele>907</ele>
        <time>2022-06-06T10:40:29Z</time>
      </trkpt>
      <trkpt lat="44.91932" lon="3.63833">
        <ele>907</ele>
        <time>2022-06-06T10:40:32Z</time>
      </trkpt>
      <trkpt lat="44.91952" lon="3.63828">
        <ele>908</ele>
        <time>2022-06-06T10:40:36Z</time>
      </trkpt>
      <trkpt lat="44.92035" lon="3.63797">
        <ele>918</ele>
        <time>2022-06-06T10:40:51Z</time>
      </trkpt>
      <trkpt lat="44.92052" lon="3.63794">
        <ele>919</ele>
        <time>2022-06-06T10:40:54Z</time>
      </trkpt>
      <trkpt lat="44.92068" lon="3.63801">
        <ele>919</ele>
        <time>2022-06-06T10:40:57Z</time>
      </trkpt>
      <trkpt lat="44.92075" lon="3.63826">
        <ele>918</ele>
        <time>2022-06-06T10:41:00Z</time>
      </trkpt>
      <trkpt lat="44.92071" lon="3.63846">
        <ele>918</ele>
        <time>2022-06-06T10:41:03Z</time>
      </trkpt>
      <trkpt lat="44.92012" lon="3.63906">
        <ele>917</ele>
        <time>2022-06-06T10:41:16Z</time>
      </trkpt>
      <trkpt lat="44.91994" lon="3.6393">
        <ele>916</ele>
        <time>2022-06-06T10:41:20Z</time>
      </trkpt>
      <trkpt lat="44.91981" lon="3.63957">
        <ele>916</ele>
        <time>2022-06-06T10:41:25Z</time>
      </trkpt>
      <trkpt lat="44.9198" lon="3.63987">
        <ele>919</ele>
        <time>2022-06-06T10:41:28Z</time>
      </trkpt>
      <trkpt lat="44.91988" lon="3.64018">
        <ele>922</ele>
        <time>2022-06-06T10:41:32Z</time>
      </trkpt>
      <trkpt lat="44.92012" lon="3.6408">
        <ele>927</ele>
        <time>2022-06-06T10:41:41Z</time>
      </trkpt>
      <trkpt lat="44.92018" lon="3.64101">
        <ele>928</ele>
        <time>2022-06-06T10:41:44Z</time>
      </trkpt>
      <trkpt lat="44.92023" lon="3.64145">
        <ele>927</ele>
        <time>2022-06-06T10:41:50Z</time>
      </trkpt>
      <trkpt lat="44.92028" lon="3.64161">
        <ele>928</ele>
        <time>2022-06-06T10:41:52Z</time>
      </trkpt>
      <trkpt lat="44.92039" lon="3.64172">
        <ele>930</ele>
        <time>2022-06-06T10:41:54Z</time>
      </trkpt>
      <trkpt lat="44.92058" lon="3.64186">
        <ele>933</ele>
        <time>2022-06-06T10:41:58Z</time>
      </trkpt>
      <trkpt lat="44.92069" lon="3.64203">
        <ele>935</ele>
        <time>2022-06-06T10:42:01Z</time>
      </trkpt>
      <trkpt lat="44.92086" lon="3.64265">
        <ele>935</ele>
        <time>2022-06-06T10:42:10Z</time>
      </trkpt>
      <trkpt lat="44.921" lon="3.64302">
        <ele>940</ele>
        <time>2022-06-06T10:42:15Z</time>
      </trkpt>
      <trkpt lat="44.9211" lon="3.64325">
        <ele>942</ele>
        <time>2022-06-06T10:42:18Z</time>
      </trkpt>
      <trkpt lat="44.92121" lon="3.64338">
        <ele>944</ele>
        <time>2022-06-06T10:42:21Z</time>
      </trkpt>
      <trkpt lat="44.92189" lon="3.64391">
        <ele>951</ele>
        <time>2022-06-06T10:42:35Z</time>
      </trkpt>
      <trkpt lat="44.92203" lon="3.64409">
        <ele>952</ele>
        <time>2022-06-06T10:42:38Z</time>
      </trkpt>
      <trkpt lat="44.92214" lon="3.64428">
        <ele>954</ele>
        <time>2022-06-06T10:42:41Z</time>
      </trkpt>
      <trkpt lat="44.92249" lon="3.64519">
        <ele>961</ele>
        <time>2022-06-06T10:42:54Z</time>
      </trkpt>
      <trkpt lat="44.92258" lon="3.64545">
        <ele>962</ele>
        <time>2022-06-06T10:42:58Z</time>
      </trkpt>
      <trkpt lat="44.9226" lon="3.64577">
        <ele>963</ele>
        <time>2022-06-06T10:43:02Z</time>
      </trkpt>
      <trkpt lat="44.92252" lon="3.64672">
        <ele>965</ele>
        <time>2022-06-06T10:43:14Z</time>
      </trkpt>
      <trkpt lat="44.92247" lon="3.64705">
        <ele>965</ele>
        <time>2022-06-06T10:43:18Z</time>
      </trkpt>
      <trkpt lat="44.92217" lon="3.64796">
        <ele>967</ele>
        <time>2022-06-06T10:43:31Z</time>
      </trkpt>
      <trkpt lat="44.92213" lon="3.64815">
        <ele>967</ele>
        <time>2022-06-06T10:43:33Z</time>
      </trkpt>
      <trkpt lat="44.92213" lon="3.64825">
        <ele>968</ele>
        <time>2022-06-06T10:43:35Z</time>
      </trkpt>
      <trkpt lat="44.92218" lon="3.64855">
        <ele>969</ele>
        <time>2022-06-06T10:43:38Z</time>
      </trkpt>
      <trkpt lat="44.92229" lon="3.64902">
        <ele>971</ele>
        <time>2022-06-06T10:43:45Z</time>
      </trkpt>
      <trkpt lat="44.92223" lon="3.65023">
        <ele>977</ele>
        <time>2022-06-06T10:44:00Z</time>
      </trkpt>
      <trkpt lat="44.92216" lon="3.6508">
        <ele>978</ele>
        <time>2022-06-06T10:44:07Z</time>
      </trkpt>
      <trkpt lat="44.92205" lon="3.65111">
        <ele>978</ele>
        <time>2022-06-06T10:44:12Z</time>
      </trkpt>
      <trkpt lat="44.92199" lon="3.65174">
        <ele>976</ele>
        <time>2022-06-06T10:44:20Z</time>
      </trkpt>
      <trkpt lat="44.92202" lon="3.65334">
        <ele>973</ele>
        <time>2022-06-06T10:44:40Z</time>
      </trkpt>
      <trkpt lat="44.92197" lon="3.65377">
        <ele>971</ele>
        <time>2022-06-06T10:44:45Z</time>
      </trkpt>
      <trkpt lat="44.92181" lon="3.65433">
        <ele>969</ele>
        <time>2022-06-06T10:44:53Z</time>
      </trkpt>
      <trkpt lat="44.92178" lon="3.65514">
        <ele>963</ele>
        <time>2022-06-06T10:45:03Z</time>
      </trkpt>
      <trkpt lat="44.92177" lon="3.65597">
        <ele>957</ele>
        <time>2022-06-06T10:45:14Z</time>
      </trkpt>
      <trkpt lat="44.92187" lon="3.65629">
        <ele>956</ele>
        <time>2022-06-06T10:45:18Z</time>
      </trkpt>
      <trkpt lat="44.92242" lon="3.65672">
        <ele>955</ele>
        <time>2022-06-06T10:45:29Z</time>
      </trkpt>
      <trkpt lat="44.92272" lon="3.65677">
        <ele>955</ele>
        <time>2022-06-06T10:45:34Z</time>
      </trkpt>
      <trkpt lat="44.92302" lon="3.65695">
        <ele>951</ele>
        <time>2022-06-06T10:45:40Z</time>
      </trkpt>
      <trkpt lat="44.92339" lon="3.65729">
        <ele>945</ele>
        <time>2022-06-06T10:45:48Z</time>
      </trkpt>
      <trkpt lat="44.92365" lon="3.65767">
        <ele>942</ele>
        <time>2022-06-06T10:45:55Z</time>
      </trkpt>
      <trkpt lat="44.92374" lon="3.65797">
        <ele>939</ele>
        <time>2022-06-06T10:45:59Z</time>
      </trkpt>
      <trkpt lat="44.92377" lon="3.65834">
        <ele>935</ele>
        <time>2022-06-06T10:46:04Z</time>
      </trkpt>
      <trkpt lat="44.92373" lon="3.65883">
        <ele>932</ele>
        <time>2022-06-06T10:46:10Z</time>
      </trkpt>
      <trkpt lat="44.92361" lon="3.6595">
        <ele>927</ele>
        <time>2022-06-06T10:46:19Z</time>
      </trkpt>
      <trkpt lat="44.92344" lon="3.66007">
        <ele>924</ele>
        <time>2022-06-06T10:46:26Z</time>
      </trkpt>
      <trkpt lat="44.92317" lon="3.66083">
        <ele>918</ele>
        <time>2022-06-06T10:46:37Z</time>
      </trkpt>
      <trkpt lat="44.9229" lon="3.66248">
        <ele>910</ele>
        <time>2022-06-06T10:46:58Z</time>
      </trkpt>
      <trkpt lat="44.92277" lon="3.66314">
        <ele>906</ele>
        <time>2022-06-06T10:47:07Z</time>
      </trkpt>
      <trkpt lat="44.92275" lon="3.66341">
        <ele>905</ele>
        <time>2022-06-06T10:47:10Z</time>
      </trkpt>
      <trkpt lat="44.92282" lon="3.66364">
        <ele>904</ele>
        <time>2022-06-06T10:47:14Z</time>
      </trkpt>
      <trkpt lat="44.92314" lon="3.66389">
        <ele>905</ele>
        <time>2022-06-06T10:47:20Z</time>
      </trkpt>
      <trkpt lat="44.92362" lon="3.6642">
        <ele>907</ele>
        <time>2022-06-06T10:47:29Z</time>
      </trkpt>
      <trkpt lat="44.92377" lon="3.66439">
        <ele>904</ele>
        <time>2022-06-06T10:47:33Z</time>
      </trkpt>
      <trkpt lat="44.92395" lon="3.66497">
        <ele>895</ele>
        <time>2022-06-06T10:47:41Z</time>
      </trkpt>
      <trkpt lat="44.92417" lon="3.66578">
        <ele>887</ele>
        <time>2022-06-06T10:47:52Z</time>
      </trkpt>
      <trkpt lat="44.92435" lon="3.66612">
        <ele>883</ele>
        <time>2022-06-06T10:47:57Z</time>
      </trkpt>
      <trkpt lat="44.92468" lon="3.66631">
        <ele>883</ele>
        <time>2022-06-06T10:48:04Z</time>
      </trkpt>
      <trkpt lat="44.92495" lon="3.66628">
        <ele>888</ele>
        <time>2022-06-06T10:48:08Z</time>
      </trkpt>
      <trkpt lat="44.92516" lon="3.66642">
        <ele>889</ele>
        <time>2022-06-06T10:48:13Z</time>
      </trkpt>
      <trkpt lat="44.92532" lon="3.66672">
        <ele>886</ele>
        <time>2022-06-06T10:48:17Z</time>
      </trkpt>
      <trkpt lat="44.92538" lon="3.66694">
        <ele>884</ele>
        <time>2022-06-06T10:48:20Z</time>
      </trkpt>
      <trkpt lat="44.92537" lon="3.66762">
        <ele>874</ele>
        <time>2022-06-06T10:48:29Z</time>
      </trkpt>
      <trkpt lat="44.9254" lon="3.66799">
        <ele>869</ele>
        <time>2022-06-06T10:48:34Z</time>
      </trkpt>
      <trkpt lat="44.92556" lon="3.66853">
        <ele>866</ele>
        <time>2022-06-06T10:48:41Z</time>
      </trkpt>
      <trkpt lat="44.92565" lon="3.66914">
        <ele>860</ele>
        <time>2022-06-06T10:48:49Z</time>
      </trkpt>
      <trkpt lat="44.92579" lon="3.6694">
        <ele>859</ele>
        <time>2022-06-06T10:48:53Z</time>
      </trkpt>
      <trkpt lat="44.92605" lon="3.66952">
        <ele>858</ele>
        <time>2022-06-06T10:48:58Z</time>
      </trkpt>
      <trkpt lat="44.92639" lon="3.66948">
        <ele>860</ele>
        <time>2022-06-06T10:49:04Z</time>
      </trkpt>
      <trkpt lat="44.92688" lon="3.66921">
        <ele>861</ele>
        <time>2022-06-06T10:49:13Z</time>
      </trkpt>
      <trkpt lat="44.92745" lon="3.66877">
        <ele>856</ele>
        <time>2022-06-06T10:49:25Z</time>
      </trkpt>
      <trkpt lat="44.92777" lon="3.66861">
        <ele>853</ele>
        <time>2022-06-06T10:49:31Z</time>
      </trkpt>
      <trkpt lat="44.92817" lon="3.66844">
        <ele>847</ele>
        <time>2022-06-06T10:49:38Z</time>
      </trkpt>
      <trkpt lat="44.92843" lon="3.66826">
        <ele>845</ele>
        <time>2022-06-06T10:49:43Z</time>
      </trkpt>
      <trkpt lat="44.92867" lon="3.66817">
        <ele>845</ele>
        <time>2022-06-06T10:49:48Z</time>
      </trkpt>
      <trkpt lat="44.92895" lon="3.66831">
        <ele>841</ele>
        <time>2022-06-06T10:49:53Z</time>
      </trkpt>
      <trkpt lat="44.92914" lon="3.66858">
        <ele>836</ele>
        <time>2022-06-06T10:49:58Z</time>
      </trkpt>
      <trkpt lat="44.92941" lon="3.66916">
        <ele>831</ele>
        <time>2022-06-06T10:50:07Z</time>
      </trkpt>
      <trkpt lat="44.93009" lon="3.66968">
        <ele>826</ele>
        <time>2022-06-06T10:50:20Z</time>
      </trkpt>
      <trkpt lat="44.9309" lon="3.67104">
        <ele>814</ele>
        <time>2022-06-06T10:50:43Z</time>
      </trkpt>
      <trkpt lat="44.93115" lon="3.67154">
        <ele>810</ele>
        <time>2022-06-06T10:50:50Z</time>
      </trkpt>
      <trkpt lat="44.93118" lon="3.67191">
        <ele>807</ele>
        <time>2022-06-06T10:50:55Z</time>
      </trkpt>
      <trkpt lat="44.93113" lon="3.67233">
        <ele>804</ele>
        <time>2022-06-06T10:51:01Z</time>
      </trkpt>
      <trkpt lat="44.93098" lon="3.67267">
        <ele>802</ele>
        <time>2022-06-06T10:51:06Z</time>
      </trkpt>
      <trkpt lat="44.9307" lon="3.67298">
        <ele>799</ele>
        <time>2022-06-06T10:51:12Z</time>
      </trkpt>
      <trkpt lat="44.92968" lon="3.67327">
        <ele>794</ele>
        <time>2022-06-06T10:51:30Z</time>
      </trkpt>
      <trkpt lat="44.92947" lon="3.67331">
        <ele>793</ele>
        <time>2022-06-06T10:51:34Z</time>
      </trkpt>
      <trkpt lat="44.92932" lon="3.67339">
        <ele>793</ele>
        <time>2022-06-06T10:51:37Z</time>
      </trkpt>
      <trkpt lat="44.92916" lon="3.67355">
        <ele>792</ele>
        <time>2022-06-06T10:51:41Z</time>
      </trkpt>
      <trkpt lat="44.92913" lon="3.6738">
        <ele>792</ele>
        <time>2022-06-06T10:51:44Z</time>
      </trkpt>
      <trkpt lat="44.92922" lon="3.67416">
        <ele>792</ele>
        <time>2022-06-06T10:51:49Z</time>
      </trkpt>
      <trkpt lat="44.92936" lon="3.67455">
        <ele>791</ele>
        <time>2022-06-06T10:51:54Z</time>
      </trkpt>
      <trkpt lat="44.92947" lon="3.67493">
        <ele>791</ele>
        <time>2022-06-06T10:51:59Z</time>
      </trkpt>
      <trkpt lat="44.92952" lon="3.67525">
        <ele>789</ele>
        <time>2022-06-06T10:52:03Z</time>
      </trkpt>
      <trkpt lat="44.92954" lon="3.67563">
        <ele>787</ele>
        <time>2022-06-06T10:52:08Z</time>
      </trkpt>
      <trkpt lat="44.92961" lon="3.67591">
        <ele>785</ele>
        <time>2022-06-06T10:52:12Z</time>
      </trkpt>
      <trkpt lat="44.93033" lon="3.67698">
        <ele>775</ele>
        <time>2022-06-06T10:52:30Z</time>
      </trkpt>
      <trkpt lat="44.93043" lon="3.67736">
        <ele>771</ele>
        <time>2022-06-06T10:52:36Z</time>
      </trkpt>
      <trkpt lat="44.93042" lon="3.67793">
        <ele>764</ele>
        <time>2022-06-06T10:52:43Z</time>
      </trkpt>
      <trkpt lat="44.93029" lon="3.67867">
        <ele>753</ele>
        <time>2022-06-06T10:52:52Z</time>
      </trkpt>
      <trkpt lat="44.93004" lon="3.67909">
        <ele>748</ele>
        <time>2022-06-06T10:52:59Z</time>
      </trkpt>
      <trkpt lat="44.92969" lon="3.6791">
        <ele>745</ele>
        <time>2022-06-06T10:53:06Z</time>
      </trkpt>
      <trkpt lat="44.92817" lon="3.67876">
        <ele>736</ele>
        <time>2022-06-06T10:53:33Z</time>
      </trkpt>
      <trkpt lat="44.92661" lon="3.67778">
        <ele>727</ele>
        <time>2022-06-06T10:54:03Z</time>
      </trkpt>
      <trkpt lat="44.92595" lon="3.67729">
        <ele>724</ele>
        <time>2022-06-06T10:54:17Z</time>
      </trkpt>
      <trkpt lat="44.92577" lon="3.67723">
        <ele>720</ele>
        <time>2022-06-06T10:54:20Z</time>
      </trkpt>
      <trkpt lat="44.92497" lon="3.67651">
        <ele>715</ele>
        <time>2022-06-06T10:54:37Z</time>
      </trkpt>
      <trkpt lat="44.92474" lon="3.67634">
        <ele>712</ele>
        <time>2022-06-06T10:54:41Z</time>
      </trkpt>
      <trkpt lat="44.92443" lon="3.67623">
        <ele>703</ele>
        <time>2022-06-06T10:54:47Z</time>
      </trkpt>
      <trkpt lat="44.92423" lon="3.67609">
        <ele>699</ele>
        <time>2022-06-06T10:54:51Z</time>
      </trkpt>
      <trkpt lat="44.9241" lon="3.67585">
        <ele>701</ele>
        <time>2022-06-06T10:54:55Z</time>
      </trkpt>
      <trkpt lat="44.92404" lon="3.67562">
        <ele>706</ele>
        <time>2022-06-06T10:54:58Z</time>
      </trkpt>
      <trkpt lat="44.92396" lon="3.67547">
        <ele>708</ele>
        <time>2022-06-06T10:55:00Z</time>
      </trkpt>
      <trkpt lat="44.92385" lon="3.67542">
        <ele>706</ele>
        <time>2022-06-06T10:55:02Z</time>
      </trkpt>
      <trkpt lat="44.92363" lon="3.67544">
        <ele>699</ele>
        <time>2022-06-06T10:55:06Z</time>
      </trkpt>
      <trkpt lat="44.92348" lon="3.67539">
        <ele>696</ele>
        <time>2022-06-06T10:55:09Z</time>
      </trkpt>
      <trkpt lat="44.92334" lon="3.67526">
        <ele>697</ele>
        <time>2022-06-06T10:55:12Z</time>
      </trkpt>
      <trkpt lat="44.92303" lon="3.67513">
        <ele>691</ele>
        <time>2022-06-06T10:55:18Z</time>
      </trkpt>
      <trkpt lat="44.92275" lon="3.67496">
        <ele>685</ele>
        <time>2022-06-06T10:55:23Z</time>
      </trkpt>
      <trkpt lat="44.92258" lon="3.67475">
        <ele>684</ele>
        <time>2022-06-06T10:55:27Z</time>
      </trkpt>
      <trkpt lat="44.92233" lon="3.67431">
        <ele>687</ele>
        <time>2022-06-06T10:55:34Z</time>
      </trkpt>
      <trkpt lat="44.92203" lon="3.67385">
        <ele>687</ele>
        <time>2022-06-06T10:55:42Z</time>
      </trkpt>
      <trkpt lat="44.92165" lon="3.67351">
        <ele>679</ele>
        <time>2022-06-06T10:55:50Z</time>
      </trkpt>
      <trkpt lat="44.92136" lon="3.6731">
        <ele>678</ele>
        <time>2022-06-06T10:55:57Z</time>
      </trkpt>
      <trkpt lat="44.92101" lon="3.6724">
        <ele>677</ele>
        <time>2022-06-06T10:56:08Z</time>
      </trkpt>
      <trkpt lat="44.92031" lon="3.67141">
        <ele>669</ele>
        <time>2022-06-06T10:56:26Z</time>
      </trkpt>
      <trkpt lat="44.92008" lon="3.67114">
        <ele>665</ele>
        <time>2022-06-06T10:56:31Z</time>
      </trkpt>
      <trkpt lat="44.91996" lon="3.67113">
        <ele>662</ele>
        <time>2022-06-06T10:56:33Z</time>
      </trkpt>
      <trkpt lat="44.9198" lon="3.67124">
        <ele>660</ele>
        <time>2022-06-06T10:56:36Z</time>
      </trkpt>
      <trkpt lat="44.91939" lon="3.67178">
        <ele>656</ele>
        <time>2022-06-06T10:56:46Z</time>
      </trkpt>
      <trkpt lat="44.91899" lon="3.67237">
        <ele>660</ele>
        <time>2022-06-06T10:56:57Z</time>
      </trkpt>
      <trkpt lat="44.91891" lon="3.67256">
        <ele>661</ele>
        <time>2022-06-06T10:57:00Z</time>
      </trkpt>
      <trkpt lat="44.91888" lon="3.6728">
        <ele>664</ele>
        <time>2022-06-06T10:57:03Z</time>
      </trkpt>
      <trkpt lat="44.9189" lon="3.67301">
        <ele>666</ele>
        <time>2022-06-06T10:57:05Z</time>
      </trkpt>
      <trkpt lat="44.91881" lon="3.67302">
        <ele>666</ele>
        <time>2022-06-06T10:57:07Z</time>
      </trkpt>
      <trkpt lat="44.91855" lon="3.67292">
        <ele>666</ele>
        <time>2022-06-06T10:57:12Z</time>
      </trkpt>
      <trkpt lat="44.91848" lon="3.6728">
        <ele>665</ele>
        <time>2022-06-06T10:57:14Z</time>
      </trkpt>
      <trkpt lat="44.91836" lon="3.67234">
        <ele>661</ele>
        <time>2022-06-06T10:57:20Z</time>
      </trkpt>
      <trkpt lat="44.91827" lon="3.67218">
        <ele>660</ele>
        <time>2022-06-06T10:57:22Z</time>
      </trkpt>
      <trkpt lat="44.91778" lon="3.67158">
        <ele>666</ele>
        <time>2022-06-06T10:57:34Z</time>
      </trkpt>
      <trkpt lat="44.9177" lon="3.67155">
        <ele>667</ele>
        <time>2022-06-06T10:57:35Z</time>
      </trkpt>
      <trkpt lat="44.9173" lon="3.67172">
        <ele>675</ele>
        <time>2022-06-06T10:57:43Z</time>
      </trkpt>
      <trkpt lat="44.91667" lon="3.67205">
        <ele>682</ele>
        <time>2022-06-06T10:57:55Z</time>
      </trkpt>
      <trkpt lat="44.91639" lon="3.67224">
        <ele>682</ele>
        <time>2022-06-06T10:58:00Z</time>
      </trkpt>
      <trkpt lat="44.91613" lon="3.67246">
        <ele>682</ele>
        <time>2022-06-06T10:58:06Z</time>
      </trkpt>
      <trkpt lat="44.91574" lon="3.67285">
        <ele>679</ele>
        <time>2022-06-06T10:58:14Z</time>
      </trkpt>
      <trkpt lat="44.91519" lon="3.67327">
        <ele>667</ele>
        <time>2022-06-06T10:58:25Z</time>
      </trkpt>
      <trkpt lat="44.91501" lon="3.67349">
        <ele>666</ele>
        <time>2022-06-06T10:58:30Z</time>
      </trkpt>
      <trkpt lat="44.91493" lon="3.67364">
        <ele>666</ele>
        <time>2022-06-06T10:58:32Z</time>
      </trkpt>
      <trkpt lat="44.91485" lon="3.67388">
        <ele>665</ele>
        <time>2022-06-06T10:58:35Z</time>
      </trkpt>
      <trkpt lat="44.91484" lon="3.67398">
        <ele>665</ele>
        <time>2022-06-06T10:58:37Z</time>
      </trkpt>
      <trkpt lat="44.91485" lon="3.67423">
        <ele>665</ele>
        <time>2022-06-06T10:58:40Z</time>
      </trkpt>
      <trkpt lat="44.91483" lon="3.67432">
        <ele>666</ele>
        <time>2022-06-06T10:58:41Z</time>
      </trkpt>
      <trkpt lat="44.91478" lon="3.67441">
        <ele>666</ele>
        <time>2022-06-06T10:58:42Z</time>
      </trkpt>
      <trkpt lat="44.91471" lon="3.67448">
        <ele>666</ele>
        <time>2022-06-06T10:58:44Z</time>
      </trkpt>
      <trkpt lat="44.91441" lon="3.6747">
        <ele>666</ele>
        <time>2022-06-06T10:58:50Z</time>
      </trkpt>
      <trkpt lat="44.91359" lon="3.67536">
        <ele>669</ele>
        <time>2022-06-06T10:59:07Z</time>
      </trkpt>
      <trkpt lat="44.91341" lon="3.67563">
        <ele>673</ele>
        <time>2022-06-06T10:59:11Z</time>
      </trkpt>
      <trkpt lat="44.91283" lon="3.67697">
        <ele>693</ele>
        <time>2022-06-06T10:59:31Z</time>
      </trkpt>
      <trkpt lat="44.91219" lon="3.67822">
        <ele>704</ele>
        <time>2022-06-06T10:59:51Z</time>
      </trkpt>
      <trkpt lat="44.91207" lon="3.67924">
        <ele>709</ele>
        <time>2022-06-06T11:00:04Z</time>
      </trkpt>
      <trkpt lat="44.91185" lon="3.67974">
        <ele>715</ele>
        <time>2022-06-06T11:00:11Z</time>
      </trkpt>
      <trkpt lat="44.91146" lon="3.68008">
        <ele>722</ele>
        <time>2022-06-06T11:00:19Z</time>
      </trkpt>
      <trkpt lat="44.91051" lon="3.68133">
        <ele>729</ele>
        <time>2022-06-06T11:00:42Z</time>
      </trkpt>
      <trkpt lat="44.91015" lon="3.6817">
        <ele>733</ele>
        <time>2022-06-06T11:00:50Z</time>
      </trkpt>
      <trkpt lat="44.91006" lon="3.68179">
        <ele>734</ele>
        <time>2022-06-06T11:00:52Z</time>
      </trkpt>
      <trkpt lat="44.9094" lon="3.6829">
        <ele>740</ele>
        <time>2022-06-06T11:01:10Z</time>
      </trkpt>
      <trkpt lat="44.90938" lon="3.68295">
        <ele>741</ele>
        <time>2022-06-06T11:01:11Z</time>
      </trkpt>
      <trkpt lat="44.90907" lon="3.68345">
        <ele>743</ele>
        <time>2022-06-06T11:01:20Z</time>
      </trkpt>
      <trkpt lat="44.90861" lon="3.68367">
        <ele>748</ele>
        <time>2022-06-06T11:01:28Z</time>
      </trkpt>
      <trkpt lat="44.90824" lon="3.68368">
        <ele>753</ele>
        <time>2022-06-06T11:01:35Z</time>
      </trkpt>
      <trkpt lat="44.90799" lon="3.68388">
        <ele>755</ele>
        <time>2022-06-06T11:01:40Z</time>
      </trkpt>
      <trkpt lat="44.90769" lon="3.68417">
        <ele>758</ele>
        <time>2022-06-06T11:01:46Z</time>
      </trkpt>
      <trkpt lat="44.90721" lon="3.68422">
        <ele>763</ele>
        <time>2022-06-06T11:01:55Z</time>
      </trkpt>
      <trkpt lat="44.90697" lon="3.68424">
        <ele>765</ele>
        <time>2022-06-06T11:01:59Z</time>
      </trkpt>
      <trkpt lat="44.90571" lon="3.68434">
        <ele>774</ele>
        <time>2022-06-06T11:02:22Z</time>
      </trkpt>
      <trkpt lat="44.90557" lon="3.68431">
        <ele>775</ele>
        <time>2022-06-06T11:02:24Z</time>
      </trkpt>
      <trkpt lat="44.9052" lon="3.6839">
        <ele>777</ele>
        <time>2022-06-06T11:02:33Z</time>
      </trkpt>
      <trkpt lat="44.90483" lon="3.68417">
        <ele>777</ele>
        <time>2022-06-06T11:02:40Z</time>
      </trkpt>
      <trkpt lat="44.90431" lon="3.68592">
        <ele>783</ele>
        <time>2022-06-06T11:03:04Z</time>
      </trkpt>
      <trkpt lat="44.90409" lon="3.68651">
        <ele>789</ele>
        <time>2022-06-06T11:03:12Z</time>
      </trkpt>
      <trkpt lat="44.90394" lon="3.68661">
        <ele>791</ele>
        <time>2022-06-06T11:03:15Z</time>
      </trkpt>
      <trkpt lat="44.90309" lon="3.68617">
        <ele>794</ele>
        <time>2022-06-06T11:03:31Z</time>
      </trkpt>
      <trkpt lat="44.90241" lon="3.68569">
        <ele>796</ele>
        <time>2022-06-06T11:03:45Z</time>
      </trkpt>
      <trkpt lat="44.90176" lon="3.6851">
        <ele>795</ele>
        <time>2022-06-06T11:03:59Z</time>
      </trkpt>
      <trkpt lat="44.90124" lon="3.68436">
        <ele>793</ele>
        <time>2022-06-06T11:04:12Z</time>
      </trkpt>
      <trkpt lat="44.90114" lon="3.68432">
        <ele>793</ele>
        <time>2022-06-06T11:04:14Z</time>
      </trkpt>
      <trkpt lat="44.90105" lon="3.68432">
        <ele>793</ele>
        <time>2022-06-06T11:04:15Z</time>
      </trkpt>
      <trkpt lat="44.90097" lon="3.68437">
        <ele>793</ele>
        <time>2022-06-06T11:04:17Z</time>
      </trkpt>
      <trkpt lat="44.90091" lon="3.68444">
        <ele>793</ele>
        <time>2022-06-06T11:04:18Z</time>
      </trkpt>
      <trkpt lat="44.90088" lon="3.68455">
        <ele>793</ele>
        <time>2022-06-06T11:04:20Z</time>
      </trkpt>
      <trkpt lat="44.9009" lon="3.68465">
        <ele>793</ele>
        <time>2022-06-06T11:04:21Z</time>
      </trkpt>
      <trkpt lat="44.90125" lon="3.68525">
        <ele>799</ele>
        <time>2022-06-06T11:04:31Z</time>
      </trkpt>
      <trkpt lat="44.90137" lon="3.68549">
        <ele>802</ele>
        <time>2022-06-06T11:04:34Z</time>
      </trkpt>
      <trkpt lat="44.90145" lon="3.68573">
        <ele>806</ele>
        <time>2022-06-06T11:04:38Z</time>
      </trkpt>
      <trkpt lat="44.90182" lon="3.68702">
        <ele>822</ele>
        <time>2022-06-06T11:04:55Z</time>
      </trkpt>
      <trkpt lat="44.90189" lon="3.68713">
        <ele>822</ele>
        <time>2022-06-06T11:04:57Z</time>
      </trkpt>
      <trkpt lat="44.90204" lon="3.68736">
        <ele>824</ele>
        <time>2022-06-06T11:05:01Z</time>
      </trkpt>
      <trkpt lat="44.90275" lon="3.6882">
        <ele>830</ele>
        <time>2022-06-06T11:05:18Z</time>
      </trkpt>
      <trkpt lat="44.90301" lon="3.68869">
        <ele>833</ele>
        <time>2022-06-06T11:05:25Z</time>
      </trkpt>
      <trkpt lat="44.90312" lon="3.68923">
        <ele>840</ele>
        <time>2022-06-06T11:05:32Z</time>
      </trkpt>
      <trkpt lat="44.90317" lon="3.68967">
        <ele>842</ele>
        <time>2022-06-06T11:05:38Z</time>
      </trkpt>
      <trkpt lat="44.90308" lon="3.69082">
        <ele>843</ele>
        <time>2022-06-06T11:05:53Z</time>
      </trkpt>
      <trkpt lat="44.90288" lon="3.69128">
        <ele>850</ele>
        <time>2022-06-06T11:05:59Z</time>
      </trkpt>
      <trkpt lat="44.90272" lon="3.69209">
        <ele>856</ele>
        <time>2022-06-06T11:06:10Z</time>
      </trkpt>
      <trkpt lat="44.90237" lon="3.69337">
        <ele>863</ele>
        <time>2022-06-06T11:06:27Z</time>
      </trkpt>
      <trkpt lat="44.90229" lon="3.69403">
        <ele>865</ele>
        <time>2022-06-06T11:06:36Z</time>
      </trkpt>
      <trkpt lat="44.90238" lon="3.69477">
        <ele>867</ele>
        <time>2022-06-06T11:06:45Z</time>
      </trkpt>
      <trkpt lat="44.90231" lon="3.69501">
        <ele>871</ele>
        <time>2022-06-06T11:06:48Z</time>
      </trkpt>
      <trkpt lat="44.9021" lon="3.69501">
        <ele>879</ele>
        <time>2022-06-06T11:06:52Z</time>
      </trkpt>
      <trkpt lat="44.90183" lon="3.69392">
        <ele>880</ele>
        <time>2022-06-06T11:07:07Z</time>
      </trkpt>
      <trkpt lat="44.90181" lon="3.69362">
        <ele>881</ele>
        <time>2022-06-06T11:07:11Z</time>
      </trkpt>
      <trkpt lat="44.90188" lon="3.69252">
        <ele>880</ele>
        <time>2022-06-06T11:07:24Z</time>
      </trkpt>
      <trkpt lat="44.90192" lon="3.69155">
        <ele>875</ele>
        <time>2022-06-06T11:07:37Z</time>
      </trkpt>
      <trkpt lat="44.90189" lon="3.69141">
        <ele>875</ele>
        <time>2022-06-06T11:07:39Z</time>
      </trkpt>
      <trkpt lat="44.90168" lon="3.69121">
        <ele>877</ele>
        <time>2022-06-06T11:07:43Z</time>
      </trkpt>
      <trkpt lat="44.90141" lon="3.6914">
        <ele>876</ele>
        <time>2022-06-06T11:07:48Z</time>
      </trkpt>
      <trkpt lat="44.90116" lon="3.69174">
        <ele>880</ele>
        <time>2022-06-06T11:07:55Z</time>
      </trkpt>
      <trkpt lat="44.90076" lon="3.69238">
        <ele>887</ele>
        <time>2022-06-06T11:08:05Z</time>
      </trkpt>
      <trkpt lat="44.90018" lon="3.69388">
        <ele>897</ele>
        <time>2022-06-06T11:08:27Z</time>
      </trkpt>
      <trkpt lat="44.89994" lon="3.69476">
        <ele>902</ele>
        <time>2022-06-06T11:08:39Z</time>
      </trkpt>
      <trkpt lat="44.89984" lon="3.69535">
        <ele>903</ele>
        <time>2022-06-06T11:08:46Z</time>
      </trkpt>
      <trkpt lat="44.89988" lon="3.69615">
        <ele>908</ele>
        <time>2022-06-06T11:08:57Z</time>
      </trkpt>
      <trkpt lat="44.89968" lon="3.69772">
        <ele>915</ele>
        <time>2022-06-06T11:09:17Z</time>
      </trkpt>
      <trkpt lat="44.89973" lon="3.69859">
        <ele>922</ele>
        <time>2022-06-06T11:09:28Z</time>
      </trkpt>
      <trkpt lat="44.89981" lon="3.6996">
        <ele>930</ele>
        <time>2022-06-06T11:09:40Z</time>
      </trkpt>
      <trkpt lat="44.8997" lon="3.7001">
        <ele>934</ele>
        <time>2022-06-06T11:09:47Z</time>
      </trkpt>
      <trkpt lat="44.89948" lon="3.70051">
        <ele>938</ele>
        <time>2022-06-06T11:09:54Z</time>
      </trkpt>
      <trkpt lat="44.89919" lon="3.70072">
        <ele>939</ele>
        <time>2022-06-06T11:09:59Z</time>
      </trkpt>
      <trkpt lat="44.89894" lon="3.70081">
        <ele>935</ele>
        <time>2022-06-06T11:10:04Z</time>
      </trkpt>
      <trkpt lat="44.89878" lon="3.70099">
        <ele>934</ele>
        <time>2022-06-06T11:10:08Z</time>
      </trkpt>
      <trkpt lat="44.89862" lon="3.70148">
        <ele>935</ele>
        <time>2022-06-06T11:10:14Z</time>
      </trkpt>
      <trkpt lat="44.89868" lon="3.70184">
        <ele>941</ele>
        <time>2022-06-06T11:10:19Z</time>
      </trkpt>
      <trkpt lat="44.89879" lon="3.70214">
        <ele>949</ele>
        <time>2022-06-06T11:10:23Z</time>
      </trkpt>
      <trkpt lat="44.89881" lon="3.7024">
        <ele>953</ele>
        <time>2022-06-06T11:10:27Z</time>
      </trkpt>
      <trkpt lat="44.89866" lon="3.70267">
        <ele>953</ele>
        <time>2022-06-06T11:10:31Z</time>
      </trkpt>
      <trkpt lat="44.89828" lon="3.70316">
        <ele>954</ele>
        <time>2022-06-06T11:10:40Z</time>
      </trkpt>
      <trkpt lat="44.89799" lon="3.70381">
        <ele>956</ele>
        <time>2022-06-06T11:10:50Z</time>
      </trkpt>
      <trkpt lat="44.89795" lon="3.70421">
        <ele>960</ele>
        <time>2022-06-06T11:10:55Z</time>
      </trkpt>
      <trkpt lat="44.89795" lon="3.70507">
        <ele>966</ele>
        <time>2022-06-06T11:11:06Z</time>
      </trkpt>
      <trkpt lat="44.89789" lon="3.70547">
        <ele>968</ele>
        <time>2022-06-06T11:11:11Z</time>
      </trkpt>
      <trkpt lat="44.89765" lon="3.70624">
        <ele>969</ele>
        <time>2022-06-06T11:11:21Z</time>
      </trkpt>
      <trkpt lat="44.89762" lon="3.70674">
        <ele>973</ele>
        <time>2022-06-06T11:11:28Z</time>
      </trkpt>
      <trkpt lat="44.89782" lon="3.70753">
        <ele>981</ele>
        <time>2022-06-06T11:11:38Z</time>
      </trkpt>
      <trkpt lat="44.89811" lon="3.70833">
        <ele>984</ele>
        <time>2022-06-06T11:11:50Z</time>
      </trkpt>
      <trkpt lat="44.89817" lon="3.70861">
        <ele>985</ele>
        <time>2022-06-06T11:11:53Z</time>
      </trkpt>
      <trkpt lat="44.8982" lon="3.70891">
        <ele>985</ele>
        <time>2022-06-06T11:11:57Z</time>
      </trkpt>
      <trkpt lat="44.89819" lon="3.70912">
        <ele>985</ele>
        <time>2022-06-06T11:12:00Z</time>
      </trkpt>
      <trkpt lat="44.89806" lon="3.70926">
        <ele>986</ele>
        <time>2022-06-06T11:12:03Z</time>
      </trkpt>
      <trkpt lat="44.8979" lon="3.70931">
        <ele>986</ele>
        <time>2022-06-06T11:12:06Z</time>
      </trkpt>
      <trkpt lat="44.8977" lon="3.70922">
        <ele>986</ele>
        <time>2022-06-06T11:12:09Z</time>
      </trkpt>
      <trkpt lat="44.89758" lon="3.70914">
        <ele>986</ele>
        <time>2022-06-06T11:12:12Z</time>
      </trkpt>
      <trkpt lat="44.89724" lon="3.70913">
        <ele>989</ele>
        <time>2022-06-06T11:12:18Z</time>
      </trkpt>
      <trkpt lat="44.89705" lon="3.70904">
        <ele>989</ele>
        <time>2022-06-06T11:12:21Z</time>
      </trkpt>
      <trkpt lat="44.89687" lon="3.70885">
        <ele>988</ele>
        <time>2022-06-06T11:12:25Z</time>
      </trkpt>
      <trkpt lat="44.89673" lon="3.70871">
        <ele>988</ele>
        <time>2022-06-06T11:12:28Z</time>
      </trkpt>
      <trkpt lat="44.89652" lon="3.70873">
        <ele>989</ele>
        <time>2022-06-06T11:12:32Z</time>
      </trkpt>
      <trkpt lat="44.89468" lon="3.70983">
        <ele>998</ele>
        <time>2022-06-06T11:13:08Z</time>
      </trkpt>
      <trkpt lat="44.89379" lon="3.71034">
        <ele>999</ele>
        <time>2022-06-06T11:13:25Z</time>
      </trkpt>
      <trkpt lat="44.89327" lon="3.71066">
        <ele>999</ele>
        <time>2022-06-06T11:13:35Z</time>
      </trkpt>
      <trkpt lat="44.89289" lon="3.71066">
        <ele>1002</ele>
        <time>2022-06-06T11:13:42Z</time>
      </trkpt>
      <trkpt lat="44.89244" lon="3.71037">
        <ele>999</ele>
        <time>2022-06-06T11:13:50Z</time>
      </trkpt>
      <trkpt lat="44.8919" lon="3.71008">
        <ele>996</ele>
        <time>2022-06-06T11:14:01Z</time>
      </trkpt>
      <trkpt lat="44.89151" lon="3.71003">
        <ele>995</ele>
        <time>2022-06-06T11:14:08Z</time>
      </trkpt>
      <trkpt lat="44.89109" lon="3.71023">
        <ele>995</ele>
        <time>2022-06-06T11:14:16Z</time>
      </trkpt>
      <trkpt lat="44.89074" lon="3.7106">
        <ele>995</ele>
        <time>2022-06-06T11:14:23Z</time>
      </trkpt>
      <trkpt lat="44.89048" lon="3.71104">
        <ele>993</ele>
        <time>2022-06-06T11:14:31Z</time>
      </trkpt>
      <trkpt lat="44.89002" lon="3.71237">
        <ele>988</ele>
        <time>2022-06-06T11:14:49Z</time>
      </trkpt>
      <trkpt lat="44.88968" lon="3.71311">
        <ele>983</ele>
        <time>2022-06-06T11:15:00Z</time>
      </trkpt>
      <trkpt lat="44.88952" lon="3.71405">
        <ele>978</ele>
        <time>2022-06-06T11:15:13Z</time>
      </trkpt>
      <trkpt lat="44.88958" lon="3.71471">
        <ele>976</ele>
        <time>2022-06-06T11:15:21Z</time>
      </trkpt>
      <trkpt lat="44.88965" lon="3.7151">
        <ele>976</ele>
        <time>2022-06-06T11:15:26Z</time>
      </trkpt>
      <trkpt lat="44.88967" lon="3.71564">
        <ele>973</ele>
        <time>2022-06-06T11:15:33Z</time>
      </trkpt>
      <trkpt lat="44.88986" lon="3.71605">
        <ele>977</ele>
        <time>2022-06-06T11:15:39Z</time>
      </trkpt>
      <trkpt lat="44.88987" lon="3.71623">
        <ele>976</ele>
        <time>2022-06-06T11:15:41Z</time>
      </trkpt>
      <trkpt lat="44.88977" lon="3.71711">
        <ele>971</ele>
        <time>2022-06-06T11:15:52Z</time>
      </trkpt>
      <trkpt lat="44.88974" lon="3.71758">
        <ele>970</ele>
        <time>2022-06-06T11:15:58Z</time>
      </trkpt>
      <trkpt lat="44.88992" lon="3.71812">
        <ele>968</ele>
        <time>2022-06-06T11:16:06Z</time>
      </trkpt>
      <trkpt lat="44.89013" lon="3.71846">
        <ele>966</ele>
        <time>2022-06-06T11:16:12Z</time>
      </trkpt>
      <trkpt lat="44.89028" lon="3.71852">
        <ele>967</ele>
        <time>2022-06-06T11:16:14Z</time>
      </trkpt>
      <trkpt lat="44.89067" lon="3.71853">
        <ele>972</ele>
        <time>2022-06-06T11:16:21Z</time>
      </trkpt>
      <trkpt lat="44.891" lon="3.71866">
        <ele>974</ele>
        <time>2022-06-06T11:16:27Z</time>
      </trkpt>
      <trkpt lat="44.89116" lon="3.71893">
        <ele>974</ele>
        <time>2022-06-06T11:16:32Z</time>
      </trkpt>
      <trkpt lat="44.89118" lon="3.7191">
        <ele>972</ele>
        <time>2022-06-06T11:16:34Z</time>
      </trkpt>
      <trkpt lat="44.89114" lon="3.71924">
        <ele>972</ele>
        <time>2022-06-06T11:16:36Z</time>
      </trkpt>
      <trkpt lat="44.89081" lon="3.72014">
        <ele>977</ele>
        <time>2022-06-06T11:16:49Z</time>
      </trkpt>
      <trkpt lat="44.89058" lon="3.72042">
        <ele>979</ele>
        <time>2022-06-06T11:16:54Z</time>
      </trkpt>
      <trkpt lat="44.88968" lon="3.72065">
        <ele>971</ele>
        <time>2022-06-06T11:17:10Z</time>
      </trkpt>
      <trkpt lat="44.88843" lon="3.72149">
        <ele>970</ele>
        <time>2022-06-06T11:17:35Z</time>
      </trkpt>
      <trkpt lat="44.88826" lon="3.72174">
        <ele>969</ele>
        <time>2022-06-06T11:17:39Z</time>
      </trkpt>
      <trkpt lat="44.88825" lon="3.72202">
        <ele>969</ele>
        <time>2022-06-06T11:17:43Z</time>
      </trkpt>
      <trkpt lat="44.88847" lon="3.72262">
        <ele>974</ele>
        <time>2022-06-06T11:17:51Z</time>
      </trkpt>
      <trkpt lat="44.88849" lon="3.72299">
        <ele>975</ele>
        <time>2022-06-06T11:17:56Z</time>
      </trkpt>
      <trkpt lat="44.88842" lon="3.72327">
        <ele>974</ele>
        <time>2022-06-06T11:18:00Z</time>
      </trkpt>
      <trkpt lat="44.88826" lon="3.72344">
        <ele>976</ele>
        <time>2022-06-06T11:18:03Z</time>
      </trkpt>
      <trkpt lat="44.88788" lon="3.72341">
        <ele>978</ele>
        <time>2022-06-06T11:18:10Z</time>
      </trkpt>
      <trkpt lat="44.8873" lon="3.72306">
        <ele>973</ele>
        <time>2022-06-06T11:18:21Z</time>
      </trkpt>
      <trkpt lat="44.88693" lon="3.72296">
        <ele>973</ele>
        <time>2022-06-06T11:18:28Z</time>
      </trkpt>
      <trkpt lat="44.88655" lon="3.72313">
        <ele>975</ele>
        <time>2022-06-06T11:18:35Z</time>
      </trkpt>
      <trkpt lat="44.88623" lon="3.72348">
        <ele>971</ele>
        <time>2022-06-06T11:18:42Z</time>
      </trkpt>
      <trkpt lat="44.88618" lon="3.72379">
        <ele>971</ele>
        <time>2022-06-06T11:18:46Z</time>
      </trkpt>
      <trkpt lat="44.88642" lon="3.72445">
        <ele>981</ele>
        <time>2022-06-06T11:18:56Z</time>
      </trkpt>
      <trkpt lat="44.88639" lon="3.72487">
        <ele>983</ele>
        <time>2022-06-06T11:19:01Z</time>
      </trkpt>
      <trkpt lat="44.88615" lon="3.72525">
        <ele>977</ele>
        <time>2022-06-06T11:19:08Z</time>
      </trkpt>
      <trkpt lat="44.8861" lon="3.72552">
        <ele>977</ele>
        <time>2022-06-06T11:19:11Z</time>
      </trkpt>
      <trkpt lat="44.88613" lon="3.72668">
        <ele>983</ele>
        <time>2022-06-06T11:19:26Z</time>
      </trkpt>
      <trkpt lat="44.88603" lon="3.72731">
        <ele>981</ele>
        <time>2022-06-06T11:19:34Z</time>
      </trkpt>
      <trkpt lat="44.88593" lon="3.72813">
        <ele>987</ele>
        <time>2022-06-06T11:19:44Z</time>
      </trkpt>
      <trkpt lat="44.88496" lon="3.72979">
        <ele>996</ele>
        <time>2022-06-06T11:20:11Z</time>
      </trkpt>
      <trkpt lat="44.88458" lon="3.73005">
        <ele>999</ele>
        <time>2022-06-06T11:20:19Z</time>
      </trkpt>
      <trkpt lat="44.88386" lon="3.73014">
        <ele>997</ele>
        <time>2022-06-06T11:20:32Z</time>
      </trkpt>
      <trkpt lat="44.88304" lon="3.73004">
        <ele>992</ele>
        <time>2022-06-06T11:20:46Z</time>
      </trkpt>
      <trkpt lat="44.88249" lon="3.73009">
        <ele>988</ele>
        <time>2022-06-06T11:20:56Z</time>
      </trkpt>
      <trkpt lat="44.88232" lon="3.73026">
        <ele>985</ele>
        <time>2022-06-06T11:21:00Z</time>
      </trkpt>
      <trkpt lat="44.8822" lon="3.73071">
        <ele>989</ele>
        <time>2022-06-06T11:21:06Z</time>
      </trkpt>
      <trkpt lat="44.88194" lon="3.73122">
        <ele>989</ele>
        <time>2022-06-06T11:21:14Z</time>
      </trkpt>
      <trkpt lat="44.88144" lon="3.73232">
        <ele>993</ele>
        <time>2022-06-06T11:21:30Z</time>
      </trkpt>
      <trkpt lat="44.88136" lon="3.73304">
        <ele>1002</ele>
        <time>2022-06-06T11:21:40Z</time>
      </trkpt>
      <trkpt lat="44.88116" lon="3.73326">
        <ele>1003</ele>
        <time>2022-06-06T11:21:44Z</time>
      </trkpt>
      <trkpt lat="44.88092" lon="3.73324">
        <ele>1000</ele>
        <time>2022-06-06T11:21:48Z</time>
      </trkpt>
      <trkpt lat="44.88066" lon="3.73293">
        <ele>995</ele>
        <time>2022-06-06T11:21:54Z</time>
      </trkpt>
      <trkpt lat="44.88016" lon="3.73208">
        <ele>984</ele>
        <time>2022-06-06T11:22:08Z</time>
      </trkpt>
      <trkpt lat="44.87998" lon="3.73206">
        <ele>985</ele>
        <time>2022-06-06T11:22:12Z</time>
      </trkpt>
      <trkpt lat="44.87973" lon="3.73218">
        <ele>987</ele>
        <time>2022-06-06T11:22:16Z</time>
      </trkpt>
      <trkpt lat="44.87948" lon="3.73223">
        <ele>986</ele>
        <time>2022-06-06T11:22:21Z</time>
      </trkpt>
      <trkpt lat="44.87889" lon="3.73222">
        <ele>980</ele>
        <time>2022-06-06T11:22:31Z</time>
      </trkpt>
      <trkpt lat="44.87878" lon="3.73227">
        <ele>978</ele>
        <time>2022-06-06T11:22:33Z</time>
      </trkpt>
      <trkpt lat="44.87872" lon="3.73229">
        <ele>977</ele>
        <time>2022-06-06T11:22:34Z</time>
      </trkpt>
      <trkpt lat="44.87867" lon="3.73245">
        <ele>978</ele>
        <time>2022-06-06T11:22:37Z</time>
      </trkpt>
      <trkpt lat="44.87867" lon="3.73261">
        <ele>978</ele>
        <time>2022-06-06T11:22:39Z</time>
      </trkpt>
      <trkpt lat="44.87879" lon="3.73313">
        <ele>980</ele>
        <time>2022-06-06T11:22:46Z</time>
      </trkpt>
      <trkpt lat="44.87893" lon="3.73353">
        <ele>984</ele>
        <time>2022-06-06T11:22:51Z</time>
      </trkpt>
      <trkpt lat="44.87897" lon="3.73435">
        <ele>986</ele>
        <time>2022-06-06T11:23:02Z</time>
      </trkpt>
      <trkpt lat="44.87885" lon="3.7348">
        <ele>986</ele>
        <time>2022-06-06T11:23:08Z</time>
      </trkpt>
      <trkpt lat="44.8785" lon="3.73521">
        <ele>976</ele>
        <time>2022-06-06T11:23:16Z</time>
      </trkpt>
      <trkpt lat="44.87834" lon="3.7357">
        <ele>978</ele>
        <time>2022-06-06T11:23:23Z</time>
      </trkpt>
      <trkpt lat="44.87818" lon="3.73636">
        <ele>981</ele>
        <time>2022-06-06T11:23:31Z</time>
      </trkpt>
      <trkpt lat="44.878" lon="3.7368">
        <ele>978</ele>
        <time>2022-06-06T11:23:38Z</time>
      </trkpt>
      <trkpt lat="44.87798" lon="3.73747">
        <ele>979</ele>
        <time>2022-06-06T11:23:46Z</time>
      </trkpt>
      <trkpt lat="44.87812" lon="3.73773">
        <ele>984</ele>
        <time>2022-06-06T11:23:50Z</time>
      </trkpt>
      <trkpt lat="44.87869" lon="3.73855">
        <ele>996</ele>
        <time>2022-06-06T11:24:05Z</time>
      </trkpt>
      <trkpt lat="44.87873" lon="3.73884">
        <ele>996</ele>
        <time>2022-06-06T11:24:09Z</time>
      </trkpt>
      <trkpt lat="44.87864" lon="3.73909">
        <ele>992</ele>
        <time>2022-06-06T11:24:12Z</time>
      </trkpt>
      <trkpt lat="44.87841" lon="3.73916">
        <ele>988</ele>
        <time>2022-06-06T11:24:16Z</time>
      </trkpt>
      <trkpt lat="44.87734" lon="3.73876">
        <ele>985</ele>
        <time>2022-06-06T11:24:36Z</time>
      </trkpt>
      <trkpt lat="44.87678" lon="3.73864">
        <ele>992</ele>
        <time>2022-06-06T11:24:46Z</time>
      </trkpt>
      <trkpt lat="44.87625" lon="3.73794">
        <ele>989</ele>
        <time>2022-06-06T11:24:59Z</time>
      </trkpt>
      <trkpt lat="44.87558" lon="3.7374">
        <ele>994</ele>
        <time>2022-06-06T11:25:13Z</time>
      </trkpt>
      <trkpt lat="44.87497" lon="3.73667">
        <ele>992</ele>
        <time>2022-06-06T11:25:27Z</time>
      </trkpt>
      <trkpt lat="44.87415" lon="3.73542">
        <ele>992</ele>
        <time>2022-06-06T11:25:48Z</time>
      </trkpt>
      <trkpt lat="44.87388" lon="3.73524">
        <ele>991</ele>
        <time>2022-06-06T11:25:54Z</time>
      </trkpt>
      <trkpt lat="44.87357" lon="3.73518">
        <ele>992</ele>
        <time>2022-06-06T11:25:59Z</time>
      </trkpt>
      <trkpt lat="44.87344" lon="3.73525">
        <ele>994</ele>
        <time>2022-06-06T11:26:02Z</time>
      </trkpt>
      <trkpt lat="44.87337" lon="3.73532">
        <ele>995</ele>
        <time>2022-06-06T11:26:03Z</time>
      </trkpt>
      <trkpt lat="44.87316" lon="3.73565">
        <ele>996</ele>
        <time>2022-06-06T11:26:09Z</time>
      </trkpt>
      <trkpt lat="44.87311" lon="3.736">
        <ele>997</ele>
        <time>2022-06-06T11:26:13Z</time>
      </trkpt>
      <trkpt lat="44.87323" lon="3.73657">
        <ele>1000</ele>
        <time>2022-06-06T11:26:21Z</time>
      </trkpt>
      <trkpt lat="44.87335" lon="3.73729">
        <ele>1005</ele>
        <time>2022-06-06T11:26:30Z</time>
      </trkpt>
      <trkpt lat="44.87333" lon="3.73789">
        <ele>1009</ele>
        <time>2022-06-06T11:26:38Z</time>
      </trkpt>
      <trkpt lat="44.87327" lon="3.73906">
        <ele>1015</ele>
        <time>2022-06-06T11:26:53Z</time>
      </trkpt>
      <trkpt lat="44.87327" lon="3.73948">
        <ele>1015</ele>
        <time>2022-06-06T11:26:58Z</time>
      </trkpt>
      <trkpt lat="44.87336" lon="3.73964">
        <ele>1016</ele>
        <time>2022-06-06T11:27:00Z</time>
      </trkpt>
      <trkpt lat="44.87357" lon="3.73998">
        <ele>1021</ele>
        <time>2022-06-06T11:27:06Z</time>
      </trkpt>
      <trkpt lat="44.87363" lon="3.74022">
        <ele>1023</ele>
        <time>2022-06-06T11:27:09Z</time>
      </trkpt>
      <trkpt lat="44.87365" lon="3.74068">
        <ele>1024</ele>
        <time>2022-06-06T11:27:15Z</time>
      </trkpt>
      <trkpt lat="44.87372" lon="3.74099">
        <ele>1027</ele>
        <time>2022-06-06T11:27:19Z</time>
      </trkpt>
      <trkpt lat="44.87394" lon="3.74159">
        <ele>1032</ele>
        <time>2022-06-06T11:27:28Z</time>
      </trkpt>
      <trkpt lat="44.87394" lon="3.74189">
        <ele>1034</ele>
        <time>2022-06-06T11:27:32Z</time>
      </trkpt>
      <trkpt lat="44.87382" lon="3.74213">
        <ele>1035</ele>
        <time>2022-06-06T11:27:35Z</time>
      </trkpt>
      <trkpt lat="44.8735" lon="3.74247">
        <ele>1037</ele>
        <time>2022-06-06T11:27:42Z</time>
      </trkpt>
      <trkpt lat="44.87331" lon="3.74251">
        <ele>1037</ele>
        <time>2022-06-06T11:27:46Z</time>
      </trkpt>
      <trkpt lat="44.87266" lon="3.74218">
        <ele>1038</ele>
        <time>2022-06-06T11:27:58Z</time>
      </trkpt>
      <trkpt lat="44.87175" lon="3.74218">
        <ele>1051</ele>
        <time>2022-06-06T11:28:14Z</time>
      </trkpt>
      <trkpt lat="44.87138" lon="3.74198">
        <ele>1052</ele>
        <time>2022-06-06T11:28:21Z</time>
      </trkpt>
      <trkpt lat="44.87118" lon="3.74208">
        <ele>1055</ele>
        <time>2022-06-06T11:28:25Z</time>
      </trkpt>
      <trkpt lat="44.87116" lon="3.74239">
        <ele>1059</ele>
        <time>2022-06-06T11:28:29Z</time>
      </trkpt>
      <trkpt lat="44.87177" lon="3.74331">
        <ele>1061</ele>
        <time>2022-06-06T11:28:45Z</time>
      </trkpt>
      <trkpt lat="44.87216" lon="3.74431">
        <ele>1065</ele>
        <time>2022-06-06T11:28:59Z</time>
      </trkpt>
      <trkpt lat="44.87246" lon="3.74499">
        <ele>1070</ele>
        <time>2022-06-06T11:29:09Z</time>
      </trkpt>
      <trkpt lat="44.87331" lon="3.74576">
        <ele>1072</ele>
        <time>2022-06-06T11:29:27Z</time>
      </trkpt>
      <trkpt lat="44.87363" lon="3.74593">
        <ele>1074</ele>
        <time>2022-06-06T11:29:33Z</time>
      </trkpt>
      <trkpt lat="44.87372" lon="3.74615">
        <ele>1077</ele>
        <time>2022-06-06T11:29:37Z</time>
      </trkpt>
      <trkpt lat="44.87368" lon="3.74635">
        <ele>1079</ele>
        <time>2022-06-06T11:29:39Z</time>
      </trkpt>
      <trkpt lat="44.87354" lon="3.74652">
        <ele>1080</ele>
        <time>2022-06-06T11:29:43Z</time>
      </trkpt>
      <trkpt lat="44.87318" lon="3.74666">
        <ele>1081</ele>
        <time>2022-06-06T11:29:49Z</time>
      </trkpt>
      <trkpt lat="44.87166" lon="3.7471">
        <ele>1093</ele>
        <time>2022-06-06T11:30:17Z</time>
      </trkpt>
      <trkpt lat="44.87107" lon="3.74773">
        <ele>1094</ele>
        <time>2022-06-06T11:30:30Z</time>
      </trkpt>
      <trkpt lat="44.87082" lon="3.74826">
        <ele>1093</ele>
        <time>2022-06-06T11:30:38Z</time>
      </trkpt>
      <trkpt lat="44.87064" lon="3.74883">
        <ele>1090</ele>
        <time>2022-06-06T11:30:46Z</time>
      </trkpt>
      <trkpt lat="44.87054" lon="3.74943">
        <ele>1090</ele>
        <time>2022-06-06T11:30:54Z</time>
      </trkpt>
      <trkpt lat="44.87048" lon="3.74982">
        <ele>1090</ele>
        <time>2022-06-06T11:30:59Z</time>
      </trkpt>
      <trkpt lat="44.87044" lon="3.75076">
        <ele>1093</ele>
        <time>2022-06-06T11:31:11Z</time>
      </trkpt>
      <trkpt lat="44.87026" lon="3.75207">
        <ele>1095</ele>
        <time>2022-06-06T11:31:27Z</time>
      </trkpt>
      <trkpt lat="44.87022" lon="3.75257">
        <ele>1094</ele>
        <time>2022-06-06T11:31:34Z</time>
      </trkpt>
      <trkpt lat="44.87017" lon="3.75275">
        <ele>1093</ele>
        <time>2022-06-06T11:31:36Z</time>
      </trkpt>
      <trkpt lat="44.86999" lon="3.75298">
        <ele>1091</ele>
        <time>2022-06-06T11:31:40Z</time>
      </trkpt>
      <trkpt lat="44.86978" lon="3.75315">
        <ele>1093</ele>
        <time>2022-06-06T11:31:45Z</time>
      </trkpt>
      <trkpt lat="44.86967" lon="3.75318">
        <ele>1094</ele>
        <time>2022-06-06T11:31:47Z</time>
      </trkpt>
      <trkpt lat="44.86954" lon="3.75309">
        <ele>1095</ele>
        <time>2022-06-06T11:31:49Z</time>
      </trkpt>
      <trkpt lat="44.86925" lon="3.7527">
        <ele>1094</ele>
        <time>2022-06-06T11:31:56Z</time>
      </trkpt>
      <trkpt lat="44.86864" lon="3.75219">
        <ele>1098</ele>
        <time>2022-06-06T11:32:09Z</time>
      </trkpt>
      <trkpt lat="44.86848" lon="3.75217">
        <ele>1100</ele>
        <time>2022-06-06T11:32:12Z</time>
      </trkpt>
      <trkpt lat="44.86833" lon="3.75221">
        <ele>1102</ele>
        <time>2022-06-06T11:32:15Z</time>
      </trkpt>
      <trkpt lat="44.86828" lon="3.75222">
        <ele>1102</ele>
        <time>2022-06-06T11:32:16Z</time>
      </trkpt>
      <trkpt lat="44.86814" lon="3.75236">
        <ele>1102</ele>
        <time>2022-06-06T11:32:19Z</time>
      </trkpt>
      <trkpt lat="44.86794" lon="3.75265">
        <ele>1103</ele>
        <time>2022-06-06T11:32:24Z</time>
      </trkpt>
      <trkpt lat="44.86785" lon="3.75275">
        <ele>1103</ele>
        <time>2022-06-06T11:32:26Z</time>
      </trkpt>
      <trkpt lat="44.86646" lon="3.75442">
        <ele>1108</ele>
        <time>2022-06-06T11:32:58Z</time>
      </trkpt>
      <trkpt lat="44.86606" lon="3.75492">
        <ele>1110</ele>
        <time>2022-06-06T11:33:08Z</time>
      </trkpt>
      <trkpt lat="44.86566" lon="3.75531">
        <ele>1110</ele>
        <time>2022-06-06T11:33:16Z</time>
      </trkpt>
      <trkpt lat="44.86386" lon="3.75685">
        <ele>1105</ele>
        <time>2022-06-06T11:33:54Z</time>
      </trkpt>
      <trkpt lat="44.86366" lon="3.75697">
        <ele>1105</ele>
        <time>2022-06-06T11:33:58Z</time>
      </trkpt>
      <trkpt lat="44.8635" lon="3.75697">
        <ele>1104</ele>
        <time>2022-06-06T11:34:01Z</time>
      </trkpt>
      <trkpt lat="44.86308" lon="3.75691">
        <ele>1102</ele>
        <time>2022-06-06T11:34:08Z</time>
      </trkpt>
      <trkpt lat="44.86294" lon="3.75694">
        <ele>1102</ele>
        <time>2022-06-06T11:34:11Z</time>
      </trkpt>
      <trkpt lat="44.86211" lon="3.75742">
        <ele>1097</ele>
        <time>2022-06-06T11:34:27Z</time>
      </trkpt>
      <trkpt lat="44.86197" lon="3.75754">
        <ele>1096</ele>
        <time>2022-06-06T11:34:29Z</time>
      </trkpt>
      <trkpt lat="44.86118" lon="3.75771">
        <ele>1088</ele>
        <time>2022-06-06T11:34:44Z</time>
      </trkpt>
      <trkpt lat="44.85852" lon="3.75788">
        <ele>1065</ele>
        <time>2022-06-06T11:35:31Z</time>
      </trkpt>
      <trkpt lat="44.85819" lon="3.7578">
        <ele>1062</ele>
        <time>2022-06-06T11:35:37Z</time>
      </trkpt>
      <trkpt lat="44.85754" lon="3.75748">
        <ele>1057</ele>
        <time>2022-06-06T11:35:49Z</time>
      </trkpt>
      <trkpt lat="44.85726" lon="3.75736">
        <ele>1055</ele>
        <time>2022-06-06T11:35:54Z</time>
      </trkpt>
      <trkpt lat="44.85664" lon="3.75716">
        <ele>1052</ele>
        <time>2022-06-06T11:36:06Z</time>
      </trkpt>
      <trkpt lat="44.85532" lon="3.75665">
        <ele>1040</ele>
        <time>2022-06-06T11:36:30Z</time>
      </trkpt>
      <trkpt lat="44.85243" lon="3.75562">
        <ele>1015</ele>
        <time>2022-06-06T11:37:23Z</time>
      </trkpt>
      <trkpt lat="44.85202" lon="3.75555">
        <ele>1012</ele>
        <time>2022-06-06T11:37:31Z</time>
      </trkpt>
      <trkpt lat="44.85169" lon="3.75555">
        <ele>1010</ele>
        <time>2022-06-06T11:37:36Z</time>
      </trkpt>
      <trkpt lat="44.85138" lon="3.75569">
        <ele>1007</ele>
        <time>2022-06-06T11:37:42Z</time>
      </trkpt>
      <trkpt lat="44.84977" lon="3.75701">
        <ele>1002</ele>
        <time>2022-06-06T11:38:15Z</time>
      </trkpt>
      <trkpt lat="44.84959" lon="3.75719">
        <ele>1001</ele>
        <time>2022-06-06T11:38:19Z</time>
      </trkpt>
      <trkpt lat="44.84955" lon="3.75729">
        <ele>1001</ele>
        <time>2022-06-06T11:38:21Z</time>
      </trkpt>
      <trkpt lat="44.8497" lon="3.7575">
        <ele>1003</ele>
        <time>2022-06-06T11:38:24Z</time>
      </trkpt>
      <trkpt lat="44.84955" lon="3.75729">
        <ele>1001</ele>
        <time>2022-06-06T11:38:28Z</time>
      </trkpt>
      <trkpt lat="44.84945" lon="3.75748">
        <ele>1000</ele>
        <time>2022-06-06T11:38:31Z</time>
      </trkpt>
      <trkpt lat="44.84938" lon="3.75778">
        <ele>998</ele>
        <time>2022-06-06T11:38:35Z</time>
      </trkpt>
      <trkpt lat="44.84938" lon="3.7582">
        <ele>998</ele>
        <time>2022-06-06T11:38:40Z</time>
      </trkpt>
      <trkpt lat="44.84945" lon="3.75924">
        <ele>996</ele>
        <time>2022-06-06T11:38:54Z</time>
      </trkpt>
      <trkpt lat="44.84945" lon="3.75978">
        <ele>993</ele>
        <time>2022-06-06T11:39:00Z</time>
      </trkpt>
      <trkpt lat="44.8495" lon="3.76014">
        <ele>994</ele>
        <time>2022-06-06T11:39:05Z</time>
      </trkpt>
      <trkpt lat="44.8494" lon="3.76033">
        <ele>994</ele>
        <time>2022-06-06T11:39:08Z</time>
      </trkpt>
      <trkpt lat="44.84917" lon="3.76042">
        <ele>994</ele>
        <time>2022-06-06T11:39:12Z</time>
      </trkpt>
      <trkpt lat="44.84901" lon="3.76042">
        <ele>997</ele>
        <time>2022-06-06T11:39:15Z</time>
      </trkpt>
      <trkpt lat="44.84887" lon="3.76034">
        <ele>998</ele>
        <time>2022-06-06T11:39:18Z</time>
      </trkpt>
      <trkpt lat="44.84862" lon="3.76004">
        <ele>998</ele>
        <time>2022-06-06T11:39:24Z</time>
      </trkpt>
      <trkpt lat="44.84848" lon="3.75974">
        <ele>996</ele>
        <time>2022-06-06T11:39:28Z</time>
      </trkpt>
      <trkpt lat="44.84797" lon="3.75852">
        <ele>988</ele>
        <time>2022-06-06T11:39:46Z</time>
      </trkpt>
      <trkpt lat="44.84788" lon="3.75835">
        <ele>987</ele>
        <time>2022-06-06T11:39:49Z</time>
      </trkpt>
      <trkpt lat="44.84761" lon="3.75807">
        <ele>991</ele>
        <time>2022-06-06T11:39:55Z</time>
      </trkpt>
      <trkpt lat="44.84744" lon="3.75778">
        <ele>992</ele>
        <time>2022-06-06T11:39:59Z</time>
      </trkpt>
      <trkpt lat="44.84733" lon="3.75772">
        <ele>993</ele>
        <time>2022-06-06T11:40:02Z</time>
      </trkpt>
      <trkpt lat="44.8472" lon="3.75773">
        <ele>994</ele>
        <time>2022-06-06T11:40:04Z</time>
      </trkpt>
      <trkpt lat="44.84712" lon="3.7578">
        <ele>995</ele>
        <time>2022-06-06T11:40:06Z</time>
      </trkpt>
      <trkpt lat="44.84701" lon="3.75794">
        <ele>997</ele>
        <time>2022-06-06T11:40:08Z</time>
      </trkpt>
      <trkpt lat="44.84671" lon="3.75863">
        <ele>1004</ele>
        <time>2022-06-06T11:40:18Z</time>
      </trkpt>
      <trkpt lat="44.84657" lon="3.75884">
        <ele>1004</ele>
        <time>2022-06-06T11:40:22Z</time>
      </trkpt>
      <trkpt lat="44.8462" lon="3.75918">
        <ele>1005</ele>
        <time>2022-06-06T11:40:30Z</time>
      </trkpt>
      <trkpt lat="44.84604" lon="3.75946">
        <ele>1006</ele>
        <time>2022-06-06T11:40:34Z</time>
      </trkpt>
      <trkpt lat="44.84534" lon="3.76084">
        <ele>1011</ele>
        <time>2022-06-06T11:40:56Z</time>
      </trkpt>
      <trkpt lat="44.84509" lon="3.76139">
        <ele>1015</ele>
        <time>2022-06-06T11:41:04Z</time>
      </trkpt>
      <trkpt lat="44.84495" lon="3.76165">
        <ele>1017</ele>
        <time>2022-06-06T11:41:08Z</time>
      </trkpt>
      <trkpt lat="44.84459" lon="3.76203">
        <ele>1018</ele>
        <time>2022-06-06T11:41:16Z</time>
      </trkpt>
      <trkpt lat="44.84448" lon="3.76231">
        <ele>1018</ele>
        <time>2022-06-06T11:41:20Z</time>
      </trkpt>
      <trkpt lat="44.84442" lon="3.76294">
        <ele>1020</ele>
        <time>2022-06-06T11:41:28Z</time>
      </trkpt>
      <trkpt lat="44.8443" lon="3.76459">
        <ele>1025</ele>
        <time>2022-06-06T11:41:49Z</time>
      </trkpt>
      <trkpt lat="44.84361" lon="3.76729">
        <ele>1035</ele>
        <time>2022-06-06T11:42:25Z</time>
      </trkpt>
      <trkpt lat="44.84356" lon="3.76767">
        <ele>1037</ele>
        <time>2022-06-06T11:42:30Z</time>
      </trkpt>
      <trkpt lat="44.8435" lon="3.76835">
        <ele>1040</ele>
        <time>2022-06-06T11:42:39Z</time>
      </trkpt>
      <trkpt lat="44.84346" lon="3.77008">
        <ele>1050</ele>
        <time>2022-06-06T11:43:01Z</time>
      </trkpt>
      <trkpt lat="44.84343" lon="3.77036">
        <ele>1052</ele>
        <time>2022-06-06T11:43:04Z</time>
      </trkpt>
      <trkpt lat="44.84291" lon="3.77218">
        <ele>1052</ele>
        <time>2022-06-06T11:43:29Z</time>
      </trkpt>
      <trkpt lat="44.8429" lon="3.7724">
        <ele>1052</ele>
        <time>2022-06-06T11:43:32Z</time>
      </trkpt>
      <trkpt lat="44.84292" lon="3.77255">
        <ele>1052</ele>
        <time>2022-06-06T11:43:34Z</time>
      </trkpt>
      <trkpt lat="44.84299" lon="3.77269">
        <ele>1052</ele>
        <time>2022-06-06T11:43:36Z</time>
      </trkpt>
      <trkpt lat="44.8431" lon="3.77279">
        <ele>1053</ele>
        <time>2022-06-06T11:43:38Z</time>
      </trkpt>
      <trkpt lat="44.84345" lon="3.7729">
        <ele>1057</ele>
        <time>2022-06-06T11:43:45Z</time>
      </trkpt>
      <trkpt lat="44.84361" lon="3.77298">
        <ele>1057</ele>
        <time>2022-06-06T11:43:48Z</time>
      </trkpt>
      <trkpt lat="44.84411" lon="3.77328">
        <ele>1061</ele>
        <time>2022-06-06T11:43:57Z</time>
      </trkpt>
      <trkpt lat="44.84434" lon="3.77351">
        <ele>1063</ele>
        <time>2022-06-06T11:44:02Z</time>
      </trkpt>
      <trkpt lat="44.84446" lon="3.77379">
        <ele>1063</ele>
        <time>2022-06-06T11:44:07Z</time>
      </trkpt>
      <trkpt lat="44.84449" lon="3.77415">
        <ele>1060</ele>
        <time>2022-06-06T11:44:11Z</time>
      </trkpt>
      <trkpt lat="44.84448" lon="3.77456">
        <ele>1061</ele>
        <time>2022-06-06T11:44:16Z</time>
      </trkpt>
      <trkpt lat="44.84444" lon="3.77476">
        <ele>1060</ele>
        <time>2022-06-06T11:44:19Z</time>
      </trkpt>
      <trkpt lat="44.84435" lon="3.77494">
        <ele>1059</ele>
        <time>2022-06-06T11:44:22Z</time>
      </trkpt>
      <trkpt lat="44.84372" lon="3.77604">
        <ele>1058</ele>
        <time>2022-06-06T11:44:39Z</time>
      </trkpt>
      <trkpt lat="44.84356" lon="3.77642">
        <ele>1058</ele>
        <time>2022-06-06T11:44:45Z</time>
      </trkpt>
      <trkpt lat="44.84343" lon="3.77685">
        <ele>1058</ele>
        <time>2022-06-06T11:44:51Z</time>
      </trkpt>
      <trkpt lat="44.84339" lon="3.77712">
        <ele>1058</ele>
        <time>2022-06-06T11:44:54Z</time>
      </trkpt>
      <trkpt lat="44.84336" lon="3.77845">
        <ele>1057</ele>
        <time>2022-06-06T11:45:11Z</time>
      </trkpt>
      <trkpt lat="44.8433" lon="3.77873">
        <ele>1057</ele>
        <time>2022-06-06T11:45:15Z</time>
      </trkpt>
      <trkpt lat="44.84316" lon="3.77907">
        <ele>1055</ele>
        <time>2022-06-06T11:45:20Z</time>
      </trkpt>
      <trkpt lat="44.84309" lon="3.77933">
        <ele>1055</ele>
        <time>2022-06-06T11:45:23Z</time>
      </trkpt>
      <trkpt lat="44.84307" lon="3.77963">
        <ele>1055</ele>
        <time>2022-06-06T11:45:27Z</time>
      </trkpt>
      <trkpt lat="44.84312" lon="3.77993">
        <ele>1058</ele>
        <time>2022-06-06T11:45:31Z</time>
      </trkpt>
      <trkpt lat="44.84324" lon="3.78039">
        <ele>1061</ele>
        <time>2022-06-06T11:45:37Z</time>
      </trkpt>
      <trkpt lat="44.84326" lon="3.78067">
        <ele>1061</ele>
        <time>2022-06-06T11:45:41Z</time>
      </trkpt>
      <trkpt lat="44.84321" lon="3.78087">
        <ele>1061</ele>
        <time>2022-06-06T11:45:43Z</time>
      </trkpt>
      <trkpt lat="44.84314" lon="3.78096">
        <ele>1060</ele>
        <time>2022-06-06T11:45:45Z</time>
      </trkpt>
      <trkpt lat="44.84271" lon="3.78137">
        <ele>1057</ele>
        <time>2022-06-06T11:45:54Z</time>
      </trkpt>
      <trkpt lat="44.84264" lon="3.78148">
        <ele>1056</ele>
        <time>2022-06-06T11:45:56Z</time>
      </trkpt>
      <trkpt lat="44.84261" lon="3.7816">
        <ele>1056</ele>
        <time>2022-06-06T11:45:58Z</time>
      </trkpt>
      <trkpt lat="44.84264" lon="3.78184">
        <ele>1055</ele>
        <time>2022-06-06T11:46:01Z</time>
      </trkpt>
      <trkpt lat="44.8431" lon="3.78269">
        <ele>1059</ele>
        <time>2022-06-06T11:46:14Z</time>
      </trkpt>
      <trkpt lat="44.84319" lon="3.78295">
        <ele>1061</ele>
        <time>2022-06-06T11:46:18Z</time>
      </trkpt>
      <trkpt lat="44.84322" lon="3.78322">
        <ele>1061</ele>
        <time>2022-06-06T11:46:22Z</time>
      </trkpt>
      <trkpt lat="44.84309" lon="3.78421">
        <ele>1058</ele>
        <time>2022-06-06T11:46:34Z</time>
      </trkpt>
      <trkpt lat="44.84302" lon="3.78442">
        <ele>1057</ele>
        <time>2022-06-06T11:46:37Z</time>
      </trkpt>
      <trkpt lat="44.84291" lon="3.78456">
        <ele>1056</ele>
        <time>2022-06-06T11:46:40Z</time>
      </trkpt>
      <trkpt lat="44.84277" lon="3.78462">
        <ele>1056</ele>
        <time>2022-06-06T11:46:42Z</time>
      </trkpt>
      <trkpt lat="44.84263" lon="3.7846">
        <ele>1055</ele>
        <time>2022-06-06T11:46:45Z</time>
      </trkpt>
      <trkpt lat="44.8425" lon="3.78447">
        <ele>1053</ele>
        <time>2022-06-06T11:46:48Z</time>
      </trkpt>
      <trkpt lat="44.84229" lon="3.78399">
        <ele>1051</ele>
        <time>2022-06-06T11:46:55Z</time>
      </trkpt>
      <trkpt lat="44.84217" lon="3.78384">
        <ele>1051</ele>
        <time>2022-06-06T11:46:58Z</time>
      </trkpt>
      <trkpt lat="44.8413" lon="3.78326">
        <ele>1053</ele>
        <time>2022-06-06T11:47:15Z</time>
      </trkpt>
      <trkpt lat="44.84073" lon="3.783">
        <ele>1056</ele>
        <time>2022-06-06T11:47:26Z</time>
      </trkpt>
      <trkpt lat="44.84047" lon="3.78289">
        <ele>1056</ele>
        <time>2022-06-06T11:47:30Z</time>
      </trkpt>
      <trkpt lat="44.84011" lon="3.7828">
        <ele>1057</ele>
        <time>2022-06-06T11:47:37Z</time>
      </trkpt>
      <trkpt lat="44.83943" lon="3.78271">
        <ele>1057</ele>
        <time>2022-06-06T11:47:49Z</time>
      </trkpt>
      <trkpt lat="44.83919" lon="3.7827">
        <ele>1057</ele>
        <time>2022-06-06T11:47:53Z</time>
      </trkpt>
      <trkpt lat="44.83897" lon="3.78278">
        <ele>1057</ele>
        <time>2022-06-06T11:47:57Z</time>
      </trkpt>
      <trkpt lat="44.83819" lon="3.78333">
        <ele>1054</ele>
        <time>2022-06-06T11:48:13Z</time>
      </trkpt>
      <trkpt lat="44.83669" lon="3.78426">
        <ele>1049</ele>
        <time>2022-06-06T11:48:42Z</time>
      </trkpt>
      <trkpt lat="44.83639" lon="3.78448">
        <ele>1048</ele>
        <time>2022-06-06T11:48:48Z</time>
      </trkpt>
      <trkpt lat="44.83603" lon="3.78483">
        <ele>1048</ele>
        <time>2022-06-06T11:48:56Z</time>
      </trkpt>
      <trkpt lat="44.83577" lon="3.78513">
        <ele>1047</ele>
        <time>2022-06-06T11:49:02Z</time>
      </trkpt>
      <trkpt lat="44.83528" lon="3.78607">
        <ele>1040</ele>
        <time>2022-06-06T11:49:16Z</time>
      </trkpt>
      <trkpt lat="44.83492" lon="3.78657">
        <ele>1038</ele>
        <time>2022-06-06T11:49:25Z</time>
      </trkpt>
      <trkpt lat="44.83431" lon="3.78723">
        <ele>1044</ele>
        <time>2022-06-06T11:49:39Z</time>
      </trkpt>
      <trkpt lat="44.8338" lon="3.78769">
        <ele>1045</ele>
        <time>2022-06-06T11:49:50Z</time>
      </trkpt>
      <trkpt lat="44.83356" lon="3.78778">
        <ele>1045</ele>
        <time>2022-06-06T11:49:54Z</time>
      </trkpt>
      <trkpt lat="44.833" lon="3.78777">
        <ele>1044</ele>
        <time>2022-06-06T11:50:04Z</time>
      </trkpt>
      <trkpt lat="44.83278" lon="3.78783">
        <ele>1044</ele>
        <time>2022-06-06T11:50:08Z</time>
      </trkpt>
      <trkpt lat="44.83237" lon="3.7882">
        <ele>1044</ele>
        <time>2022-06-06T11:50:17Z</time>
      </trkpt>
      <trkpt lat="44.83224" lon="3.78839">
        <ele>1044</ele>
        <time>2022-06-06T11:50:20Z</time>
      </trkpt>
      <trkpt lat="44.83197" lon="3.78907">
        <ele>1045</ele>
        <time>2022-06-06T11:50:30Z</time>
      </trkpt>
      <trkpt lat="44.83184" lon="3.78952">
        <ele>1045</ele>
        <time>2022-06-06T11:50:36Z</time>
      </trkpt>
      <trkpt lat="44.83181" lon="3.78983">
        <ele>1045</ele>
        <time>2022-06-06T11:50:40Z</time>
      </trkpt>
      <trkpt lat="44.83179" lon="3.79045">
        <ele>1046</ele>
        <time>2022-06-06T11:50:48Z</time>
      </trkpt>
      <trkpt lat="44.83176" lon="3.79068">
        <ele>1047</ele>
        <time>2022-06-06T11:50:51Z</time>
      </trkpt>
      <trkpt lat="44.83168" lon="3.7909">
        <ele>1046</ele>
        <time>2022-06-06T11:50:54Z</time>
      </trkpt>
      <trkpt lat="44.83129" lon="3.7916">
        <ele>1041</ele>
        <time>2022-06-06T11:51:05Z</time>
      </trkpt>
      <trkpt lat="44.83096" lon="3.79198">
        <ele>1039</ele>
        <time>2022-06-06T11:51:13Z</time>
      </trkpt>
      <trkpt lat="44.83047" lon="3.79233">
        <ele>1036</ele>
        <time>2022-06-06T11:51:23Z</time>
      </trkpt>
      <trkpt lat="44.82902" lon="3.79384">
        <ele>1026</ele>
        <time>2022-06-06T11:51:55Z</time>
      </trkpt>
      <trkpt lat="44.82877" lon="3.79415">
        <ele>1025</ele>
        <time>2022-06-06T11:52:01Z</time>
      </trkpt>
      <trkpt lat="44.82803" lon="3.7952">
        <ele>1023</ele>
        <time>2022-06-06T11:52:19Z</time>
      </trkpt>
      <trkpt lat="44.82786" lon="3.79538">
        <ele>1022</ele>
        <time>2022-06-06T11:52:23Z</time>
      </trkpt>
      <trkpt lat="44.82704" lon="3.79609">
        <ele>1014</ele>
        <time>2022-06-06T11:52:40Z</time>
      </trkpt>
      <trkpt lat="44.82697" lon="3.79629">
        <ele>1013</ele>
        <time>2022-06-06T11:52:43Z</time>
      </trkpt>
      <trkpt lat="44.82699" lon="3.79652">
        <ele>1012</ele>
        <time>2022-06-06T11:52:46Z</time>
      </trkpt>
      <trkpt lat="44.82711" lon="3.79671">
        <ele>1012</ele>
        <time>2022-06-06T11:52:49Z</time>
      </trkpt>
      <trkpt lat="44.82775" lon="3.79715">
        <ele>1015</ele>
        <time>2022-06-06T11:53:02Z</time>
      </trkpt>
      <trkpt lat="44.82782" lon="3.79728">
        <ele>1015</ele>
        <time>2022-06-06T11:53:04Z</time>
      </trkpt>
      <trkpt lat="44.82788" lon="3.79751">
        <ele>1014</ele>
        <time>2022-06-06T11:53:07Z</time>
      </trkpt>
      <trkpt lat="44.82788" lon="3.79774">
        <ele>1015</ele>
        <time>2022-06-06T11:53:10Z</time>
      </trkpt>
      <trkpt lat="44.82782" lon="3.79788">
        <ele>1015</ele>
        <time>2022-06-06T11:53:12Z</time>
      </trkpt>
      <trkpt lat="44.82775" lon="3.79794">
        <ele>1015</ele>
        <time>2022-06-06T11:53:13Z</time>
      </trkpt>
      <trkpt lat="44.82757" lon="3.798">
        <ele>1014</ele>
        <time>2022-06-06T11:53:17Z</time>
      </trkpt>
      <trkpt lat="44.8274" lon="3.798">
        <ele>1012</ele>
        <time>2022-06-06T11:53:20Z</time>
      </trkpt>
      <trkpt lat="44.82731" lon="3.79804">
        <ele>1011</ele>
        <time>2022-06-06T11:53:21Z</time>
      </trkpt>
      <trkpt lat="44.82725" lon="3.7981">
        <ele>1011</ele>
        <time>2022-06-06T11:53:23Z</time>
      </trkpt>
      <trkpt lat="44.82711" lon="3.79802">
        <ele>1009</ele>
        <time>2022-06-06T11:53:25Z</time>
      </trkpt>
      <trkpt lat="44.82702" lon="3.79805">
        <ele>1008</ele>
        <time>2022-06-06T11:53:27Z</time>
      </trkpt>
      <trkpt lat="44.82699" lon="3.7981">
        <ele>1008</ele>
        <time>2022-06-06T11:53:28Z</time>
      </trkpt>
      <trkpt lat="44.82695" lon="3.79822">
        <ele>1007</ele>
        <time>2022-06-06T11:53:30Z</time>
      </trkpt>
      <trkpt lat="44.82696" lon="3.79834">
        <ele>1007</ele>
        <time>2022-06-06T11:53:31Z</time>
      </trkpt>
      <trkpt lat="44.82702" lon="3.79852">
        <ele>1007</ele>
        <time>2022-06-06T11:53:34Z</time>
      </trkpt>
      <trkpt lat="44.82738" lon="3.79918">
        <ele>1009</ele>
        <time>2022-06-06T11:53:44Z</time>
      </trkpt>
      <trkpt lat="44.82748" lon="3.7994">
        <ele>1011</ele>
        <time>2022-06-06T11:53:47Z</time>
      </trkpt>
      <trkpt lat="44.82752" lon="3.79968">
        <ele>1011</ele>
        <time>2022-06-06T11:53:51Z</time>
      </trkpt>
      <trkpt lat="44.82748" lon="3.79989">
        <ele>1010</ele>
        <time>2022-06-06T11:53:54Z</time>
      </trkpt>
      <trkpt lat="44.82741" lon="3.80001">
        <ele>1011</ele>
        <time>2022-06-06T11:53:56Z</time>
      </trkpt>
      <trkpt lat="44.82728" lon="3.80006">
        <ele>1012</ele>
        <time>2022-06-06T11:53:58Z</time>
      </trkpt>
      <trkpt lat="44.82709" lon="3.8">
        <ele>1012</ele>
        <time>2022-06-06T11:54:02Z</time>
      </trkpt>
      <trkpt lat="44.82692" lon="3.79991">
        <ele>1012</ele>
        <time>2022-06-06T11:54:05Z</time>
      </trkpt>
      <trkpt lat="44.82659" lon="3.79991">
        <ele>1013</ele>
        <time>2022-06-06T11:54:11Z</time>
      </trkpt>
      <trkpt lat="44.82597" lon="3.79981">
        <ele>1007</ele>
        <time>2022-06-06T11:54:22Z</time>
      </trkpt>
      <trkpt lat="44.82585" lon="3.79992">
        <ele>1007</ele>
        <time>2022-06-06T11:54:24Z</time>
      </trkpt>
      <trkpt lat="44.82577" lon="3.8001">
        <ele>1009</ele>
        <time>2022-06-06T11:54:27Z</time>
      </trkpt>
      <trkpt lat="44.82571" lon="3.80076">
        <ele>1014</ele>
        <time>2022-06-06T11:54:35Z</time>
      </trkpt>
      <trkpt lat="44.82562" lon="3.80122">
        <ele>1018</ele>
        <time>2022-06-06T11:54:41Z</time>
      </trkpt>
      <trkpt lat="44.82547" lon="3.80156">
        <ele>1021</ele>
        <time>2022-06-06T11:54:47Z</time>
      </trkpt>
      <trkpt lat="44.82527" lon="3.80167">
        <ele>1021</ele>
        <time>2022-06-06T11:54:50Z</time>
      </trkpt>
      <trkpt lat="44.82503" lon="3.80168">
        <ele>1021</ele>
        <time>2022-06-06T11:54:55Z</time>
      </trkpt>
      <trkpt lat="44.82479" lon="3.80156">
        <ele>1019</ele>
        <time>2022-06-06T11:54:59Z</time>
      </trkpt>
      <trkpt lat="44.82466" lon="3.80145">
        <ele>1018</ele>
        <time>2022-06-06T11:55:02Z</time>
      </trkpt>
      <trkpt lat="44.82311" lon="3.79931">
        <ele>1008</ele>
        <time>2022-06-06T11:55:40Z</time>
      </trkpt>
      <trkpt lat="44.82229" lon="3.79827">
        <ele>1007</ele>
        <time>2022-06-06T11:56:00Z</time>
      </trkpt>
      <trkpt lat="44.82202" lon="3.79786">
        <ele>1007</ele>
        <time>2022-06-06T11:56:07Z</time>
      </trkpt>
      <trkpt lat="44.82163" lon="3.7972">
        <ele>1006</ele>
        <time>2022-06-06T11:56:18Z</time>
      </trkpt>
      <trkpt lat="44.82139" lon="3.7967">
        <ele>1003</ele>
        <time>2022-06-06T11:56:26Z</time>
      </trkpt>
      <trkpt lat="44.82109" lon="3.79619">
        <ele>1002</ele>
        <time>2022-06-06T11:56:34Z</time>
      </trkpt>
      <trkpt lat="44.82089" lon="3.79573">
        <ele>1001</ele>
        <time>2022-06-06T11:56:41Z</time>
      </trkpt>
      <trkpt lat="44.82038" lon="3.79436">
        <ele>996</ele>
        <time>2022-06-06T11:57:00Z</time>
      </trkpt>
      <trkpt lat="44.82021" lon="3.79383">
        <ele>994</ele>
        <time>2022-06-06T11:57:08Z</time>
      </trkpt>
      <trkpt lat="44.82007" lon="3.79324">
        <ele>992</ele>
        <time>2022-06-06T11:57:15Z</time>
      </trkpt>
      <trkpt lat="44.81996" lon="3.79293">
        <ele>991</ele>
        <time>2022-06-06T11:57:20Z</time>
      </trkpt>
      <trkpt lat="44.81973" lon="3.79243">
        <ele>990</ele>
        <time>2022-06-06T11:57:27Z</time>
      </trkpt>
      <trkpt lat="44.81892" lon="3.79118">
        <ele>986</ele>
        <time>2022-06-06T11:57:49Z</time>
      </trkpt>
      <trkpt lat="44.81874" lon="3.79098">
        <ele>985</ele>
        <time>2022-06-06T11:57:53Z</time>
      </trkpt>
      <trkpt lat="44.81863" lon="3.79093">
        <ele>984</ele>
        <time>2022-06-06T11:57:55Z</time>
      </trkpt>
      <trkpt lat="44.81851" lon="3.79095">
        <ele>984</ele>
        <time>2022-06-06T11:57:57Z</time>
      </trkpt>
      <trkpt lat="44.81834" lon="3.79106">
        <ele>983</ele>
        <time>2022-06-06T11:58:00Z</time>
      </trkpt>
      <trkpt lat="44.81779" lon="3.79156">
        <ele>980</ele>
        <time>2022-06-06T11:58:12Z</time>
      </trkpt>
      <trkpt lat="44.81769" lon="3.79156">
        <ele>979</ele>
        <time>2022-06-06T11:58:14Z</time>
      </trkpt>
      <trkpt lat="44.81722" lon="3.79115">
        <ele>974</ele>
        <time>2022-06-06T11:58:24Z</time>
      </trkpt>
      <trkpt lat="44.81697" lon="3.7909">
        <ele>972</ele>
        <time>2022-06-06T11:58:29Z</time>
      </trkpt>
      <trkpt lat="44.81676" lon="3.79054">
        <ele>969</ele>
        <time>2022-06-06T11:58:35Z</time>
      </trkpt>
      <trkpt lat="44.81629" lon="3.78979">
        <ele>965</ele>
        <time>2022-06-06T11:58:48Z</time>
      </trkpt>
      <trkpt lat="44.81602" lon="3.78942">
        <ele>962</ele>
        <time>2022-06-06T11:58:54Z</time>
      </trkpt>
      <trkpt lat="44.81564" lon="3.78907">
        <ele>959</ele>
        <time>2022-06-06T11:59:02Z</time>
      </trkpt>
      <trkpt lat="44.81514" lon="3.78871">
        <ele>954</ele>
        <time>2022-06-06T11:59:12Z</time>
      </trkpt>
      <trkpt lat="44.81483" lon="3.78857">
        <ele>952</ele>
        <time>2022-06-06T11:59:18Z</time>
      </trkpt>
      <trkpt lat="44.81448" lon="3.78843">
        <ele>950</ele>
        <time>2022-06-06T11:59:25Z</time>
      </trkpt>
      <trkpt lat="44.81404" lon="3.78835">
        <ele>948</ele>
        <time>2022-06-06T11:59:32Z</time>
      </trkpt>
      <trkpt lat="44.81177" lon="3.7881">
        <ele>929</ele>
        <time>2022-06-06T12:00:13Z</time>
      </trkpt>
      <trkpt lat="44.81161" lon="3.78801">
        <ele>928</ele>
        <time>2022-06-06T12:00:16Z</time>
      </trkpt>
      <trkpt lat="44.81141" lon="3.78774">
        <ele>928</ele>
        <time>2022-06-06T12:00:21Z</time>
      </trkpt>
      <trkpt lat="44.81056" lon="3.78654">
        <ele>924</ele>
        <time>2022-06-06T12:00:42Z</time>
      </trkpt>
      <trkpt lat="44.81047" lon="3.78649">
        <ele>923</ele>
        <time>2022-06-06T12:00:44Z</time>
      </trkpt>
      <trkpt lat="44.81039" lon="3.78652">
        <ele>921</ele>
        <time>2022-06-06T12:00:46Z</time>
      </trkpt>
      <trkpt lat="44.81037" lon="3.78663">
        <ele>919</ele>
        <time>2022-06-06T12:00:47Z</time>
      </trkpt>
      <trkpt lat="44.8104" lon="3.78678">
        <ele>919</ele>
        <time>2022-06-06T12:00:49Z</time>
      </trkpt>
      <trkpt lat="44.81058" lon="3.78714">
        <ele>919</ele>
        <time>2022-06-06T12:00:55Z</time>
      </trkpt>
      <trkpt lat="44.81073" lon="3.78753">
        <ele>918</ele>
        <time>2022-06-06T12:01:00Z</time>
      </trkpt>
      <trkpt lat="44.81079" lon="3.78782">
        <ele>917</ele>
        <time>2022-06-06T12:01:04Z</time>
      </trkpt>
      <trkpt lat="44.81077" lon="3.78798">
        <ele>916</ele>
        <time>2022-06-06T12:01:06Z</time>
      </trkpt>
      <trkpt lat="44.81068" lon="3.7881">
        <ele>914</ele>
        <time>2022-06-06T12:01:08Z</time>
      </trkpt>
      <trkpt lat="44.8105" lon="3.78816">
        <ele>913</ele>
        <time>2022-06-06T12:01:12Z</time>
      </trkpt>
      <trkpt lat="44.8102" lon="3.78817">
        <ele>910</ele>
        <time>2022-06-06T12:01:17Z</time>
      </trkpt>
      <trkpt lat="44.80991" lon="3.78814">
        <ele>910</ele>
        <time>2022-06-06T12:01:22Z</time>
      </trkpt>
      <trkpt lat="44.80974" lon="3.78808">
        <ele>912</ele>
        <time>2022-06-06T12:01:25Z</time>
      </trkpt>
      <trkpt lat="44.80941" lon="3.78778">
        <ele>915</ele>
        <time>2022-06-06T12:01:32Z</time>
      </trkpt>
      <trkpt lat="44.80909" lon="3.7873">
        <ele>917</ele>
        <time>2022-06-06T12:01:40Z</time>
      </trkpt>
      <trkpt lat="44.80886" lon="3.78687">
        <ele>917</ele>
        <time>2022-06-06T12:01:47Z</time>
      </trkpt>
      <trkpt lat="44.80876" lon="3.78662">
        <ele>918</ele>
        <time>2022-06-06T12:01:51Z</time>
      </trkpt>
      <trkpt lat="44.80851" lon="3.78567">
        <ele>919</ele>
        <time>2022-06-06T12:02:04Z</time>
      </trkpt>
      <trkpt lat="44.8084" lon="3.78535">
        <ele>919</ele>
        <time>2022-06-06T12:02:08Z</time>
      </trkpt>
      <trkpt lat="44.80826" lon="3.78513">
        <ele>920</ele>
        <time>2022-06-06T12:02:12Z</time>
      </trkpt>
      <trkpt lat="44.808" lon="3.7849">
        <ele>922</ele>
        <time>2022-06-06T12:02:17Z</time>
      </trkpt>
      <trkpt lat="44.80775" lon="3.78472">
        <ele>924</ele>
        <time>2022-06-06T12:02:22Z</time>
      </trkpt>
      <trkpt lat="44.8075" lon="3.78462">
        <ele>927</ele>
        <time>2022-06-06T12:02:27Z</time>
      </trkpt>
      <trkpt lat="44.80727" lon="3.78465">
        <ele>929</ele>
        <time>2022-06-06T12:02:31Z</time>
      </trkpt>
      <trkpt lat="44.80692" lon="3.78486">
        <ele>932</ele>
        <time>2022-06-06T12:02:38Z</time>
      </trkpt>
      <trkpt lat="44.80668" lon="3.78497">
        <ele>933</ele>
        <time>2022-06-06T12:02:42Z</time>
      </trkpt>
      <trkpt lat="44.80625" lon="3.78499">
        <ele>933</ele>
        <time>2022-06-06T12:02:50Z</time>
      </trkpt>
      <trkpt lat="44.80577" lon="3.7849">
        <ele>932</ele>
        <time>2022-06-06T12:02:59Z</time>
      </trkpt>
      <trkpt lat="44.8053" lon="3.78473">
        <ele>933</ele>
        <time>2022-06-06T12:03:07Z</time>
      </trkpt>
      <trkpt lat="44.80499" lon="3.78449">
        <ele>932</ele>
        <time>2022-06-06T12:03:14Z</time>
      </trkpt>
      <trkpt lat="44.80459" lon="3.78411">
        <ele>932</ele>
        <time>2022-06-06T12:03:22Z</time>
      </trkpt>
      <trkpt lat="44.80443" lon="3.78401">
        <ele>932</ele>
        <time>2022-06-06T12:03:25Z</time>
      </trkpt>
      <trkpt lat="44.80429" lon="3.78403">
        <ele>932</ele>
        <time>2022-06-06T12:03:28Z</time>
      </trkpt>
      <trkpt lat="44.80397" lon="3.78416">
        <ele>932</ele>
        <time>2022-06-06T12:03:34Z</time>
      </trkpt>
      <trkpt lat="44.80381" lon="3.78419">
        <ele>932</ele>
        <time>2022-06-06T12:03:37Z</time>
      </trkpt>
      <trkpt lat="44.80359" lon="3.78414">
        <ele>932</ele>
        <time>2022-06-06T12:03:40Z</time>
      </trkpt>
      <trkpt lat="44.80324" lon="3.784">
        <ele>932</ele>
        <time>2022-06-06T12:03:47Z</time>
      </trkpt>
      <trkpt lat="44.80294" lon="3.78398">
        <ele>931</ele>
        <time>2022-06-06T12:03:52Z</time>
      </trkpt>
      <trkpt lat="44.80249" lon="3.78407">
        <ele>929</ele>
        <time>2022-06-06T12:04:00Z</time>
      </trkpt>
      <trkpt lat="44.80203" lon="3.78426">
        <ele>927</ele>
        <time>2022-06-06T12:04:09Z</time>
      </trkpt>
      <trkpt lat="44.80163" lon="3.78447">
        <ele>925</ele>
        <time>2022-06-06T12:04:17Z</time>
      </trkpt>
      <trkpt lat="44.8015" lon="3.78461">
        <ele>924</ele>
        <time>2022-06-06T12:04:19Z</time>
      </trkpt>
      <trkpt lat="44.80142" lon="3.78481">
        <ele>924</ele>
        <time>2022-06-06T12:04:22Z</time>
      </trkpt>
      <trkpt lat="44.80131" lon="3.78544">
        <ele>925</ele>
        <time>2022-06-06T12:04:31Z</time>
      </trkpt>
      <trkpt lat="44.80107" lon="3.78627">
        <ele>927</ele>
        <time>2022-06-06T12:04:42Z</time>
      </trkpt>
      <trkpt lat="44.80067" lon="3.78867">
        <ele>931</ele>
        <time>2022-06-06T12:05:13Z</time>
      </trkpt>
      <trkpt lat="44.80066" lon="3.78902">
        <ele>932</ele>
        <time>2022-06-06T12:05:17Z</time>
      </trkpt>
      <trkpt lat="44.80069" lon="3.78951">
        <ele>933</ele>
        <time>2022-06-06T12:05:24Z</time>
      </trkpt>
      <trkpt lat="44.80083" lon="3.79049">
        <ele>933</ele>
        <time>2022-06-06T12:05:36Z</time>
      </trkpt>
      <trkpt lat="44.80085" lon="3.79089">
        <ele>933</ele>
        <time>2022-06-06T12:05:41Z</time>
      </trkpt>
      <trkpt lat="44.80083" lon="3.79129">
        <ele>934</ele>
        <time>2022-06-06T12:05:46Z</time>
      </trkpt>
      <trkpt lat="44.80075" lon="3.79164">
        <ele>935</ele>
        <time>2022-06-06T12:05:51Z</time>
      </trkpt>
      <trkpt lat="44.80002" lon="3.79392">
        <ele>937</ele>
        <time>2022-06-06T12:06:23Z</time>
      </trkpt>
      <trkpt lat="44.79994" lon="3.79423">
        <ele>937</ele>
        <time>2022-06-06T12:06:27Z</time>
      </trkpt>
      <trkpt lat="44.79996" lon="3.79455">
        <ele>937</ele>
        <time>2022-06-06T12:06:31Z</time>
      </trkpt>
      <trkpt lat="44.80018" lon="3.79536">
        <ele>938</ele>
        <time>2022-06-06T12:06:42Z</time>
      </trkpt>
      <trkpt lat="44.80021" lon="3.79563">
        <ele>939</ele>
        <time>2022-06-06T12:06:45Z</time>
      </trkpt>
      <trkpt lat="44.80022" lon="3.79819">
        <ele>943</ele>
        <time>2022-06-06T12:07:18Z</time>
      </trkpt>
      <trkpt lat="44.80045" lon="3.79897">
        <ele>944</ele>
        <time>2022-06-06T12:07:28Z</time>
      </trkpt>
      <trkpt lat="44.80048" lon="3.79919">
        <ele>944</ele>
        <time>2022-06-06T12:07:31Z</time>
      </trkpt>
      <trkpt lat="44.80042" lon="3.79947">
        <ele>945</ele>
        <time>2022-06-06T12:07:35Z</time>
      </trkpt>
      <trkpt lat="44.80026" lon="3.79964">
        <ele>945</ele>
        <time>2022-06-06T12:07:38Z</time>
      </trkpt>
      <trkpt lat="44.80007" lon="3.79969">
        <ele>944</ele>
        <time>2022-06-06T12:07:42Z</time>
      </trkpt>
      <trkpt lat="44.79952" lon="3.79958">
        <ele>943</ele>
        <time>2022-06-06T12:07:52Z</time>
      </trkpt>
      <trkpt lat="44.79929" lon="3.79947">
        <ele>943</ele>
        <time>2022-06-06T12:07:56Z</time>
      </trkpt>
      <trkpt lat="44.79887" lon="3.79917">
        <ele>940</ele>
        <time>2022-06-06T12:08:04Z</time>
      </trkpt>
      <trkpt lat="44.7987" lon="3.79907">
        <ele>939</ele>
        <time>2022-06-06T12:08:08Z</time>
      </trkpt>
      <trkpt lat="44.79785" lon="3.79896">
        <ele>934</ele>
        <time>2022-06-06T12:08:23Z</time>
      </trkpt>
      <trkpt lat="44.79724" lon="3.79884">
        <ele>930</ele>
        <time>2022-06-06T12:08:34Z</time>
      </trkpt>
      <trkpt lat="44.7967" lon="3.79885">
        <ele>929</ele>
        <time>2022-06-06T12:08:43Z</time>
      </trkpt>
      <trkpt lat="44.7961" lon="3.79889">
        <ele>926</ele>
        <time>2022-06-06T12:08:54Z</time>
      </trkpt>
      <trkpt lat="44.79587" lon="3.79894">
        <ele>924</ele>
        <time>2022-06-06T12:08:58Z</time>
      </trkpt>
      <trkpt lat="44.79501" lon="3.79939">
        <ele>920</ele>
        <time>2022-06-06T12:09:14Z</time>
      </trkpt>
      <trkpt lat="44.79467" lon="3.79951">
        <ele>919</ele>
        <time>2022-06-06T12:09:21Z</time>
      </trkpt>
      <trkpt lat="44.7938" lon="3.79972">
        <ele>919</ele>
        <time>2022-06-06T12:09:36Z</time>
      </trkpt>
      <trkpt lat="44.79351" lon="3.79984">
        <ele>920</ele>
        <time>2022-06-06T12:09:42Z</time>
      </trkpt>
      <trkpt lat="44.79285" lon="3.8002">
        <ele>922</ele>
        <time>2022-06-06T12:09:54Z</time>
      </trkpt>
      <trkpt lat="44.79256" lon="3.79997">
        <ele>921</ele>
        <time>2022-06-06T12:10:00Z</time>
      </trkpt>
      <trkpt lat="44.79238" lon="3.79978">
        <ele>920</ele>
        <time>2022-06-06T12:10:04Z</time>
      </trkpt>
      <trkpt lat="44.79225" lon="3.79986">
        <ele>919</ele>
        <time>2022-06-06T12:10:07Z</time>
      </trkpt>
      <trkpt lat="44.792" lon="3.79992">
        <ele>917</ele>
        <time>2022-06-06T12:10:11Z</time>
      </trkpt>
      <trkpt lat="44.79186" lon="3.79987">
        <ele>916</ele>
        <time>2022-06-06T12:10:14Z</time>
      </trkpt>
      <trkpt lat="44.79172" lon="3.79989">
        <ele>915</ele>
        <time>2022-06-06T12:10:16Z</time>
      </trkpt>
      <trkpt lat="44.79163" lon="3.8001">
        <ele>915</ele>
        <time>2022-06-06T12:10:20Z</time>
      </trkpt>
      <trkpt lat="44.79157" lon="3.80023">
        <ele>915</ele>
        <time>2022-06-06T12:10:21Z</time>
      </trkpt>
      <trkpt lat="44.79168" lon="3.79943">
        <ele>912</ele>
        <time>2022-06-06T12:10:32Z</time>
      </trkpt>
      <trkpt lat="44.79173" lon="3.7991">
        <ele>911</ele>
        <time>2022-06-06T12:10:36Z</time>
      </trkpt>
      <trkpt lat="44.79174" lon="3.79879">
        <ele>910</ele>
        <time>2022-06-06T12:10:40Z</time>
      </trkpt>
      <trkpt lat="44.79172" lon="3.79861">
        <ele>909</ele>
        <time>2022-06-06T12:10:42Z</time>
      </trkpt>
      <trkpt lat="44.79113" lon="3.7967">
        <ele>902</ele>
        <time>2022-06-06T12:11:09Z</time>
      </trkpt>
      <trkpt lat="44.79101" lon="3.79651">
        <ele>901</ele>
        <time>2022-06-06T12:11:12Z</time>
      </trkpt>
      <trkpt lat="44.79086" lon="3.79639">
        <ele>900</ele>
        <time>2022-06-06T12:11:15Z</time>
      </trkpt>
      <trkpt lat="44.79065" lon="3.79631">
        <ele>898</ele>
        <time>2022-06-06T12:11:19Z</time>
      </trkpt>
      <trkpt lat="44.79007" lon="3.79613">
        <ele>891</ele>
        <time>2022-06-06T12:11:29Z</time>
      </trkpt>
      <trkpt lat="44.78995" lon="3.79605">
        <ele>889</ele>
        <time>2022-06-06T12:11:32Z</time>
      </trkpt>
      <trkpt lat="44.78985" lon="3.7959">
        <ele>888</ele>
        <time>2022-06-06T12:11:34Z</time>
      </trkpt>
      <trkpt lat="44.78978" lon="3.79566">
        <ele>886</ele>
        <time>2022-06-06T12:11:37Z</time>
      </trkpt>
      <trkpt lat="44.78977" lon="3.79531">
        <ele>886</ele>
        <time>2022-06-06T12:11:42Z</time>
      </trkpt>
      <trkpt lat="44.7898" lon="3.79497">
        <ele>886</ele>
        <time>2022-06-06T12:11:46Z</time>
      </trkpt>
      <trkpt lat="44.78986" lon="3.79476">
        <ele>884</ele>
        <time>2022-06-06T12:11:49Z</time>
      </trkpt>
      <trkpt lat="44.79051" lon="3.79339">
        <ele>880</ele>
        <time>2022-06-06T12:12:10Z</time>
      </trkpt>
      <trkpt lat="44.79062" lon="3.79309">
        <ele>878</ele>
        <time>2022-06-06T12:12:14Z</time>
      </trkpt>
      <trkpt lat="44.79086" lon="3.79226">
        <ele>868</ele>
        <time>2022-06-06T12:12:25Z</time>
      </trkpt>
      <trkpt lat="44.79093" lon="3.79211">
        <ele>866</ele>
        <time>2022-06-06T12:12:28Z</time>
      </trkpt>
      <trkpt lat="44.79101" lon="3.79201">
        <ele>865</ele>
        <time>2022-06-06T12:12:30Z</time>
      </trkpt>
      <trkpt lat="44.79128" lon="3.79181">
        <ele>867</ele>
        <time>2022-06-06T12:12:35Z</time>
      </trkpt>
      <trkpt lat="44.79136" lon="3.79173">
        <ele>867</ele>
        <time>2022-06-06T12:12:37Z</time>
      </trkpt>
      <trkpt lat="44.79153" lon="3.79132">
        <ele>860</ele>
        <time>2022-06-06T12:12:43Z</time>
      </trkpt>
      <trkpt lat="44.79161" lon="3.79122">
        <ele>858</ele>
        <time>2022-06-06T12:12:45Z</time>
      </trkpt>
      <trkpt lat="44.79178" lon="3.79111">
        <ele>857</ele>
        <time>2022-06-06T12:12:48Z</time>
      </trkpt>
      <trkpt lat="44.79188" lon="3.79108">
        <ele>857</ele>
        <time>2022-06-06T12:12:50Z</time>
      </trkpt>
      <trkpt lat="44.79218" lon="3.79106">
        <ele>859</ele>
        <time>2022-06-06T12:12:55Z</time>
      </trkpt>
      <trkpt lat="44.7927" lon="3.79116">
        <ele>865</ele>
        <time>2022-06-06T12:13:05Z</time>
      </trkpt>
      <trkpt lat="44.79285" lon="3.7911">
        <ele>865</ele>
        <time>2022-06-06T12:13:07Z</time>
      </trkpt>
      <trkpt lat="44.79296" lon="3.79101">
        <ele>865</ele>
        <time>2022-06-06T12:13:10Z</time>
      </trkpt>
      <trkpt lat="44.7931" lon="3.79083">
        <ele>864</ele>
        <time>2022-06-06T12:13:13Z</time>
      </trkpt>
      <trkpt lat="44.79319" lon="3.79065">
        <ele>864</ele>
        <time>2022-06-06T12:13:16Z</time>
      </trkpt>
      <trkpt lat="44.79321" lon="3.79044">
        <ele>863</ele>
        <time>2022-06-06T12:13:18Z</time>
      </trkpt>
      <trkpt lat="44.79317" lon="3.78976">
        <ele>858</ele>
        <time>2022-06-06T12:13:27Z</time>
      </trkpt>
      <trkpt lat="44.79318" lon="3.78942">
        <ele>855</ele>
        <time>2022-06-06T12:13:31Z</time>
      </trkpt>
      <trkpt lat="44.79323" lon="3.78922">
        <ele>854</ele>
        <time>2022-06-06T12:13:34Z</time>
      </trkpt>
      <trkpt lat="44.79339" lon="3.78899">
        <ele>854</ele>
        <time>2022-06-06T12:13:38Z</time>
      </trkpt>
      <trkpt lat="44.7935" lon="3.78881">
        <ele>853</ele>
        <time>2022-06-06T12:13:41Z</time>
      </trkpt>
      <trkpt lat="44.79358" lon="3.78865">
        <ele>852</ele>
        <time>2022-06-06T12:13:44Z</time>
      </trkpt>
      <trkpt lat="44.79367" lon="3.78855">
        <ele>853</ele>
        <time>2022-06-06T12:13:46Z</time>
      </trkpt>
      <trkpt lat="44.79389" lon="3.78838">
        <ele>856</ele>
        <time>2022-06-06T12:13:50Z</time>
      </trkpt>
      <trkpt lat="44.79417" lon="3.7879">
        <ele>853</ele>
        <time>2022-06-06T12:13:58Z</time>
      </trkpt>
      <trkpt lat="44.79431" lon="3.78764">
        <ele>854</ele>
        <time>2022-06-06T12:14:02Z</time>
      </trkpt>
      <trkpt lat="44.79442" lon="3.78724">
        <ele>852</ele>
        <time>2022-06-06T12:14:07Z</time>
      </trkpt>
      <trkpt lat="44.79456" lon="3.78706">
        <ele>856</ele>
        <time>2022-06-06T12:14:11Z</time>
      </trkpt>
      <trkpt lat="44.79458" lon="3.78694">
        <ele>855</ele>
        <time>2022-06-06T12:14:12Z</time>
      </trkpt>
      <trkpt lat="44.79455" lon="3.78686">
        <ele>852</ele>
        <time>2022-06-06T12:14:14Z</time>
      </trkpt>
      <trkpt lat="44.79451" lon="3.78682">
        <ele>849</ele>
        <time>2022-06-06T12:14:14Z</time>
      </trkpt>
      <trkpt lat="44.79445" lon="3.78685">
        <ele>847</ele>
        <time>2022-06-06T12:14:16Z</time>
      </trkpt>
      <trkpt lat="44.79436" lon="3.78707">
        <ele>846</ele>
        <time>2022-06-06T12:14:19Z</time>
      </trkpt>
      <trkpt lat="44.79419" lon="3.78762">
        <ele>847</ele>
        <time>2022-06-06T12:14:26Z</time>
      </trkpt>
      <trkpt lat="44.79411" lon="3.78774">
        <ele>847</ele>
        <time>2022-06-06T12:14:28Z</time>
      </trkpt>
      <trkpt lat="44.79369" lon="3.78817">
        <ele>845</ele>
        <time>2022-06-06T12:14:38Z</time>
      </trkpt>
      <trkpt lat="44.79335" lon="3.78843">
        <ele>840</ele>
        <time>2022-06-06T12:14:44Z</time>
      </trkpt>
      <trkpt lat="44.79326" lon="3.78842">
        <ele>838</ele>
        <time>2022-06-06T12:14:46Z</time>
      </trkpt>
      <trkpt lat="44.79321" lon="3.78829">
        <ele>835</ele>
        <time>2022-06-06T12:14:48Z</time>
      </trkpt>
      <trkpt lat="44.79316" lon="3.78815">
        <ele>832</ele>
        <time>2022-06-06T12:14:50Z</time>
      </trkpt>
      <trkpt lat="44.7931" lon="3.7881">
        <ele>831</ele>
        <time>2022-06-06T12:14:51Z</time>
      </trkpt>
      <trkpt lat="44.79301" lon="3.78798">
        <ele>830</ele>
        <time>2022-06-06T12:14:53Z</time>
      </trkpt>
      <trkpt lat="44.79297" lon="3.7879">
        <ele>829</ele>
        <time>2022-06-06T12:14:55Z</time>
      </trkpt>
      <trkpt lat="44.79295" lon="3.78778">
        <ele>828</ele>
        <time>2022-06-06T12:14:56Z</time>
      </trkpt>
      <trkpt lat="44.79301" lon="3.78729">
        <ele>830</ele>
        <time>2022-06-06T12:15:02Z</time>
      </trkpt>
      <trkpt lat="44.79307" lon="3.78715">
        <ele>832</ele>
        <time>2022-06-06T12:15:05Z</time>
      </trkpt>
      <trkpt lat="44.79331" lon="3.78683">
        <ele>833</ele>
        <time>2022-06-06T12:15:10Z</time>
      </trkpt>
      <trkpt lat="44.79339" lon="3.78666">
        <ele>835</ele>
        <time>2022-06-06T12:15:13Z</time>
      </trkpt>
      <trkpt lat="44.79351" lon="3.78603">
        <ele>844</ele>
        <time>2022-06-06T12:15:21Z</time>
      </trkpt>
      <trkpt lat="44.7936" lon="3.78559">
        <ele>850</ele>
        <time>2022-06-06T12:15:27Z</time>
      </trkpt>
      <trkpt lat="44.79395" lon="3.78483">
        <ele>851</ele>
        <time>2022-06-06T12:15:38Z</time>
      </trkpt>
      <trkpt lat="44.79469" lon="3.78306">
        <ele>859</ele>
        <time>2022-06-06T12:16:04Z</time>
      </trkpt>
      <trkpt lat="44.79479" lon="3.7828">
        <ele>857</ele>
        <time>2022-06-06T12:16:08Z</time>
      </trkpt>
      <trkpt lat="44.7948" lon="3.78253">
        <ele>859</ele>
        <time>2022-06-06T12:16:12Z</time>
      </trkpt>
      <trkpt lat="44.79472" lon="3.78195">
        <ele>860</ele>
        <time>2022-06-06T12:16:19Z</time>
      </trkpt>
      <trkpt lat="44.79461" lon="3.78138">
        <ele>861</ele>
        <time>2022-06-06T12:16:26Z</time>
      </trkpt>
      <trkpt lat="44.79459" lon="3.78092">
        <ele>859</ele>
        <time>2022-06-06T12:16:32Z</time>
      </trkpt>
      <trkpt lat="44.79453" lon="3.78085">
        <ele>861</ele>
        <time>2022-06-06T12:16:34Z</time>
      </trkpt>
      <trkpt lat="44.79441" lon="3.78083">
        <ele>866</ele>
        <time>2022-06-06T12:16:36Z</time>
      </trkpt>
      <trkpt lat="44.79414" lon="3.78092">
        <ele>877</ele>
        <time>2022-06-06T12:16:41Z</time>
      </trkpt>
      <trkpt lat="44.79391" lon="3.78096">
        <ele>881</ele>
        <time>2022-06-06T12:16:45Z</time>
      </trkpt>
      <trkpt lat="44.79367" lon="3.78093">
        <ele>884</ele>
        <time>2022-06-06T12:16:49Z</time>
      </trkpt>
      <trkpt lat="44.79345" lon="3.78067">
        <ele>887</ele>
        <time>2022-06-06T12:16:54Z</time>
      </trkpt>
      <trkpt lat="44.79335" lon="3.78066">
        <ele>888</ele>
        <time>2022-06-06T12:16:56Z</time>
      </trkpt>
      <trkpt lat="44.79331" lon="3.78078">
        <ele>888</ele>
        <time>2022-06-06T12:16:58Z</time>
      </trkpt>
      <trkpt lat="44.79341" lon="3.78095">
        <ele>888</ele>
        <time>2022-06-06T12:17:01Z</time>
      </trkpt>
      <trkpt lat="44.79369" lon="3.7811">
        <ele>886</ele>
        <time>2022-06-06T12:17:06Z</time>
      </trkpt>
      <trkpt lat="44.79391" lon="3.78133">
        <ele>884</ele>
        <time>2022-06-06T12:17:11Z</time>
      </trkpt>
      <trkpt lat="44.79395" lon="3.78163">
        <ele>886</ele>
        <time>2022-06-06T12:17:15Z</time>
      </trkpt>
      <trkpt lat="44.79389" lon="3.78201">
        <ele>890</ele>
        <time>2022-06-06T12:17:19Z</time>
      </trkpt>
      <trkpt lat="44.7937" lon="3.78243">
        <ele>895</ele>
        <time>2022-06-06T12:17:26Z</time>
      </trkpt>
      <trkpt lat="44.79335" lon="3.7828">
        <ele>900</ele>
        <time>2022-06-06T12:17:34Z</time>
      </trkpt>
      <trkpt lat="44.7931" lon="3.78295">
        <ele>904</ele>
        <time>2022-06-06T12:17:38Z</time>
      </trkpt>
      <trkpt lat="44.7928" lon="3.78311">
        <ele>909</ele>
        <time>2022-06-06T12:17:44Z</time>
      </trkpt>
      <trkpt lat="44.79259" lon="3.78329">
        <ele>913</ele>
        <time>2022-06-06T12:17:48Z</time>
      </trkpt>
      <trkpt lat="44.79233" lon="3.78377">
        <ele>915</ele>
        <time>2022-06-06T12:17:56Z</time>
      </trkpt>
      <trkpt lat="44.79214" lon="3.78388">
        <ele>916</ele>
        <time>2022-06-06T12:18:00Z</time>
      </trkpt>
      <trkpt lat="44.79168" lon="3.784">
        <ele>920</ele>
        <time>2022-06-06T12:18:08Z</time>
      </trkpt>
      <trkpt lat="44.79131" lon="3.78428">
        <ele>923</ele>
        <time>2022-06-06T12:18:16Z</time>
      </trkpt>
      <trkpt lat="44.7911" lon="3.78438">
        <ele>925</ele>
        <time>2022-06-06T12:18:19Z</time>
      </trkpt>
      <trkpt lat="44.79073" lon="3.78446">
        <ele>928</ele>
        <time>2022-06-06T12:18:26Z</time>
      </trkpt>
      <trkpt lat="44.7904" lon="3.78443">
        <ele>929</ele>
        <time>2022-06-06T12:18:32Z</time>
      </trkpt>
      <trkpt lat="44.78997" lon="3.78432">
        <ele>930</ele>
        <time>2022-06-06T12:18:40Z</time>
      </trkpt>
      <trkpt lat="44.78965" lon="3.78432">
        <ele>929</ele>
        <time>2022-06-06T12:18:46Z</time>
      </trkpt>
      <trkpt lat="44.7894" lon="3.78445">
        <ele>928</ele>
        <time>2022-06-06T12:18:50Z</time>
      </trkpt>
      <trkpt lat="44.78928" lon="3.78458">
        <ele>927</ele>
        <time>2022-06-06T12:18:53Z</time>
      </trkpt>
      <trkpt lat="44.78898" lon="3.78497">
        <ele>927</ele>
        <time>2022-06-06T12:19:00Z</time>
      </trkpt>
      <trkpt lat="44.78872" lon="3.78502">
        <ele>928</ele>
        <time>2022-06-06T12:19:05Z</time>
      </trkpt>
      <trkpt lat="44.78738" lon="3.78488">
        <ele>940</ele>
        <time>2022-06-06T12:19:29Z</time>
      </trkpt>
      <trkpt lat="44.78681" lon="3.78472">
        <ele>946</ele>
        <time>2022-06-06T12:19:39Z</time>
      </trkpt>
      <trkpt lat="44.78638" lon="3.78447">
        <ele>950</ele>
        <time>2022-06-06T12:19:47Z</time>
      </trkpt>
      <trkpt lat="44.78616" lon="3.78442">
        <ele>952</ele>
        <time>2022-06-06T12:19:51Z</time>
      </trkpt>
      <trkpt lat="44.78599" lon="3.78446">
        <ele>954</ele>
        <time>2022-06-06T12:19:54Z</time>
      </trkpt>
      <trkpt lat="44.78565" lon="3.78468">
        <ele>956</ele>
        <time>2022-06-06T12:20:01Z</time>
      </trkpt>
      <trkpt lat="44.78546" lon="3.7847">
        <ele>957</ele>
        <time>2022-06-06T12:20:04Z</time>
      </trkpt>
      <trkpt lat="44.78528" lon="3.78465">
        <ele>958</ele>
        <time>2022-06-06T12:20:08Z</time>
      </trkpt>
      <trkpt lat="44.78502" lon="3.78436">
        <ele>958</ele>
        <time>2022-06-06T12:20:14Z</time>
      </trkpt>
      <trkpt lat="44.78488" lon="3.78432">
        <ele>958</ele>
        <time>2022-06-06T12:20:16Z</time>
      </trkpt>
      <trkpt lat="44.78453" lon="3.78429">
        <ele>959</ele>
        <time>2022-06-06T12:20:22Z</time>
      </trkpt>
      <trkpt lat="44.7841" lon="3.78406">
        <ele>961</ele>
        <time>2022-06-06T12:20:31Z</time>
      </trkpt>
      <trkpt lat="44.78375" lon="3.78378">
        <ele>963</ele>
        <time>2022-06-06T12:20:38Z</time>
      </trkpt>
      <trkpt lat="44.78353" lon="3.78366">
        <ele>963</ele>
        <time>2022-06-06T12:20:42Z</time>
      </trkpt>
      <trkpt lat="44.78306" lon="3.78354">
        <ele>965</ele>
        <time>2022-06-06T12:20:50Z</time>
      </trkpt>
      <trkpt lat="44.78241" lon="3.78317">
        <ele>966</ele>
        <time>2022-06-06T12:21:03Z</time>
      </trkpt>
      <trkpt lat="44.78195" lon="3.78291">
        <ele>969</ele>
        <time>2022-06-06T12:21:12Z</time>
      </trkpt>
      <trkpt lat="44.78161" lon="3.78259">
        <ele>971</ele>
        <time>2022-06-06T12:21:19Z</time>
      </trkpt>
      <trkpt lat="44.78132" lon="3.78226">
        <ele>974</ele>
        <time>2022-06-06T12:21:26Z</time>
      </trkpt>
      <trkpt lat="44.78092" lon="3.78204">
        <ele>974</ele>
        <time>2022-06-06T12:21:33Z</time>
      </trkpt>
      <trkpt lat="44.78066" lon="3.78174">
        <ele>976</ele>
        <time>2022-06-06T12:21:39Z</time>
      </trkpt>
      <trkpt lat="44.78046" lon="3.78156">
        <ele>978</ele>
        <time>2022-06-06T12:21:44Z</time>
      </trkpt>
      <trkpt lat="44.78028" lon="3.78155">
        <ele>978</ele>
        <time>2022-06-06T12:21:47Z</time>
      </trkpt>
      <trkpt lat="44.77992" lon="3.78164">
        <ele>978</ele>
        <time>2022-06-06T12:21:53Z</time>
      </trkpt>
      <trkpt lat="44.77968" lon="3.7816">
        <ele>979</ele>
        <time>2022-06-06T12:21:58Z</time>
      </trkpt>
      <trkpt lat="44.77948" lon="3.7815">
        <ele>979</ele>
        <time>2022-06-06T12:22:01Z</time>
      </trkpt>
      <trkpt lat="44.77921" lon="3.78156">
        <ele>979</ele>
        <time>2022-06-06T12:22:06Z</time>
      </trkpt>
      <trkpt lat="44.77892" lon="3.78163">
        <ele>978</ele>
        <time>2022-06-06T12:22:11Z</time>
      </trkpt>
      <trkpt lat="44.77875" lon="3.78162">
        <ele>977</ele>
        <time>2022-06-06T12:22:14Z</time>
      </trkpt>
      <trkpt lat="44.77856" lon="3.78155">
        <ele>977</ele>
        <time>2022-06-06T12:22:18Z</time>
      </trkpt>
      <trkpt lat="44.77842" lon="3.78141">
        <ele>977</ele>
        <time>2022-06-06T12:22:21Z</time>
      </trkpt>
      <trkpt lat="44.77817" lon="3.78105">
        <ele>979</ele>
        <time>2022-06-06T12:22:27Z</time>
      </trkpt>
      <trkpt lat="44.77789" lon="3.78078">
        <ele>980</ele>
        <time>2022-06-06T12:22:33Z</time>
      </trkpt>
      <trkpt lat="44.77748" lon="3.78038">
        <ele>983</ele>
        <time>2022-06-06T12:22:42Z</time>
      </trkpt>
      <trkpt lat="44.77733" lon="3.78029">
        <ele>985</ele>
        <time>2022-06-06T12:22:45Z</time>
      </trkpt>
      <trkpt lat="44.77719" lon="3.7803">
        <ele>986</ele>
        <time>2022-06-06T12:22:48Z</time>
      </trkpt>
      <trkpt lat="44.7771" lon="3.78039">
        <ele>986</ele>
        <time>2022-06-06T12:22:50Z</time>
      </trkpt>
      <trkpt lat="44.7769" lon="3.78071">
        <ele>986</ele>
        <time>2022-06-06T12:22:55Z</time>
      </trkpt>
      <trkpt lat="44.77643" lon="3.78121">
        <ele>986</ele>
        <time>2022-06-06T12:23:05Z</time>
      </trkpt>
      <trkpt lat="44.77624" lon="3.78129">
        <ele>987</ele>
        <time>2022-06-06T12:23:09Z</time>
      </trkpt>
      <trkpt lat="44.77609" lon="3.78128">
        <ele>988</ele>
        <time>2022-06-06T12:23:12Z</time>
      </trkpt>
      <trkpt lat="44.77589" lon="3.78118">
        <ele>990</ele>
        <time>2022-06-06T12:23:15Z</time>
      </trkpt>
      <trkpt lat="44.77558" lon="3.78079">
        <ele>992</ele>
        <time>2022-06-06T12:23:23Z</time>
      </trkpt>
      <trkpt lat="44.77521" lon="3.78021">
        <ele>995</ele>
        <time>2022-06-06T12:23:33Z</time>
      </trkpt>
      <trkpt lat="44.775" lon="3.77983">
        <ele>998</ele>
        <time>2022-06-06T12:23:39Z</time>
      </trkpt>
      <trkpt lat="44.77479" lon="3.77928">
        <ele>1002</ele>
        <time>2022-06-06T12:23:47Z</time>
      </trkpt>
      <trkpt lat="44.77459" lon="3.779">
        <ele>1004</ele>
        <time>2022-06-06T12:23:52Z</time>
      </trkpt>
      <trkpt lat="44.77365" lon="3.77833">
        <ele>1013</ele>
        <time>2022-06-06T12:24:10Z</time>
      </trkpt>
      <trkpt lat="44.77342" lon="3.77823">
        <ele>1014</ele>
        <time>2022-06-06T12:24:15Z</time>
      </trkpt>
      <trkpt lat="44.77325" lon="3.77824">
        <ele>1014</ele>
        <time>2022-06-06T12:24:18Z</time>
      </trkpt>
      <trkpt lat="44.77293" lon="3.77841">
        <ele>1016</ele>
        <time>2022-06-06T12:24:24Z</time>
      </trkpt>
      <trkpt lat="44.77246" lon="3.77872">
        <ele>1018</ele>
        <time>2022-06-06T12:24:33Z</time>
      </trkpt>
      <trkpt lat="44.77193" lon="3.77888">
        <ele>1020</ele>
        <time>2022-06-06T12:24:43Z</time>
      </trkpt>
      <trkpt lat="44.77128" lon="3.77904">
        <ele>1025</ele>
        <time>2022-06-06T12:24:54Z</time>
      </trkpt>
      <trkpt lat="44.77044" lon="3.77939">
        <ele>1031</ele>
        <time>2022-06-06T12:25:10Z</time>
      </trkpt>
      <trkpt lat="44.77017" lon="3.77957">
        <ele>1032</ele>
        <time>2022-06-06T12:25:15Z</time>
      </trkpt>
      <trkpt lat="44.76985" lon="3.77997">
        <ele>1032</ele>
        <time>2022-06-06T12:25:23Z</time>
      </trkpt>
      <trkpt lat="44.76952" lon="3.78043">
        <ele>1032</ele>
        <time>2022-06-06T12:25:31Z</time>
      </trkpt>
      <trkpt lat="44.76946" lon="3.78052">
        <ele>1032</ele>
        <time>2022-06-06T12:25:33Z</time>
      </trkpt>
      <trkpt lat="44.7692" lon="3.78082">
        <ele>1034</ele>
        <time>2022-06-06T12:25:39Z</time>
      </trkpt>
      <trkpt lat="44.76884" lon="3.78107">
        <ele>1035</ele>
        <time>2022-06-06T12:25:46Z</time>
      </trkpt>
      <trkpt lat="44.76842" lon="3.78116">
        <ele>1037</ele>
        <time>2022-06-06T12:25:53Z</time>
      </trkpt>
      <trkpt lat="44.76812" lon="3.78126">
        <ele>1038</ele>
        <time>2022-06-06T12:25:59Z</time>
      </trkpt>
      <trkpt lat="44.76787" lon="3.78142">
        <ele>1037</ele>
        <time>2022-06-06T12:26:04Z</time>
      </trkpt>
      <trkpt lat="44.76771" lon="3.78161">
        <ele>1037</ele>
        <time>2022-06-06T12:26:08Z</time>
      </trkpt>
      <trkpt lat="44.76758" lon="3.78185">
        <ele>1037</ele>
        <time>2022-06-06T12:26:11Z</time>
      </trkpt>
      <trkpt lat="44.76743" lon="3.78241">
        <ele>1037</ele>
        <time>2022-06-06T12:26:19Z</time>
      </trkpt>
      <trkpt lat="44.76713" lon="3.78311">
        <ele>1036</ele>
        <time>2022-06-06T12:26:29Z</time>
      </trkpt>
      <trkpt lat="44.76704" lon="3.78332">
        <ele>1036</ele>
        <time>2022-06-06T12:26:32Z</time>
      </trkpt>
      <trkpt lat="44.76696" lon="3.78351">
        <ele>1037</ele>
        <time>2022-06-06T12:26:35Z</time>
      </trkpt>
      <trkpt lat="44.76669" lon="3.78389">
        <ele>1037</ele>
        <time>2022-06-06T12:26:42Z</time>
      </trkpt>
      <trkpt lat="44.76555" lon="3.78496">
        <ele>1026</ele>
        <time>2022-06-06T12:27:06Z</time>
      </trkpt>
      <trkpt lat="44.76523" lon="3.78539">
        <ele>1024</ele>
        <time>2022-06-06T12:27:14Z</time>
      </trkpt>
      <trkpt lat="44.76477" lon="3.78606">
        <ele>1023</ele>
        <time>2022-06-06T12:27:26Z</time>
      </trkpt>
      <trkpt lat="44.76382" lon="3.78715">
        <ele>1010</ele>
        <time>2022-06-06T12:27:48Z</time>
      </trkpt>
      <trkpt lat="44.76358" lon="3.78756">
        <ele>1009</ele>
        <time>2022-06-06T12:27:54Z</time>
      </trkpt>
      <trkpt lat="44.76329" lon="3.78819">
        <ele>1006</ele>
        <time>2022-06-06T12:28:04Z</time>
      </trkpt>
      <trkpt lat="44.76277" lon="3.78976">
        <ele>1006</ele>
        <time>2022-06-06T12:28:26Z</time>
      </trkpt>
      <trkpt lat="44.76256" lon="3.79002">
        <ele>1003</ele>
        <time>2022-06-06T12:28:31Z</time>
      </trkpt>
      <trkpt lat="44.76148" lon="3.79092">
        <ele>991</ele>
        <time>2022-06-06T12:28:53Z</time>
      </trkpt>
      <trkpt lat="44.76124" lon="3.79123">
        <ele>988</ele>
        <time>2022-06-06T12:28:59Z</time>
      </trkpt>
      <trkpt lat="44.76109" lon="3.79162">
        <ele>989</ele>
        <time>2022-06-06T12:29:05Z</time>
      </trkpt>
      <trkpt lat="44.76097" lon="3.79201">
        <ele>989</ele>
        <time>2022-06-06T12:29:10Z</time>
      </trkpt>
      <trkpt lat="44.76088" lon="3.7922">
        <ele>988</ele>
        <time>2022-06-06T12:29:13Z</time>
      </trkpt>
      <trkpt lat="44.76075" lon="3.79229">
        <ele>984</ele>
        <time>2022-06-06T12:29:15Z</time>
      </trkpt>
      <trkpt lat="44.76042" lon="3.79366">
        <ele>984</ele>
        <time>2022-06-06T12:29:34Z</time>
      </trkpt>
      <trkpt lat="44.76017" lon="3.79412">
        <ele>980</ele>
        <time>2022-06-06T12:29:41Z</time>
      </trkpt>
      <trkpt lat="44.75928" lon="3.7949">
        <ele>969</ele>
        <time>2022-06-06T12:30:00Z</time>
      </trkpt>
      <trkpt lat="44.75887" lon="3.79574">
        <ele>970</ele>
        <time>2022-06-06T12:30:12Z</time>
      </trkpt>
      <trkpt lat="44.75874" lon="3.79625">
        <ele>970</ele>
        <time>2022-06-06T12:30:19Z</time>
      </trkpt>
      <trkpt lat="44.75869" lon="3.79656">
        <ele>971</ele>
        <time>2022-06-06T12:30:23Z</time>
      </trkpt>
      <trkpt lat="44.75868" lon="3.79696">
        <ele>972</ele>
        <time>2022-06-06T12:30:28Z</time>
      </trkpt>
      <trkpt lat="44.7587" lon="3.79735">
        <ele>974</ele>
        <time>2022-06-06T12:30:33Z</time>
      </trkpt>
      <trkpt lat="44.75881" lon="3.79823">
        <ele>981</ele>
        <time>2022-06-06T12:30:45Z</time>
      </trkpt>
      <trkpt lat="44.75881" lon="3.79844">
        <ele>982</ele>
        <time>2022-06-06T12:30:47Z</time>
      </trkpt>
      <trkpt lat="44.75879" lon="3.79865">
        <ele>982</ele>
        <time>2022-06-06T12:30:50Z</time>
      </trkpt>
      <trkpt lat="44.75871" lon="3.79902">
        <ele>983</ele>
        <time>2022-06-06T12:30:55Z</time>
      </trkpt>
      <trkpt lat="44.75862" lon="3.79924">
        <ele>982</ele>
        <time>2022-06-06T12:30:58Z</time>
      </trkpt>
      <trkpt lat="44.75819" lon="3.79993">
        <ele>978</ele>
        <time>2022-06-06T12:31:10Z</time>
      </trkpt>
      <trkpt lat="44.75811" lon="3.80009">
        <ele>977</ele>
        <time>2022-06-06T12:31:12Z</time>
      </trkpt>
      <trkpt lat="44.75806" lon="3.80026">
        <ele>977</ele>
        <time>2022-06-06T12:31:14Z</time>
      </trkpt>
      <trkpt lat="44.75797" lon="3.80114">
        <ele>979</ele>
        <time>2022-06-06T12:31:26Z</time>
      </trkpt>
      <trkpt lat="44.75793" lon="3.80131">
        <ele>979</ele>
        <time>2022-06-06T12:31:28Z</time>
      </trkpt>
      <trkpt lat="44.75784" lon="3.80156">
        <ele>979</ele>
        <time>2022-06-06T12:31:31Z</time>
      </trkpt>
      <trkpt lat="44.75771" lon="3.80182">
        <ele>979</ele>
        <time>2022-06-06T12:31:36Z</time>
      </trkpt>
      <trkpt lat="44.75735" lon="3.80224">
        <ele>979</ele>
        <time>2022-06-06T12:31:44Z</time>
      </trkpt>
      <trkpt lat="44.75725" lon="3.8024">
        <ele>979</ele>
        <time>2022-06-06T12:31:47Z</time>
      </trkpt>
      <trkpt lat="44.75716" lon="3.80258">
        <ele>980</ele>
        <time>2022-06-06T12:31:49Z</time>
      </trkpt>
      <trkpt lat="44.75613" lon="3.80542">
        <ele>982</ele>
        <time>2022-06-06T12:32:30Z</time>
      </trkpt>
      <trkpt lat="44.75595" lon="3.80575">
        <ele>979</ele>
        <time>2022-06-06T12:32:35Z</time>
      </trkpt>
      <trkpt lat="44.75582" lon="3.8059">
        <ele>978</ele>
        <time>2022-06-06T12:32:38Z</time>
      </trkpt>
      <trkpt lat="44.75566" lon="3.80603">
        <ele>977</ele>
        <time>2022-06-06T12:32:41Z</time>
      </trkpt>
      <trkpt lat="44.75517" lon="3.80633">
        <ele>974</ele>
        <time>2022-06-06T12:32:51Z</time>
      </trkpt>
      <trkpt lat="44.75502" lon="3.80646">
        <ele>973</ele>
        <time>2022-06-06T12:32:54Z</time>
      </trkpt>
      <trkpt lat="44.75486" lon="3.80671">
        <ele>974</ele>
        <time>2022-06-06T12:32:58Z</time>
      </trkpt>
      <trkpt lat="44.7529" lon="3.81029">
        <ele>974</ele>
        <time>2022-06-06T12:33:55Z</time>
      </trkpt>
      <trkpt lat="44.75089" lon="3.81381">
        <ele>961</ele>
        <time>2022-06-06T12:34:52Z</time>
      </trkpt>
      <trkpt lat="44.7507" lon="3.81428">
        <ele>959</ele>
        <time>2022-06-06T12:34:59Z</time>
      </trkpt>
      <trkpt lat="44.75048" lon="3.815">
        <ele>955</ele>
        <time>2022-06-06T12:35:09Z</time>
      </trkpt>
      <trkpt lat="44.74987" lon="3.81768">
        <ele>957</ele>
        <time>2022-06-06T12:35:45Z</time>
      </trkpt>
      <trkpt lat="44.74821" lon="3.82131">
        <ele>957</ele>
        <time>2022-06-06T12:36:39Z</time>
      </trkpt>
      <trkpt lat="44.748" lon="3.82273">
        <ele>958</ele>
        <time>2022-06-06T12:36:57Z</time>
      </trkpt>
      <trkpt lat="44.748" lon="3.82326">
        <ele>957</ele>
        <time>2022-06-06T12:37:04Z</time>
      </trkpt>
      <trkpt lat="44.74808" lon="3.82387">
        <ele>949</ele>
        <time>2022-06-06T12:37:12Z</time>
      </trkpt>
      <trkpt lat="44.74772" lon="3.82655">
        <ele>941</ele>
        <time>2022-06-06T12:37:46Z</time>
      </trkpt>
      <trkpt lat="44.74766" lon="3.82668">
        <ele>944</ele>
        <time>2022-06-06T12:37:48Z</time>
      </trkpt>
      <trkpt lat="44.74763" lon="3.82672">
        <ele>945</ele>
        <time>2022-06-06T12:37:49Z</time>
      </trkpt>
      <trkpt lat="44.74753" lon="3.82674">
        <ele>947</ele>
        <time>2022-06-06T12:37:51Z</time>
      </trkpt>
      <trkpt lat="44.74732" lon="3.82665">
        <ele>947</ele>
        <time>2022-06-06T12:37:55Z</time>
      </trkpt>
      <trkpt lat="44.7472" lon="3.82664">
        <ele>946</ele>
        <time>2022-06-06T12:37:57Z</time>
      </trkpt>
      <trkpt lat="44.74705" lon="3.82668">
        <ele>947</ele>
        <time>2022-06-06T12:38:00Z</time>
      </trkpt>
      <trkpt lat="44.74691" lon="3.8268">
        <ele>948</ele>
        <time>2022-06-06T12:38:03Z</time>
      </trkpt>
      <trkpt lat="44.74681" lon="3.82696">
        <ele>949</ele>
        <time>2022-06-06T12:38:05Z</time>
      </trkpt>
      <trkpt lat="44.74675" lon="3.82714">
        <ele>950</ele>
        <time>2022-06-06T12:38:08Z</time>
      </trkpt>
      <trkpt lat="44.7467" lon="3.8274">
        <ele>952</ele>
        <time>2022-06-06T12:38:11Z</time>
      </trkpt>
      <trkpt lat="44.74653" lon="3.82877">
        <ele>957</ele>
        <time>2022-06-06T12:38:29Z</time>
      </trkpt>
      <trkpt lat="44.74648" lon="3.82891">
        <ele>958</ele>
        <time>2022-06-06T12:38:31Z</time>
      </trkpt>
      <trkpt lat="44.74636" lon="3.82909">
        <ele>957</ele>
        <time>2022-06-06T12:38:34Z</time>
      </trkpt>
      <trkpt lat="44.74623" lon="3.82921">
        <ele>957</ele>
        <time>2022-06-06T12:38:37Z</time>
      </trkpt>
      <trkpt lat="44.74604" lon="3.82928">
        <ele>955</ele>
        <time>2022-06-06T12:38:40Z</time>
      </trkpt>
      <trkpt lat="44.74516" lon="3.82919">
        <ele>948</ele>
        <time>2022-06-06T12:38:56Z</time>
      </trkpt>
      <trkpt lat="44.74483" lon="3.82926">
        <ele>948</ele>
        <time>2022-06-06T12:39:02Z</time>
      </trkpt>
      <trkpt lat="44.74451" lon="3.82944">
        <ele>949</ele>
        <time>2022-06-06T12:39:08Z</time>
      </trkpt>
      <trkpt lat="44.74357" lon="3.83016">
        <ele>950</ele>
        <time>2022-06-06T12:39:27Z</time>
      </trkpt>
      <trkpt lat="44.74322" lon="3.83052">
        <ele>950</ele>
        <time>2022-06-06T12:39:35Z</time>
      </trkpt>
      <trkpt lat="44.74283" lon="3.83101">
        <ele>949</ele>
        <time>2022-06-06T12:39:44Z</time>
      </trkpt>
      <trkpt lat="44.74255" lon="3.83145">
        <ele>949</ele>
        <time>2022-06-06T12:39:51Z</time>
      </trkpt>
      <trkpt lat="44.74239" lon="3.83168">
        <ele>949</ele>
        <time>2022-06-06T12:39:55Z</time>
      </trkpt>
      <trkpt lat="44.74219" lon="3.83186">
        <ele>948</ele>
        <time>2022-06-06T12:40:00Z</time>
      </trkpt>
      <trkpt lat="44.74199" lon="3.83197">
        <ele>947</ele>
        <time>2022-06-06T12:40:04Z</time>
      </trkpt>
      <trkpt lat="44.7395" lon="3.83308">
        <ele>945</ele>
        <time>2022-06-06T12:40:50Z</time>
      </trkpt>
      <trkpt lat="44.73936" lon="3.83316">
        <ele>946</ele>
        <time>2022-06-06T12:40:53Z</time>
      </trkpt>
      <trkpt lat="44.73919" lon="3.83331">
        <ele>947</ele>
        <time>2022-06-06T12:40:56Z</time>
      </trkpt>
      <trkpt lat="44.73899" lon="3.83356">
        <ele>947</ele>
        <time>2022-06-06T12:41:01Z</time>
      </trkpt>
      <trkpt lat="44.73759" lon="3.83576">
        <ele>966</ele>
        <time>2022-06-06T12:41:38Z</time>
      </trkpt>
      <trkpt lat="44.73734" lon="3.83611">
        <ele>968</ele>
        <time>2022-06-06T12:41:45Z</time>
      </trkpt>
      <trkpt lat="44.73481" lon="3.83882">
        <ele>982</ele>
        <time>2022-06-06T12:42:41Z</time>
      </trkpt>
      <trkpt lat="44.73455" lon="3.83903">
        <ele>984</ele>
        <time>2022-06-06T12:42:47Z</time>
      </trkpt>
      <trkpt lat="44.73426" lon="3.83923">
        <ele>987</ele>
        <time>2022-06-06T12:42:52Z</time>
      </trkpt>
      <trkpt lat="44.73397" lon="3.83938">
        <ele>989</ele>
        <time>2022-06-06T12:42:58Z</time>
      </trkpt>
      <trkpt lat="44.73233" lon="3.84008">
        <ele>994</ele>
        <time>2022-06-06T12:43:28Z</time>
      </trkpt>
      <trkpt lat="44.73203" lon="3.84018">
        <ele>992</ele>
        <time>2022-06-06T12:43:34Z</time>
      </trkpt>
      <trkpt lat="44.73181" lon="3.84022">
        <ele>991</ele>
        <time>2022-06-06T12:43:38Z</time>
      </trkpt>
      <trkpt lat="44.73154" lon="3.84019">
        <ele>989</ele>
        <time>2022-06-06T12:43:42Z</time>
      </trkpt>
      <trkpt lat="44.73095" lon="3.83991">
        <ele>983</ele>
        <time>2022-06-06T12:43:54Z</time>
      </trkpt>
      <trkpt lat="44.73074" lon="3.83985">
        <ele>982</ele>
        <time>2022-06-06T12:43:57Z</time>
      </trkpt>
      <trkpt lat="44.73053" lon="3.83985">
        <ele>981</ele>
        <time>2022-06-06T12:44:01Z</time>
      </trkpt>
      <trkpt lat="44.73022" lon="3.83991">
        <ele>980</ele>
        <time>2022-06-06T12:44:07Z</time>
      </trkpt>
      <trkpt lat="44.72773" lon="3.84057">
        <ele>973</ele>
        <time>2022-06-06T12:44:52Z</time>
      </trkpt>
      <trkpt lat="44.72733" lon="3.84063">
        <ele>972</ele>
        <time>2022-06-06T12:44:59Z</time>
      </trkpt>
      <trkpt lat="44.72701" lon="3.84062">
        <ele>971</ele>
        <time>2022-06-06T12:45:05Z</time>
      </trkpt>
      <trkpt lat="44.72657" lon="3.84047">
        <ele>970</ele>
        <time>2022-06-06T12:45:13Z</time>
      </trkpt>
      <trkpt lat="44.72606" lon="3.84025">
        <ele>970</ele>
        <time>2022-06-06T12:45:22Z</time>
      </trkpt>
      <trkpt lat="44.72595" lon="3.84018">
        <ele>970</ele>
        <time>2022-06-06T12:45:24Z</time>
      </trkpt>
      <trkpt lat="44.72584" lon="3.84008">
        <ele>970</ele>
        <time>2022-06-06T12:45:27Z</time>
      </trkpt>
      <trkpt lat="44.72547" lon="3.83958">
        <ele>968</ele>
        <time>2022-06-06T12:45:36Z</time>
      </trkpt>
      <trkpt lat="44.72541" lon="3.83953">
        <ele>968</ele>
        <time>2022-06-06T12:45:37Z</time>
      </trkpt>
    </trkseg>
  </trk>
</gpx>